[[{"header":{"parameterUnit":"m.s-1","parameterCategory":1,"la1":30.6,"la2":29.2853,"lo1":-89.7004,"lo2":-87.6739,"dy":0.0162,"dx":0.0183,"nx":112,"ny":82,"refTime":"2023-10-03T18:00:00:Z","depth":0,"parameterNumber":2,"parameterNumberName":"U-component_of_WINDS"},"data":[0.0,0.0,0.0,0.0,0.0,0.0,0.0,0.0,0.0,0.0,0.0,0.0,0.0,0.0,0.0,0.0,0.0,0.0,0.0,0.0,0.0,0.0,0.0,0.0,0.0,0.0,0.0,0.0,0.0,0.0,0.0,0.0,0.0,0.0,0.0,0.0,0.0,0.0,0.0,0.0,0.0,0.0,0.0,0.0,0.0,0.0,0.0,0.0,0.0,0.0,0.0,0.0,0.0,0.0,0.0,0.0,0.0,0.0,0.0,0.0,0.0,0.0,0.0,0.0,0.0,0.0,0.0,0.0,0.0,0.0,0.0,0.0,0.0,0.0,0.0,0.0,0.0,0.0,0.0,0.0,0.0,0.0,0.0,0.0,0.0,0.0,0.0,0.0,0.0,0.0,5.1533,5.6122,6.0058,6.2812,6.3977,5.9897,5.6387,5.4416,0.0,0.0,0.0,0.0,0.0,0.0,0.0,0.0,0.0,0.0,0.0,0.0,0.0,0.0,0.0,0.0,0.0,0.0,0.0,0.0,0.0,0.0,0.0,0.0,0.0,0.0,0.0,0.0,0.0,0.0,0.0,0.0,0.0,0.0,0.0,0.0,0.0,0.0,0.0,0.0,0.0,0.0,0.0,0.0,0.0,0.0,0.0,0.0,0.0,0.0,0.0,0.0,0.0,0.0,0.0,0.0,0.0,0.0,0.0,0.0,0.0,0.0,0.0,0.0,0.0,0.0,0.0,0.0,0.0,0.0,0.0,0.0,0.0,0.0,0.0,0.0,0.0,0.0,0.0,0.0,0.0,0.0,0.0,0.0,0.0,0.0,0.0,0.0,0.0,0.0,0.0,0.0,0.0,0.0,0.0,0.0,0.0,0.0,0.0,0.0,0.0,0.0,0.0,0.0,5.4974,6.184,6.4444,6.5207,6.4038,6.1358,5.8149,5.4366,0.0,0.0,0.0,0.0,0.0,0.0,0.0,0.0,0.0,0.0,0.0,0.0,0.0,0.0,0.0,0.0,0.0,0.0,0.0,0.0,0.0,0.0,0.0,0.0,0.0,0.0,0.0,0.0,0.0,0.0,0.0,0.0,0.0,0.0,0.0,0.0,0.0,0.0,0.0,0.0,0.0,0.0,0.0,0.0,0.0,0.0,0.0,0.0,0.0,0.0,0.0,0.0,0.0,0.0,0.0,0.0,0.0,0.0,0.0,0.0,0.0,0.0,0.0,0.0,0.0,0.0,0.0,0.0,0.0,0.0,0.0,0.0,0.0,0.0,0.0,0.0,0.0,0.0,0.0,0.0,0.0,0.0,0.0,0.0,0.0,0.0,0.0,0.0,0.0,0.0,0.0,0.0,0.0,0.0,0.0,0.0,0.0,0.0,0.0,0.0,0.0,0.0,0.0,5.4098,5.9204,6.3896,6.5527,6.5976,6.5225,6.2108,5.8612,5.4914,4.9234,0.0,0.0,0.0,0.0,0.0,0.0,0.0,0.0,0.0,0.0,0.0,0.0,0.0,0.0,0.0,0.0,0.0,0.0,0.0,0.0,0.0,0.0,0.0,0.0,0.0,0.0,0.0,0.0,0.0,0.0,0.0,0.0,0.0,0.0,0.0,0.0,0.0,0.0,0.0,0.0,0.0,0.0,0.0,0.0,0.0,0.0,0.0,0.0,0.0,0.0,0.0,0.0,0.0,0.0,0.0,0.0,0.0,0.0,0.0,0.0,0.0,0.0,0.0,0.0,0.0,0.0,0.0,0.0,0.0,0.0,0.0,0.0,0.0,0.0,0.0,0.0,0.0,0.0,0.0,0.0,0.0,0.0,0.0,0.0,0.0,0.0,0.0,0.0,0.0,0.0,0.0,0.0,0.0,0.0,0.0,0.0,0.0,0.0,0.0,0.0,0.0,0.0,5.8656,6.2482,6.5113,6.6204,6.6596,6.6224,6.2587,5.8874,5.5383,4.9723,0.0,0.0,0.0,0.0,0.0,0.0,0.0,0.0,0.0,0.0,0.0,0.0,0.0,0.0,0.0,0.0,0.0,0.0,0.0,0.0,0.0,0.0,0.0,0.0,0.0,0.0,0.0,0.0,0.0,0.0,0.0,0.0,0.0,0.0,0.0,0.0,0.0,0.0,0.0,0.0,0.0,0.0,0.0,0.0,0.0,0.0,0.0,0.0,0.0,0.0,0.0,0.0,0.0,0.0,0.0,0.0,0.0,0.0,0.0,0.0,0.0,0.0,0.0,0.0,0.0,0.0,0.0,0.0,0.0,0.0,0.0,0.0,0.0,0.0,0.0,0.0,0.0,0.0,0.0,0.0,0.0,0.0,0.0,0.0,0.0,0.0,0.0,0.0,0.0,0.0,0.0,0.0,0.0,0.0,0.0,0.0,0.0,0.0,0.0,0.0,0.0,0.0,6.0216,6.3553,6.6785,6.7831,6.7725,6.6245,6.305,5.9372,5.5285,4.9675,0.0,0.0,0.0,0.0,0.0,0.0,0.0,0.0,0.0,0.0,0.0,0.0,0.0,0.0,0.0,0.0,0.0,0.0,0.0,0.0,0.0,0.0,0.0,0.0,0.0,0.0,0.0,0.0,0.0,0.0,0.0,0.0,0.0,0.0,0.0,0.0,0.0,0.0,0.0,0.0,0.0,0.0,0.0,0.0,0.0,0.0,0.0,0.0,0.0,0.0,0.0,0.0,0.0,0.0,0.0,0.0,0.0,0.0,0.0,0.0,0.0,0.0,0.0,0.0,0.0,0.0,0.0,0.0,0.0,0.0,0.0,0.0,0.0,0.0,0.0,0.0,0.0,0.0,0.0,0.0,0.0,0.0,0.0,0.0,0.0,0.0,0.0,0.0,0.0,0.0,0.0,0.0,0.0,0.0,0.0,0.0,0.0,0.0,0.0,0.0,0.0,0.0,6.1425,6.5094,6.6852,6.8215,6.8135,6.6038,6.2823,5.8973,5.4345,0.0,0.0,0.0,0.0,0.0,0.0,0.0,0.0,0.0,0.0,0.0,0.0,0.0,0.0,0.0,0.0,0.0,0.0,0.0,0.0,0.0,0.0,0.0,0.0,0.0,0.0,0.0,0.0,0.0,0.0,0.0,0.0,0.0,0.0,0.0,0.0,0.0,0.0,0.0,0.0,0.0,0.0,0.0,0.0,0.0,0.0,0.0,0.0,0.0,0.0,0.0,0.0,0.0,0.0,0.0,0.0,0.0,0.0,0.0,0.0,0.0,0.0,0.0,0.0,0.0,0.0,0.0,0.0,0.0,0.0,0.0,0.0,0.0,0.0,0.0,0.0,0.0,0.0,0.0,0.0,0.0,0.0,0.0,0.0,0.0,0.0,0.0,0.0,0.0,0.0,0.0,0.0,0.0,0.0,0.0,0.0,0.0,0.0,0.0,0.0,0.0,0.0,5.7317,6.2401,6.602,6.7159,6.8476,6.8322,6.5897,6.2683,5.87,5.3818,0.0,0.0,0.0,0.0,0.0,0.0,0.0,0.0,0.0,0.0,0.0,0.0,0.0,0.0,0.0,0.0,0.0,0.0,0.0,0.0,0.0,0.0,0.0,0.0,0.0,0.0,0.0,0.0,0.0,0.0,0.0,0.0,0.0,0.0,0.0,0.0,0.0,0.0,0.0,0.0,0.0,0.0,0.0,0.0,0.0,0.0,0.0,0.0,0.0,0.0,0.0,0.0,0.0,0.0,0.0,0.0,0.0,0.0,0.0,0.0,0.0,0.0,0.0,0.0,0.0,0.0,0.0,0.0,0.0,0.0,0.0,0.0,0.0,0.0,0.0,0.0,0.0,0.0,0.0,0.0,0.0,0.0,0.0,0.0,0.0,0.0,0.0,0.0,0.0,0.0,0.0,0.0,0.0,0.0,0.0,0.0,0.0,0.0,0.0,0.0,0.0,0.0,5.8873,6.3115,6.6254,6.7928,6.8839,6.8315,6.5891,6.2683,5.8694,0.0,0.0,0.0,0.0,0.0,0.0,0.0,0.0,0.0,0.0,0.0,0.0,0.0,0.0,0.0,0.0,0.0,0.0,0.0,0.0,0.0,0.0,0.0,0.0,0.0,0.0,0.0,0.0,0.0,0.0,0.0,0.0,0.0,0.0,0.0,0.0,0.0,0.0,0.0,0.0,0.0,0.0,0.0,0.0,0.0,0.0,0.0,0.0,0.0,0.0,0.0,0.0,0.0,0.0,0.0,0.0,0.0,0.0,0.0,0.0,0.0,0.0,0.0,0.0,0.0,0.0,0.0,0.0,0.0,0.0,0.0,0.0,0.0,0.0,0.0,0.0,0.0,0.0,0.0,0.0,0.0,0.0,0.0,0.0,0.0,0.0,0.0,0.0,0.0,0.0,0.0,0.0,0.0,0.0,0.0,0.0,0.0,0.0,0.0,0.0,0.0,0.0,0.0,5.8756,6.3873,6.7483,6.8543,6.9388,6.888,6.6453,6.2739,5.8694,5.4391,0.0,0.0,0.0,0.0,0.0,0.0,0.0,0.0,0.0,0.0,0.0,0.0,0.0,0.0,0.0,0.0,0.0,0.0,0.0,0.0,0.0,0.0,0.0,0.0,0.0,0.0,0.0,0.0,0.0,0.0,0.0,0.0,0.0,0.0,0.0,0.0,0.0,0.0,0.0,0.0,0.0,0.0,0.0,0.0,0.0,0.0,0.0,0.0,0.0,0.0,0.0,0.0,0.0,0.0,0.0,0.0,0.0,0.0,0.0,0.0,0.0,0.0,0.0,0.0,0.0,0.0,0.0,0.0,0.0,0.0,0.0,0.0,0.0,0.0,0.0,0.0,0.0,0.0,0.0,0.0,0.0,0.0,0.0,0.0,0.0,0.0,0.0,0.0,0.0,0.0,0.0,0.0,0.0,0.0,0.0,0.0,0.0,0.0,0.0,0.0,0.0,0.0,5.9123,6.4383,6.8024,6.8818,6.9633,6.9119,6.6703,6.3018,5.8954,5.4596,0.0,0.0,0.0,0.0,0.0,0.0,0.0,0.0,0.0,0.0,0.0,0.0,0.0,0.0,0.0,0.0,0.0,0.0,0.0,0.0,0.0,0.0,0.0,0.0,0.0,0.0,0.0,0.0,0.0,0.0,0.0,0.0,0.0,0.0,0.0,0.0,0.0,0.0,0.0,0.0,0.0,0.0,0.0,0.0,0.0,0.0,0.0,0.0,0.0,0.0,0.0,0.0,0.0,0.0,0.0,0.0,0.0,0.0,0.0,0.0,0.0,0.0,0.0,0.0,0.0,0.0,0.0,0.0,0.0,0.0,0.0,0.0,0.0,0.0,0.0,0.0,0.0,0.0,0.0,0.0,0.0,0.0,0.0,0.0,0.0,0.0,0.0,0.0,0.0,0.0,0.0,0.0,0.0,0.0,0.0,0.0,0.0,0.0,0.0,0.0,0.0,0.0,5.9974,6.4792,6.8094,6.8997,6.9664,6.9158,6.6876,6.3473,5.953,5.492,0.0,0.0,0.0,0.0,0.0,0.0,0.0,0.0,0.0,0.0,0.0,0.0,0.0,0.0,0.0,0.0,0.0,0.0,0.0,0.0,0.0,0.0,0.0,0.0,0.0,0.0,0.0,0.0,0.0,0.0,0.0,0.0,0.0,0.0,0.0,0.0,0.0,0.0,0.0,0.0,0.0,0.0,0.0,0.0,0.0,0.0,0.0,0.0,0.0,0.0,0.0,0.0,0.0,0.0,0.0,0.0,0.0,0.0,0.0,0.0,4.1796,3.9675,0.0,0.0,0.0,0.0,0.0,0.0,0.0,0.0,0.0,0.0,0.0,0.0,0.0,0.0,0.0,0.0,0.0,0.0,0.0,0.0,0.0,0.0,0.0,0.0,0.0,0.0,0.0,0.0,0.0,0.0,0.0,0.0,0.0,0.0,0.0,0.0,0.0,0.0,0.0,0.0,6.1336,6.5651,6.8791,7.0252,6.9967,6.9244,6.8098,6.442,6.0933,5.7984,5.2864,0.0,0.0,0.0,0.0,0.0,0.0,0.0,0.0,0.0,0.0,0.0,0.0,0.0,0.0,0.0,0.0,0.0,0.0,0.0,0.0,0.0,0.0,0.0,0.0,0.0,0.0,0.0,0.0,0.0,0.0,0.0,0.0,0.0,0.0,0.0,0.0,0.0,0.0,0.0,0.0,0.0,0.0,0.0,0.0,0.0,0.0,0.0,0.0,0.0,0.0,0.0,0.0,0.0,0.0,0.0,0.0,0.0,0.0,0.0,4.7718,4.4958,0.0,0.0,0.0,0.0,0.0,0.0,0.0,0.0,0.0,0.0,0.0,0.0,0.0,0.0,0.0,0.0,0.0,0.0,0.0,0.0,0.0,0.0,0.0,0.0,0.0,0.0,0.0,0.0,0.0,0.0,0.0,0.0,0.0,0.0,0.0,0.0,0.0,0.0,0.0,0.0,6.1837,6.592,6.9019,7.0631,7.042,6.9683,6.8509,6.5712,6.2656,5.9494,5.5466,0.0,0.0,0.0,0.0,0.0,0.0,0.0,0.0,0.0,0.0,0.0,0.0,0.0,0.0,0.0,0.0,0.0,0.0,0.0,0.0,0.0,0.0,0.0,0.0,0.0,0.0,0.0,0.0,0.0,0.0,0.0,0.0,0.0,0.0,0.0,0.0,0.0,0.0,0.0,0.0,0.0,0.0,0.0,0.0,0.0,0.0,0.0,0.0,0.0,0.0,0.0,0.0,0.0,5.6394,5.7237,5.805,5.8984,5.9718,5.9912,5.4527,5.153,5.0211,4.714,0.0,0.0,0.0,0.0,0.0,0.0,0.0,0.0,0.0,0.0,0.0,0.0,0.0,0.0,0.0,0.0,0.0,0.0,0.0,0.0,0.0,0.0,5.4827,5.643,5.6809,5.5538,5.0795,0.0,0.0,0.0,0.0,0.0,0.0,0.0,0.0,0.0,0.0,0.0,6.2457,6.6463,6.9449,7.0768,7.0913,7.0331,6.8867,6.7055,6.4513,6.1032,5.827,5.513,0.0,0.0,0.0,0.0,0.0,0.0,0.0,0.0,0.0,0.0,0.0,0.0,0.0,0.0,0.0,0.0,0.0,0.0,0.0,0.0,0.0,0.0,0.0,0.0,0.0,0.0,0.0,0.0,0.0,0.0,0.0,0.0,4.1283,4.1597,0.0,0.0,0.0,0.0,0.0,0.0,0.0,0.0,0.0,0.0,0.0,0.0,0.0,5.4037,5.7009,5.7944,5.9582,6.198,6.2814,6.3612,6.4445,6.5953,6.6315,6.5707,6.483,0.0,5.527,5.2725,0.0,0.0,0.0,0.0,0.0,0.0,0.0,0.0,0.0,0.0,0.0,0.0,0.0,0.0,0.0,0.0,0.0,0.0,0.0,0.0,0.0,0.0,5.964,6.1159,6.2032,6.2135,6.0676,5.5827,5.1086,4.8852,4.7597,4.6462,0.0,0.0,0.0,0.0,0.0,0.0,6.4742,6.865,7.1151,7.1376,7.1412,7.105,7.0195,6.799,6.6127,6.4895,6.1265,5.7962,5.5329,5.1433,0.0,0.0,0.0,0.0,0.0,0.0,0.0,0.0,0.0,0.0,0.0,0.0,0.0,0.0,0.0,0.0,0.0,0.0,0.0,0.0,0.0,0.0,0.0,0.0,0.0,0.0,0.0,0.0,0.0,4.2306,4.4911,4.5367,4.5314,4.496,0.0,0.0,0.0,0.0,0.0,0.0,0.0,0.0,0.0,5.6573,5.8637,6.081,6.3092,6.3918,6.5301,6.7235,6.7598,6.817,6.8959,6.9647,6.9784,6.9422,6.9422,6.7461,6.3897,5.9214,5.6594,5.5359,0.0,0.0,0.0,0.0,5.3422,5.4608,5.4978,5.4869,5.4608,5.5014,0.0,0.0,0.0,0.0,0.0,0.0,0.0,5.6479,5.8768,6.1384,6.3846,6.5403,6.5632,6.5533,6.5635,6.2694,5.8761,5.4613,5.2775,5.1553,5.0372,5.1369,0.0,0.0,0.0,6.3309,6.6533,6.9603,7.1857,7.2754,7.2428,7.1849,7.106,6.9655,6.809,6.6388,6.4215,6.1679,5.8818,5.5311,5.1767,0.0,0.0,0.0,0.0,0.0,0.0,0.0,0.0,0.0,0.0,0.0,0.0,0.0,0.0,0.0,0.0,0.0,0.0,0.0,0.0,0.0,0.0,0.0,0.0,0.0,0.0,0.0,0.0,4.6292,4.8675,4.9669,4.9683,4.9401,0.0,0.0,0.0,0.0,0.0,0.0,5.6029,5.8927,6.1383,6.3194,6.5192,6.7076,6.8915,6.9531,7.0517,7.1901,7.2078,7.2444,7.2971,7.3103,7.3087,7.287,7.2955,7.2509,7.1367,6.5424,6.2469,6.1564,5.9549,5.9196,5.9739,5.9128,5.9876,6.1111,6.0935,6.0863,6.0826,6.0608,5.9037,5.72,5.7018,0.0,0.0,0.0,0.0,6.1894,6.3463,6.5677,6.7818,6.9187,6.896,6.8617,6.9234,6.8165,6.554,6.0234,5.8046,5.6823,5.5969,5.65,0.0,5.8825,6.2302,6.5671,6.8271,7.0835,7.2774,7.3739,7.3305,7.2601,7.1757,7.0789,6.9415,6.7419,6.6335,6.4412,6.1405,5.8631,5.5473,5.1927,0.0,0.0,0.0,0.0,0.0,0.0,0.0,0.0,0.0,0.0,0.0,0.0,0.0,0.0,0.0,0.0,0.0,0.0,0.0,0.0,0.0,0.0,0.0,0.0,0.0,0.0,0.0,0.0,0.0,5.4474,5.4586,0.0,0.0,0.0,0.0,5.6615,5.8956,6.1021,6.2628,6.5048,6.7474,6.9844,7.0698,7.2283,7.4665,7.4729,7.518,7.5994,7.6567,7.6878,7.6942,7.7505,7.7353,7.6642,7.6827,7.6445,7.5371,7.0715,6.8315,6.7503,6.6598,6.6279,6.6323,6.6286,6.6793,6.7417,6.6656,6.6402,6.6257,6.5504,6.4127,6.2642,6.1903,6.1731,0.0,0.0,6.4303,6.6026,6.7528,6.9715,7.1682,7.2339,7.2444,7.24,7.2472,7.1784,6.9792,6.4989,6.3366,6.2526,6.1702,0.0,6.3069,6.3896,6.6801,6.9228,7.017,7.2971,7.4607,7.3807,7.3683,7.3247,7.2263,7.0736,6.9485,6.8654,6.7119,6.5154,6.2702,6.1167,5.8139,5.3394,5.1005,0.0,0.0,0.0,0.0,0.0,0.0,0.0,0.0,0.0,0.0,0.0,0.0,0.0,0.0,0.0,0.0,0.0,0.0,0.0,0.0,0.0,0.0,0.0,0.0,0.0,0.0,0.0,0.0,5.858,5.9641,0.0,5.9529,6.0298,6.1494,6.309,6.529,6.7284,6.8833,7.0714,7.2388,7.3774,7.4566,7.59,7.7774,7.781,7.8215,7.9008,7.8693,7.8549,7.854,7.8261,7.7937,7.7694,7.7766,7.7613,7.7235,7.5723,7.4096,7.2493,7.166,7.1052,7.0581,7.0581,7.0436,7.0219,6.9937,6.9828,6.972,6.8931,6.8286,6.767,6.6866,6.704,6.7548,6.781,6.9073,7.0422,7.0957,7.2101,7.3209,7.3414,7.347,7.347,7.347,7.3253,7.2537,7.0835,6.9075,6.7598,6.6757,6.6873,6.7344,6.8141,6.9555,7.1039,7.2348,7.383,7.4838,7.5038,7.413,7.3376,7.302,7.1007,6.9477,6.8738,6.7679,6.5981,6.3565,6.2494,6.0183,5.6446,5.3561,5.0304,0.0,0.0,0.0,0.0,0.0,0.0,0.0,0.0,0.0,0.0,0.0,0.0,0.0,0.0,0.0,0.0,0.0,0.0,0.0,0.0,0.0,0.0,0.0,0.0,0.0,5.8565,6.1688,6.2965,6.4563,6.5402,6.5069,6.6112,6.7485,6.9069,7.1051,7.2754,7.4056,7.5637,7.6877,7.7685,7.8225,7.9123,8.0453,8.0489,8.0741,8.128,8.0675,8.0396,8.035,7.9746,7.9494,7.9503,7.9569,7.9597,7.9615,7.9818,7.9026,7.7553,7.6099,7.518,7.471,7.471,7.4384,7.3885,7.3631,7.3342,7.3052,7.2553,7.238,7.2307,7.1764,7.1981,7.238,7.238,7.3132,7.3921,7.3921,7.4311,7.471,7.471,7.471,7.471,7.471,7.471,7.471,7.471,7.3016,7.143,7.0887,7.0731,7.0917,7.1415,7.2014,7.2792,7.3854,7.4572,7.5187,7.5638,7.4256,7.326,7.32,7.1013,6.9299,6.8554,6.7522,6.5971,6.3819,6.3023,6.1142,5.7997,5.4317,5.1029,4.821,0.0,0.0,0.0,0.0,0.0,0.0,0.0,0.0,0.0,0.0,0.0,0.0,0.0,0.0,0.0,0.0,0.0,0.0,0.0,0.0,0.0,0.0,0.0,5.9937,6.2607,6.5446,6.7659,6.9296,7.0522,7.1118,7.1848,7.2953,7.4578,7.6158,7.7389,7.8206,7.9725,8.0875,8.1585,8.1621,8.2016,8.2807,8.2807,8.2843,8.2843,8.2639,8.2516,8.2506,8.2309,8.2183,8.2193,8.2391,8.248,8.249,8.2694,8.278,8.2531,7.9828,7.8793,7.8757,7.8721,7.8684,7.8576,7.7788,7.7036,7.6384,7.6356,7.6356,7.6356,7.6356,7.6356,7.6356,7.6356,7.6356,7.6356,7.6356,7.6356,7.6356,7.6356,7.6356,7.6356,7.6356,7.6356,7.6384,7.6384,7.51,7.4033,7.3969,7.3838,7.3766,7.3766,7.4246,0.0,7.463,7.5304,7.571,7.5496,7.4036,7.2991,7.2816,7.0613,6.8936,6.8167,6.6624,6.5054,6.3456,6.2807,6.102,5.7891,5.3392,4.9904,4.7522,0.0,0.0,0.0,0.0,0.0,0.0,0.0,0.0,0.0,0.0,0.0,0.0,0.0,0.0,0.0,0.0,0.0,0.0,0.0,0.0,0.0,6.2342,6.5502,6.5494,6.8123,7.0693,7.2443,7.353,7.4448,7.5206,7.5872,7.6903,7.8515,7.9441,8.0268,8.1019,8.1494,8.1816,8.203,8.203,8.2423,8.322,8.3256,8.3532,8.4094,8.3472,8.313,8.313,8.2499,8.2183,8.2183,8.2243,8.2263,8.2283,8.249,8.2568,8.2453,8.131,8.0521,7.9936,7.936,7.8783,7.827,7.8195,7.8022,7.7868,7.8007,7.805,7.805,7.805,7.805,7.805,7.805,7.805,7.805,7.805,7.805,7.805,7.805,7.805,7.805,7.805,7.7946,7.7806,7.7806,7.7367,7.6621,7.5613,7.5304,7.522,7.522,7.5243,7.5236,7.5236,7.5326,7.5325,7.5307,7.3842,7.286,7.2807,7.0122,6.8337,6.8096,6.6125,6.4475,6.342,6.2717,6.1117,5.8488,5.6188,5.4141,0.0,0.0,0.0,0.0,0.0,0.0,0.0,0.0,0.0,0.0,0.0,0.0,0.0,0.0,0.0,0.0,0.0,0.0,0.0,0.0,0.0,0.0,6.7249,7.0767,7.224,7.3139,7.421,7.5711,7.6904,7.7881,7.8578,7.9262,8.0018,8.0983,8.1672,8.2265,8.2683,8.304,8.3351,8.3718,8.3718,8.4075,8.486,8.487,8.5109,8.5563,8.5074,8.487,8.4824,8.4075,8.3718,8.3682,8.3361,8.3218,8.3218,8.3339,8.3389,8.3312,0.0,0.0,0.0,0.0,8.0453,8.0041,7.9836,7.9765,7.9756,7.954,7.9521,7.9592,7.9592,7.9645,7.9698,7.961,7.9339,7.9068,7.8989,7.8709,7.8457,7.8457,7.8457,7.8457,7.8457,7.8368,7.8252,7.8252,7.809,0.0,7.6885,7.6706,7.6635,7.6635,7.6481,7.622,7.5898,7.5762,7.5572,7.5251,7.3761,7.2807,7.2807,6.9916,0.0,0.0,0.0,6.4083,6.3,6.1886,0.0,0.0,0.0,5.7193,5.6579,5.5912,0.0,0.0,4.8926,4.9193,0.0,0.0,0.0,0.0,0.0,0.0,0.0,0.0,0.0,0.0,0.0,0.0,0.0,0.0,0.0,0.0,7.1867,7.5764,7.8789,7.7612,7.6904,7.8164,7.955,8.0665,8.1311,8.1949,8.2322,8.2429,8.3167,8.3585,8.3585,8.4349,0.0,0.0,0.0,8.6178,8.6851,8.6887,8.6862,8.6894,8.6894,8.6873,8.6851,8.6174,8.5842,8.5679,8.4976,8.463,8.4569,8.4589,8.46,8.4488,8.333,8.2795,8.2723,8.2723,8.2723,8.2651,8.1997,0.0,0.0,8.0993,8.0826,8.0902,8.0902,8.0948,8.0985,8.0812,8.0253,7.9675,7.9493,7.8908,7.8368,7.8368,7.8368,7.8368,7.8368,7.835,7.8341,7.8341,7.8176,7.8038,7.8038,7.7894,7.7787,7.7787,7.7612,7.7223,7.6483,7.6411,7.6072,7.5259,7.3797,0.0,7.2736,7.0052,6.8312,6.8205,6.6037,6.4047,6.25,6.1058,6.0658,6.1486,6.0079,5.9751,6.0551,5.9953,5.9702,5.9616,5.6005,5.4808,0.0,0.0,0.0,0.0,0.0,0.0,0.0,0.0,0.0,0.0,0.0,0.0,0.0,0.0,0.0,7.2218,7.5665,7.8493,8.0422,8.0844,8.1032,8.1314,8.1636,8.2116,8.2871,8.2949,8.3202,8.3853,8.4457,8.4776,8.4776,8.5464,8.5949,8.6126,8.6126,8.6295,8.6642,8.6642,8.6738,8.6894,8.6894,0.0,8.6642,8.65,8.6012,8.5248,8.5241,8.4899,8.4361,8.4527,8.46,8.4503,8.363,8.2874,8.2303,8.2303,8.2303,8.2322,8.2346,8.2333,8.2362,8.2347,8.1992,8.1526,8.1526,8.1086,0.0,8.0564,8.0447,8.0329,8.0292,8.0139,8.0031,8.0031,8.0031,8.0031,8.0031,7.9901,7.9788,7.9788,7.9618,7.9484,7.9484,7.8412,7.7565,7.7565,7.7537,7.7223,7.6483,7.6411,7.6026,7.5049,7.4105,7.3214,7.2465,7.0806,6.9534,6.8858,6.6785,6.484,6.3242,6.2885,6.3092,6.3905,6.3611,6.3861,6.4654,6.4542,6.4513,6.4557,6.1379,6.0125,0.0,0.0,0.0,0.0,0.0,0.0,0.0,0.0,0.0,0.0,0.0,6.0583,6.3774,0.0,7.1724,7.5271,7.8136,8.0444,8.2015,8.2897,8.3244,8.2871,8.28,8.3264,8.4467,8.4393,8.4577,8.5369,8.5581,8.5652,8.5652,8.5995,8.6385,8.6785,8.6809,8.7053,8.761,8.761,8.7641,8.7761,8.7761,8.7696,8.7575,8.7185,8.6729,8.623,8.5938,8.5678,8.5461,8.5647,8.5741,8.5706,8.5324,8.4431,8.3386,8.3386,8.3386,8.3371,8.3053,8.295,8.2898,8.2603,8.2307,8.2107,8.2107,8.1636,8.1091,8.0987,8.0672,8.033,8.0226,8.0197,8.0197,8.0197,8.0197,8.0197,8.0197,8.0121,8.0044,8.0044,7.9957,7.989,7.989,7.916,7.8597,7.8703,7.8626,7.8283,7.75,7.6942,7.6304,7.5402,7.4238,7.3341,7.2894,7.1224,6.9696,6.8514,6.716,6.6026,6.5241,6.4812,6.4991,6.5804,6.5804,6.6196,6.6946,6.7374,6.7585,6.7615,6.6936,6.6115,0.0,0.0,0.0,0.0,0.0,0.0,0.0,5.5147,5.7843,5.9529,6.2703,6.5855,6.8101,7.1368,7.4689,7.7723,7.9935,8.1852,8.3346,8.412,8.4278,8.357,8.3672,8.4298,8.5607,8.5604,8.5752,8.6402,8.6349,8.6312,8.6312,8.6464,8.6817,8.7476,8.7511,8.7817,8.851,8.851,8.8532,8.8588,8.8588,8.8555,8.851,8.7862,8.7439,8.7217,8.6473,8.6306,8.6624,8.6781,8.6851,8.6894,8.6894,8.6134,8.5063,8.5063,8.4956,8.4742,8.4075,8.3764,8.3549,8.2897,8.2686,8.2681,8.2681,8.2261,8.1748,8.1584,8.1106,8.0567,8.0402,8.0246,8.0139,8.0139,7.9997,7.989,7.989,7.989,7.989,7.989,7.989,7.988,7.9841,7.973,7.9671,7.9802,7.9645,7.9232,7.8425,7.7488,7.6582,7.5739,7.4411,7.3517,7.3341,7.1621,6.9955,6.8596,6.8108,6.7788,6.7618,6.7036,6.7088,6.7882,6.7917,6.8274,6.9024,6.9649,6.997,7.0006,7.1299,7.0962,4.7556,4.9121,5.1162,5.2726,5.4917,5.7281,0.0,6.1837,6.4229,6.6486,6.9013,7.1289,7.295,7.5296,7.7794,8.0292,8.147,8.2577,8.3995,8.4284,8.4211,8.3869,8.4645,8.5248,8.5426,8.5677,8.5883,8.5953,8.6398,8.6648,8.6648,8.7339,8.7737,8.7842,8.7842,8.797,8.8248,8.8248,8.8362,8.8588,8.8588,8.8464,8.8248,8.8142,8.7628,8.6741,8.6172,8.6199,8.6613,8.6635,8.6738,8.6894,8.6894,8.6787,8.6633,8.6633,8.6216,8.5645,8.5573,8.5074,8.4457,8.435,8.3871,8.3294,8.3294,8.2779,8.2136,8.2116,8.2035,8.1963,8.1943,8.147,8.097,8.097,8.0425,7.989,7.989,7.989,7.989,7.989,7.989,7.9831,7.9645,7.9621,7.9621,7.9641,7.9427,7.8968,7.8244,7.74,7.6523,7.5525,7.4678,7.3902,7.3178,7.2298,7.1508,7.077,7.086,7.0575,6.9872,6.9929,7.0336,7.1165,7.1165,7.1558,7.2263,7.237,7.2405,7.2405,7.2584,7.2269,5.1893,5.3985,5.6269,5.831,6.0629,6.2992,6.5332,6.7374,6.9257,7.1148,7.3083,7.4761,7.5822,7.7129,7.8798,8.1199,8.1749,8.2358,8.3851,8.4053,8.4021,8.3925,8.4544,8.5239,8.5829,8.5899,8.6263,8.718,8.7361,8.7398,8.7398,8.7726,8.7901,8.7901,8.7901,8.7948,8.8006,8.8041,8.8064,8.8167,8.8167,8.811,8.8041,8.8041,8.7819,8.7375,8.7288,8.7363,8.7554,8.7699,8.7821,8.7884,8.7884,8.7884,8.78,8.7144,8.6715,8.643,8.643,8.6216,8.5848,8.5431,8.5074,8.4727,8.4253,8.3539,8.2907,8.2907,8.254,8.2183,8.2183,8.1969,8.1755,8.1755,8.147,8.1255,8.1255,8.1255,8.1255,8.1255,8.1255,8.1044,8.0362,8.0151,7.9888,7.9271,7.9099,7.8897,7.8589,7.7762,7.669,7.5378,7.4569,7.3786,7.2977,7.274,7.235,7.1657,7.1761,7.1773,7.1535,7.1615,7.189,7.2343,7.2343,7.2486,7.2807,7.3253,7.3503,7.3503,7.3976,7.4047,5.6198,5.8545,6.0971,6.3591,6.5839,6.8052,7.0399,7.2013,7.336,7.4607,7.581,7.6844,7.7535,7.8006,7.908,8.1439,8.1717,8.2124,8.3606,8.3819,8.3786,8.3722,8.4064,8.4655,8.5607,8.5957,8.6701,8.8004,8.7995,8.7901,8.7901,8.8077,8.8217,8.8217,8.8428,8.8533,8.8533,8.8323,8.8217,8.8217,8.8007,8.7901,8.7901,8.7901,8.7901,8.7913,8.8041,8.8144,8.8213,8.8408,8.8521,8.8588,8.8588,8.8588,8.8516,8.7687,8.728,8.7166,8.7229,8.7108,8.6822,8.6287,8.5966,8.568,8.5099,8.436,8.3718,8.3718,8.3325,8.2861,8.2861,8.2683,8.254,8.254,8.2362,8.2183,8.2183,8.2183,8.2163,8.2139,8.2129,8.1789,8.0734,8.0409,7.9988,7.897,7.8834,7.8834,7.8834,7.7799,7.6563,7.5249,7.4431,7.3764,7.3167,7.3258,7.3098,7.2589,7.2698,7.2831,7.3005,7.306,7.3188,7.336,7.3369,7.3396,7.344,7.4038,7.4314,7.435,7.5144,7.5546,6.0272,6.262,6.5181,6.8321,7.0291,7.2129,7.4502,7.5653,7.6427,7.7003,7.7133,7.736,7.798,7.8082,7.8897,8.1244,8.1588,8.2071,8.3416,8.3595,8.3518,8.3253,8.3255,8.356,8.4378,8.5818,8.7012,8.7843,8.7913,8.7901,8.7901,8.8592,8.8966,8.8966,8.9704,9.0125,9.0125,8.9353,8.8966,8.8966,8.8253,8.7901,8.7901,8.7901,8.7901,8.7901,8.7913,8.8006,8.8202,8.8213,8.8362,8.8588,8.8588,8.8588,8.8588,8.8564,8.8213,8.7805,8.7996,8.7536,8.6894,8.6858,8.6394,8.5787,8.5787,8.5206,8.4564,8.4564,8.4564,8.4528,8.4528,8.3967,8.3371,8.3371,8.2754,8.2183,8.2183,8.2183,8.2149,8.1962,8.1896,8.1525,8.0349,8.0125,7.976,7.8767,7.8595,7.8595,7.8595,7.7285,7.6021,7.5178,7.4431,7.4,7.3975,7.3975,7.395,7.395,7.412,7.4245,7.4245,7.4427,7.4626,7.4841,7.4841,7.4934,7.5144,7.5144,7.5144,7.518,7.5974,7.6376,6.3591,6.6331,6.915,7.1746,7.3502,7.5049,7.6909,7.7017,7.6937,7.765,7.7366,7.7063,7.7278,7.7645,7.8312,7.9593,8.0552,8.1482,8.2473,8.3049,8.3286,8.3208,8.3197,8.3724,8.4999,8.5596,8.6228,8.7035,8.7585,8.8112,8.8592,8.8707,8.9068,8.9762,8.9886,9.0014,9.0195,8.9949,8.9809,8.9774,8.9013,8.8381,8.7901,8.7901,8.7901,8.7901,8.7901,8.7948,8.7983,8.7983,8.8029,8.8145,8.8145,8.8145,8.8168,8.8271,8.8208,8.812,8.8497,8.845,8.8152,8.7814,8.7179,8.643,8.5966,8.5242,8.46,8.46,8.46,8.4569,8.4424,8.4215,8.3934,8.3789,8.3534,8.3321,8.3321,8.3321,8.33,8.3252,8.3241,8.2898,8.1814,8.1208,8.0369,7.8837,7.8585,7.8585,7.8585,7.7696,7.6914,7.6633,7.5484,7.4722,7.4722,7.4291,7.401,7.401,7.4079,7.4151,7.4296,7.4364,7.4489,7.4697,7.4697,7.4801,7.4996,7.5521,7.5871,7.601,7.6795,7.7116,6.6563,6.9373,7.2113,7.4452,7.5887,7.7008,7.8057,7.7559,7.6946,7.7124,7.6089,7.5302,7.578,7.5934,7.6539,7.8123,7.9582,8.0891,8.1955,8.2963,8.3619,8.3619,8.3864,8.4402,8.5385,8.5771,8.6263,8.7082,8.7773,8.8345,8.8836,8.9144,8.9595,9.0302,9.0423,9.055,9.0722,9.0442,9.0162,8.987,8.9162,8.8625,8.8146,8.7972,8.7901,8.7901,8.7901,8.7901,8.7901,8.7901,8.7901,8.7901,8.7901,8.7901,8.7925,8.8029,8.8087,8.8156,8.8645,8.8777,8.8728,8.8385,8.7817,8.7087,8.6303,8.5572,8.4946,8.4578,8.4486,8.4434,8.4225,8.4162,8.4131,8.3947,8.3915,8.3915,8.3915,8.3915,8.3883,8.3797,8.3786,8.3464,8.2462,8.1644,8.0651,7.9238,7.9041,7.8901,7.862,7.7897,7.7395,7.7395,7.6292,7.553,7.553,7.4817,7.4396,7.4396,7.415,7.4069,7.418,7.4436,7.4665,7.4894,7.5176,7.5424,7.5608,7.6131,7.6484,7.6682,7.7476,7.787,6.9248,7.1795,7.4105,7.6379,7.7522,7.8053,7.8017,7.7345,7.6401,7.5444,7.3396,7.2176,7.3477,7.3167,7.3729,7.6728,7.8679,8.034,8.1885,8.3419,8.4415,8.4439,8.5047,8.5503,0.0,8.6252,8.7071,8.7901,8.8366,8.8642,8.87,8.9816,9.0515,9.0562,9.1293,9.1711,9.1689,9.0958,9.0167,8.9342,8.8916,8.8688,8.863,8.8182,8.7995,8.7995,8.8007,8.8007,8.8007,8.8007,8.7972,8.7972,8.7972,8.7936,8.7901,8.7901,8.7901,8.7971,8.8467,8.859,8.8566,8.8613,8.8238,8.7644,8.6887,8.6265,8.5618,8.4615,8.4349,8.4261,8.3957,8.3893,8.3893,8.3883,8.3872,8.3872,8.3872,8.3872,8.3808,8.3616,8.3562,8.3261,8.228,8.1488,8.0705,7.9989,7.9849,7.9568,7.869,7.7942,7.7465,7.7465,7.6819,7.6372,7.6372,7.5635,7.5143,7.5143,7.4501,7.4115,7.4115,7.4792,7.5233,7.5456,7.6186,7.6683,7.6891,7.6936,7.7043,7.7256,7.8083,7.8555,7.1972,7.4211,7.6309,7.7496,7.7837,7.7727,7.7127,7.535,7.3463,7.2069,7.0398,6.9255,6.9621,7.0946,7.2596,7.4562,7.7626,8.034,8.1885,8.3419,8.4534,8.4947,0.0,8.5659,8.6589,8.6891,8.7542,8.882,8.8744,8.9012,8.9943,9.0133,9.0568,9.1363,9.138,9.1519,9.1689,9.1515,9.098,9.0167,9.0068,8.971,8.914,8.9247,8.931,8.9322,8.9515,8.961,8.961,8.961,8.9247,8.8732,8.8732,8.8393,8.7901,8.7901,8.7901,8.7995,8.8662,8.8649,8.8328,8.8521,8.808,8.7451,8.7274,8.6835,8.6194,8.5188,8.5004,8.4904,8.3931,8.3682,8.3638,8.3429,8.3385,8.3385,8.3385,8.3385,8.3363,8.3308,8.3286,8.3064,8.2247,8.192,8.1534,8.074,8.0635,8.0119,7.876,7.8409,7.8304,7.8304,7.7581,7.7124,7.7124,7.6432,7.5976,7.5976,7.58,7.5695,7.5695,7.5881,7.6006,7.6057,7.6268,7.6474,7.6673,7.7283,7.7686,7.7904,7.8628,7.9411,7.4226,7.5858,7.7233,7.7667,7.7445,7.6765,7.5287,7.2763,7.0349,6.8814,6.6707,6.547,6.6479,6.8032,7.0113,7.2992,7.6432,7.948,8.1627,8.3567,8.5087,8.5915,8.631,0.0,8.794,8.8067,8.8644,9.0013,8.9873,9.005,9.0768,9.1191,9.1702,9.2287,9.2178,9.2165,9.2322,9.1975,9.1594,9.1143,9.0578,9.0108,8.9643,8.9593,8.9651,8.9808,8.9954,9.0087,9.0195,9.0195,8.9739,8.9001,8.9001,8.8557,8.7901,8.7901,8.8112,8.8451,8.8873,8.8815,8.8568,8.8742,8.8328,8.7701,8.7336,8.7115,8.6726,8.5717,8.529,8.4923,8.4164,8.3959,8.3926,8.3757,8.397,8.4121,8.3794,8.3724,8.3619,8.3268,8.3197,8.3057,8.2647,8.2587,8.2331,8.1523,8.1331,8.0705,7.9163,7.9048,7.9006,7.862,7.8188,7.7942,7.7942,7.723,7.6784,7.6784,7.6468,7.6302,7.6302,7.6608,7.6784,7.6784,7.7135,7.7372,7.7484,7.7917,7.824,7.8463,7.922,7.9934,7.6081,7.6984,7.7535,7.743,7.6703,7.5344,7.2922,6.9867,6.7084,6.5347,6.2783,6.1476,6.3566,6.4917,6.7208,7.1763,7.5244,7.8403,8.1418,8.3854,8.5775,8.7058,8.7844,8.8596,8.9277,8.9438,9.001,9.1213,9.1512,9.1546,9.1477,9.2498,9.3089,9.3089,9.3089,9.3089,9.3089,9.2481,9.2102,9.1998,9.0888,9.0313,9.0174,8.977,8.9707,9.0012,9.0086,9.0245,9.0463,9.0499,8.9985,8.9142,8.9142,8.8627,8.7901,8.7901,8.8288,8.8861,8.8966,8.8931,8.8861,8.8966,8.8616,8.8015,8.7323,8.7293,8.7297,8.6285,8.5536,8.495,8.4634,8.4566,8.4566,8.4566,8.5023,8.5315,8.4672,8.4461,8.4145,8.3373,8.3197,8.3197,8.3197,8.3175,8.2954,8.2298,8.1994,8.1234,7.9686,7.9624,7.9402,7.8606,7.8501,7.8501,7.8501,7.7884,7.7488,7.7488,7.6898,7.6567,7.6567,7.7219,7.757,7.757,7.8223,7.8585,7.8585,7.8585,7.8759,7.9051,7.9745,8.0293,7.7159,7.7802,7.8223,7.7581,7.5896,7.3624,7.0649,6.7102,6.3583,6.0774,5.9229,5.873,5.9783,6.2696,6.6207,7.0253,7.4402,7.8433,8.2084,8.4426,8.6245,8.7518,8.8395,8.9057,8.9588,9.0184,9.0896,9.1789,9.3031,9.348,9.2811,9.2978,9.3089,9.3089,9.3089,9.3089,9.3089,9.2985,9.2606,9.1998,9.1762,9.134,9.0684,9.0867,9.0987,9.1051,9.1508,9.1721,9.1783,9.2005,9.1284,8.9985,8.9985,8.9119,8.7901,8.7901,8.7972,8.8182,8.8803,8.8592,8.8182,8.8803,8.851,8.7925,8.7784,8.7911,8.7861,8.6846,8.6621,8.6476,8.5559,8.5315,8.5315,8.5315,8.542,8.5455,8.535,8.4812,8.4145,8.3373,8.3197,8.3197,8.3197,8.3042,8.293,8.2779,8.2517,8.179,8.0281,7.9513,7.8838,7.8117,7.8012,7.8012,7.8012,7.7907,7.7792,7.7792,7.7915,7.7961,7.7961,7.8245,7.8374,7.8374,7.8514,7.8585,7.8585,7.8585,7.8957,7.9656,7.9796,8.0626,7.8012,7.8012,7.7696,7.6503,7.4176,7.1377,6.8261,6.4258,6.0563,5.8246,5.649,5.5999,5.8,6.052,6.3821,6.8386,7.2613,7.6549,8.0156,8.2905,8.5308,8.7336,8.8291,8.916,9.017,9.0985,9.1571,9.195,9.3033,9.3689,9.3723,9.4103,9.4309,9.4309,9.4309,9.4309,9.4309,9.3503,9.2916,9.2571,9.1744,9.1192,9.0812,9.0957,9.1135,9.1325,9.1701,9.1955,9.207,9.1958,9.1213,9.016,8.9739,8.8873,8.7901,8.7901,8.8147,8.8522,8.8873,8.8768,8.8522,8.8896,8.8487,8.7901,8.7901,8.7983,8.7935,8.7468,8.7128,8.6763,8.6251,8.6123,8.6123,8.6123,8.6123,8.6017,8.5596,8.4918,8.4145,8.3373,8.3109,8.3031,8.3031,8.2829,8.2681,8.2681,8.2453,8.1736,8.0254,7.9575,7.8928,7.8,7.7893,7.7893,7.7893,7.7893,7.7893,7.7893,7.8036,7.8154,7.8282,7.8388,7.8504,7.8585,7.8585,7.8585,7.8585,7.8585,7.9006,7.9814,8.0189,8.1026,7.8549,7.8012,7.7009,7.5495,7.2641,6.9411,6.6163,6.1835,5.8,5.6245,5.4321,5.3794,5.6526,5.8597,6.1445,6.6369,7.0479,7.4251,7.7727,8.109,8.4132,8.6617,8.8053,8.9295,9.0454,9.1433,9.1998,9.1998,9.2675,9.3365,9.3999,9.4585,9.493,9.493,9.493,9.493,9.493,9.3709,9.302,9.2847,9.164,9.0985,9.0799,9.0799,9.0931,9.12,9.1535,9.1803,9.1995,9.1688,9.1003,9.0125,8.9493,8.8697,8.7901,8.7901,8.8288,8.8768,8.8768,8.8768,8.8768,8.8768,8.8381,8.7901,8.7901,8.7901,8.7901,8.7901,8.7433,8.6965,8.6965,8.6965,8.6965,8.6965,8.6965,8.6754,8.5947,8.5175,8.438,8.3552,8.3126,8.2886,8.283,8.2579,8.2419,8.2419,8.2187,8.1505,8.0016,7.9626,7.905,7.7871,7.7741,7.7741,7.7741,7.7741,7.7741,7.7741,7.7785,7.7939,7.8122,7.8229,7.8367,7.8546,7.8564,7.8585,7.8585,7.8585,7.9076,8.0049,8.0635,8.1407,7.8409,7.8012,7.7009,7.5495,7.2264,6.8516,6.4679,6.0185,5.6174,5.3977,5.2769,5.2621,5.4306,5.708,6.0315,6.4105,6.8401,7.2502,7.611,8.0248,8.3559,8.519,8.7881,8.964,8.9778,9.1123,9.1998,9.1998,9.2675,9.3123,9.3192,9.3261,9.3296,9.3296,9.3296,9.3296,9.3296,9.3158,9.2744,9.2102,9.195,9.1502,9.0799,9.0799,9.0825,9.0878,9.1458,9.1701,9.1765,9.221,9.1529,9.0195,9.0125,8.9189,8.7901,8.7901,8.7936,8.8007,8.8007,8.8007,8.8007,8.8007,8.7972,8.7901,8.7901,8.7901,8.7901,8.7901,8.7831,8.7796,8.7796,8.7796,8.7796,8.7796,8.7796,8.7585,8.6754,8.5947,8.5106,8.4108,8.3363,8.283,8.2579,8.2303,8.2129,8.2129,8.1965,8.1259,7.973,7.95,7.8913,7.7441,7.7268,7.7268,7.7268,7.7268,7.7268,7.7268,7.7479,7.7657,7.7645,7.8058,7.8293,7.8314,7.8515,7.8585,7.8585,7.8585,7.9357,8.08,8.0881,8.1688,7.7004,7.6292,7.4983,7.3448,7.0157,6.6409,6.2994,5.8948,5.5437,5.3591,5.2214,5.1926,5.392,5.5711,5.8207,6.2186,6.586,6.9435,7.2953,7.7348,8.1086,8.3535,8.6489,8.8661,8.9605,9.1088,9.1998,9.1998,9.1813,9.1709,9.1709,9.2606,9.3089,9.3089,9.3089,9.3089,9.3089,9.264,9.2295,9.1985,9.1502,9.1123,9.0799,9.0799,9.0799,9.0839,9.1446,9.1689,9.1692,9.1742,9.1436,9.0839,9.0371,8.9528,8.8557,8.8557,8.8288,8.7901,8.7901,8.7901,8.7901,8.7901,8.7901,8.7901,8.7901,8.7901,8.7901,8.7901,8.7901,8.7901,8.7901,8.7901,8.7901,8.7901,8.7901,8.7691,8.686,8.6323,8.5589,8.4261,8.3508,8.2963,8.2338,8.2082,8.1918,8.1918,8.1835,8.1385,8.0316,7.9764,7.9074,7.804,7.7488,7.7201,7.7201,7.7201,7.7201,7.7201,7.7301,7.7424,7.7602,7.7896,7.8342,7.8936,7.9206,7.9533,7.9978,7.9978,8.054,8.1629,8.1629,8.219,7.5003,7.4326,7.2957,7.1412,6.8121,6.4399,6.1336,5.7782,5.4658,5.2888,5.1659,5.1407,5.3015,5.4306,5.632,5.9873,6.3431,6.6837,7.0031,7.4671,7.8833,8.1868,8.4902,8.742,8.9191,9.0743,9.164,9.164,9.1123,9.0799,9.0799,9.1847,9.2433,9.2433,9.2433,9.2433,9.2433,9.1882,9.1744,9.1985,9.1433,9.1261,9.1468,9.1261,9.1157,9.1184,9.155,9.1689,9.1692,9.1672,9.1506,9.1261,9.0722,9.0055,8.9317,8.9072,8.8662,8.8182,8.7972,8.7901,8.7901,8.7901,8.7901,8.7901,8.7901,8.7901,8.7901,8.7901,8.7901,8.7901,8.7901,8.7901,8.7901,8.7901,8.7901,8.7702,8.7083,8.6616,8.5927,8.4728,8.3844,8.3087,8.2451,8.2055,8.181,8.181,8.181,8.15,8.0695,8.0143,7.9557,7.8798,7.804,7.7442,7.7235,7.7201,7.7201,7.7201,7.7408,7.7636,7.7838,7.8321,7.891,7.962,7.9969,8.0389,8.0905,8.0905,8.1313,8.2107,8.2107,8.2517,7.243,7.229,7.1332,6.9815,6.6514,6.281,5.9713,5.6588,5.3682,5.1407,5.0915,5.0922,5.0915,5.2804,5.4961,5.6933,6.1127,6.5068,6.7753,7.2763,7.7235,8.0281,8.3362,8.6122,8.8398,8.995,9.0799,9.0799,9.0799,9.0799,9.0799,9.0799,9.0799,9.0799,9.0799,9.0799,9.0799,9.0799,9.1226,9.1998,9.1985,9.2364,9.3054,9.233,9.1998,9.199,9.1793,9.1689,9.1727,9.2267,9.2033,9.1296,9.1296,9.0839,9.009,8.9282,8.9001,8.8861,8.8147,8.7901,8.7901,8.7901,8.7901,8.7901,8.7901,8.7901,8.7901,8.7901,8.7901,8.7901,8.7901,8.7901,8.7901,8.7901,8.7901,8.7843,8.7537,8.6848,8.6148,8.5681,8.4347,8.3201,8.295,8.2293,8.181,8.181,8.181,8.15,8.0695,8.058,8.0316,7.9557,7.8833,7.8074,7.727,7.7201,7.7201,7.7201,7.7936,7.8396,7.8396,7.9551,8.0179,8.0179,8.0642,8.087,8.0905,8.0905,8.1313,8.2107,8.2107,8.2517,6.8418,6.8287,6.7489,6.6461,6.4074,6.1336,5.8773,5.6167,5.364,5.1371,5.088,5.088,5.088,5.2355,5.4382,5.6993,6.0307,6.3699,6.7063,7.2009,7.6408,7.9488,8.4397,8.8191,8.995,9.0536,9.0799,9.0799,9.0799,9.0799,9.0799,9.0799,9.0799,9.0799,9.0799,9.0799,9.0799,9.0799,9.1192,9.1998,9.1998,9.2399,9.3054,9.2343,9.1998,9.199,9.1793,9.1689,9.1727,9.2267,9.2349,9.2138,9.2138,9.1647,9.0897,9.0664,8.9891,8.8966,8.8732,8.8323,8.7901,8.7901,8.7901,8.7901,8.7901,8.7901,8.7901,8.7901,8.7901,8.7901,8.7901,8.7773,8.7631,8.7631,8.7501,8.7345,8.7249,8.6896,8.6379,8.5747,8.5068,8.4379,8.3742,8.3454,8.3143,8.2626,8.2557,8.2293,8.1523,8.0936,8.0523,8.0281,7.9592,7.8833,7.8074,7.8005,7.8005,7.8005,7.8729,7.9143,7.9143,7.9817,8.0469,8.1002,8.1469,8.198,8.246,8.246,8.2601,8.2857,8.2857,8.2998,6.4101,6.4495,6.3977,6.3161,6.1468,5.9369,5.701,5.5121,5.3232,5.0915,5.0676,5.0866,5.0798,5.2053,5.4006,5.6849,5.9789,6.3106,6.7044,7.157,7.6143,8.0661,8.557,8.9053,9.026,9.0627,9.076,9.0654,9.0641,9.0641,9.0641,9.0641,9.0694,9.0799,9.0799,9.0799,9.0799,9.0799,9.1192,9.1998,9.2261,9.264,9.3089,9.2606,9.2261,9.1977,9.1689,9.1621,0.0,9.2155,9.2391,9.2477,9.2477,9.2196,9.1717,9.1401,9.0699,8.9774,8.9212,8.8697,8.8288,8.7972,8.7901,8.7901,8.7901,8.7901,8.7901,8.7901,8.7831,8.7761,8.7761,8.756,8.7357,8.7357,8.7225,8.708,8.6948,8.6814,8.6528,8.598,8.5509,8.5052,8.4523,8.4213,8.3833,8.3385,8.3316,8.304,8.2316,8.1764,8.135,8.1074,8.0385,7.9729,7.9281,7.8971,7.8833,7.8833,7.9523,7.9936,7.9936,8.0661,8.1315,8.1814,8.2286,8.2752,8.3197,8.3197,8.3197,8.3197,8.3197,8.3197,0.0,6.0879,6.0809,6.0107,5.8773,5.7045,5.4798,0.0,0.0,5.0171,5.0375,5.0882,5.0641,5.1948,5.3905,5.6606,5.9683,6.3257,6.7511,7.1691,7.674,8.3385,8.6811,8.8915,8.9709,9.0398,9.0694,9.0435,9.0408,9.0408,9.0408,9.0408,9.0508,9.0799,9.0799,9.0799,9.0799,9.0799,9.1192,9.1998,9.2675,9.3054,9.3089,9.3054,9.264,9.1977,9.1494,9.1467,9.1701,9.198,9.2242,9.2477,9.2477,9.2477,9.2419,9.1647,9.1284,9.0991,8.9539,8.8966,8.8744,8.8053,8.7855,8.7855,8.7855,8.7878,8.7901,8.7878,8.7702,8.7513,8.7489,8.7285,8.708,8.708,8.7068,8.6948,8.6728,8.6679,8.6605,8.6344,8.5742,8.5294,8.5294,8.4661,8.4144,8.4109,8.4075,8.3833,8.3075,8.2971,8.273,8.2052,8.1247,8.0752,8.0752,8.004,7.9592,7.9592,8.0281,8.0695,8.0695,8.1841,8.2499,8.2499,8.2963,8.3197,8.3197,8.3197,8.3197,8.3197,8.3197,8.3197,5.5325,0.0,5.7825,5.8246,5.7185,5.5738,0.0,0.0,0.0,0.0,0.0,5.134,5.0607,5.2661,5.5104,5.6912,6.0626,6.447,6.785,7.4481,8.0661,8.5213,8.7432,8.9122,9.0433,9.0709,9.0694,9.0435,9.0408,9.0408,9.0408,9.0408,9.0508,9.0799,9.0799,9.0799,9.0799,9.0799,9.1192,9.1998,9.2157,9.2537,9.3089,9.2502,9.2157,9.1977,9.1494,9.1467,9.1701,9.198,9.2242,9.2477,9.2477,9.2477,9.2477,9.2279,9.1349,9.0105,8.9755,8.87,8.7507,8.7332,8.7297,8.7297,8.7297,8.7584,8.7866,8.7655,8.756,8.7465,8.7261,8.6985,8.6789,8.6789,8.663,8.6456,8.6394,8.6382,8.6369,8.6294,8.6156,8.6053,8.6053,8.5868,8.557,8.5018,8.4915,8.4639,8.3833,8.373,8.3695,8.3488,8.2799,8.235,8.235,8.1109,8.0339,8.0339,8.1074,8.1523,8.1523,8.2164,8.2499,8.2499,8.2963,8.3197,8.3197,8.3197,8.3197,8.3197,8.3197,8.3197,5.3373,5.4665,5.5753,5.6553,5.6124,5.5267,5.4422,0.0,0.0,0.0,0.0,5.2746,5.2919,5.4846,5.7139,5.9344,6.2842,6.6952,7.177,7.7762,8.2695,8.5466,8.7467,8.9053,9.0192,9.0592,9.0641,9.0247,9.022,9.022,9.022,9.022,9.0408,9.0799,9.0454,9.0467,9.0799,9.0799,9.1019,9.1468,9.1813,9.2019,9.2054,9.2019,9.1778,9.1446,9.1177,9.1317,9.1701,9.1841,9.213,9.2477,9.2477,9.2477,9.243,9.1968,9.1132,9.0192,8.9349,8.819,8.7104,8.7104,8.7104,8.7104,8.7104,8.7309,8.7513,8.7369,8.7214,8.7094,8.6936,8.6716,8.6518,8.6518,8.6394,8.6294,8.6294,8.6294,8.6294,8.6294,8.6294,8.6294,8.6294,8.6294,8.6144,8.5777,8.5708,8.5432,8.4661,8.4557,8.4419,8.404,8.3626,8.3281,8.2937,8.2143,8.1523,8.1178,8.1569,8.181,8.181,8.2234,8.2602,8.2817,8.3075,8.3197,8.3197,8.3197,8.3197,8.3197,8.3197,8.3197,5.2783,5.3724,5.4517,5.543,5.5563,5.5315,5.46,0.0,0.0,0.0,0.0,0.0,5.5977,5.7616,5.9702,6.2558,6.5955,7.0429,7.6822,8.073,8.3488,8.5156,8.726,8.8881,8.964,9.0311,9.0521,9.0017,8.9935,8.9908,8.9908,8.9963,9.0199,9.0548,8.9993,8.995,9.0467,9.0454,9.0523,9.0627,9.133,9.1364,9.0799,9.1502,9.1433,9.0799,9.0799,9.1126,9.1689,9.1689,9.2005,9.2477,9.2335,9.2253,9.2145,9.1046,9.0573,9.0184,8.8496,8.7482,8.6995,8.6995,8.6995,8.6995,8.6995,8.6995,8.6995,8.6995,8.6838,8.6691,8.6654,8.6469,8.6294,8.6294,8.6294,8.6294,8.6294,8.6294,8.6294,8.6294,8.6294,8.6294,8.6294,8.6294,8.6294,8.6294,8.6294,8.6075,8.5466,8.5363,8.5121,8.4419,8.4247,8.3868,8.3143,8.2971,8.2592,8.1845,8.181,8.1846,8.1882,8.228,8.2727,8.3186,8.3197,8.3197,8.3197,8.3197,8.3197,8.3197,8.3197,8.3268,5.2783,5.3724,5.4622,5.6069,5.5956,5.5596,5.5971,0.0,0.0,0.0,0.0,0.0,0.0,5.9918,6.2601,6.4998,7.0039,7.5167,7.9488,8.1695,8.3695,8.588,8.7605,8.8881,8.964,9.014,9.0341,9.0017,8.9744,8.9593,8.9593,8.984,8.9865,8.9548,8.9647,8.9467,8.895,8.895,8.926,8.9881,8.9985,9.0329,9.0799,9.095,9.0903,9.0799,9.0799,9.1126,9.1689,9.1689,9.2005,9.243,9.1507,9.1141,9.1034,9.0005,8.9073,8.8095,8.699,8.6523,8.6406,8.6406,8.6406,8.6406,8.6406,8.6406,8.6406,8.6406,8.6555,8.6654,8.6419,8.6319,8.6294,8.6294,8.6294,8.6294,8.6294,8.6294,8.6294,8.6294,8.6294,8.6294,8.6294,8.6294,8.6294,8.6294,8.6294,8.626,8.6156,8.6122,8.6087,8.5949,8.5397,8.4695,8.3902,8.3247,8.2592,8.1845,8.181,8.1965,8.2373,8.2465,8.2727,8.3186,8.3197,8.3197,8.3197,8.3197,8.3197,8.3197,8.3197,8.3548,5.2783,5.3724,5.4868,5.729,5.7641,5.7397,5.7455,0.0,0.0,0.0,0.0,0.0,0.0,6.3747,6.6817,7.0774,7.4764,7.827,8.0867,8.2914,8.4535,8.557,8.704,8.826,8.9019,8.9516,8.9855,8.9969,8.9703,8.949,8.949,8.9403,8.9359,8.931,8.876,8.8295,8.7937,8.757,8.795,8.9122,8.9502,8.9881,9.0226,9.0627,9.0799,9.0799,9.0799,9.1126,9.1676,9.1523,9.179,9.2172,9.1107,9.068,9.0516,8.9071,8.7894,8.6905,8.647,8.6294,8.6294,8.6294,8.6294,8.6294,8.6294,8.6294,8.6294,8.6294,8.6382,8.6456,8.6319,8.6294,8.6294,8.6294,8.6294,8.6432,8.6799,8.657,8.6432,8.6799,8.6557,8.6294,8.6294,8.6294,8.6294,8.6294,8.6294,8.6294,8.6294,8.6294,8.6294,8.6294,8.6018,8.5501,8.4695,8.3937,8.3006,8.1879,8.181,8.2,8.2476,8.2499,8.2727,8.3186,8.3197,8.3408,8.3864,8.3864,8.404,8.4437,8.4437,8.4648,5.2818,5.4145,5.5788,5.8554,0.0,5.9582,5.9687,0.0,0.0,0.0,0.0,0.0,6.5393,6.8083,7.1498,7.6143,7.866,8.0638,8.2362,8.4087,8.5259,8.5432,8.6542,8.755,8.817,8.8753,8.9236,8.9601,8.9504,8.9325,8.9155,8.894,8.8772,8.8669,8.7826,8.7316,8.7144,8.657,8.6984,8.8329,8.8881,8.9364,8.9709,9.0282,9.0627,9.0799,9.0799,9.1126,9.1663,9.1429,9.1634,9.1985,9.0647,8.988,8.9353,8.7961,8.6953,8.6294,8.6294,8.6294,8.6294,8.6294,8.6294,8.6294,8.6294,8.6294,8.6294,8.6294,8.6294,8.6294,8.6294,8.6294,8.6329,8.6523,8.6557,8.6764,8.7536,8.7087,8.673,8.7282,8.6799,8.6294,8.6294,8.6294,8.6294,8.6294,8.6294,8.6294,8.6294,8.6294,8.6294,8.6294,8.6294,8.6018,8.5259,8.4454,8.3523,8.2397,8.1983,8.2,8.2476,8.2673,8.3006,8.3467,8.3654,8.397,8.4391,8.4391,8.4602,8.4964,8.4964,8.5069,5.2959,5.5339,5.7965,5.9615,6.0563,0.0,6.3311,6.431,0.0,6.5419,0.0,0.0,0.0,7.2567,7.635,7.8833,8.0592,8.2397,8.4639,8.5087,8.5466,8.6156,8.67,8.7028,8.7096,8.7934,8.8484,8.8504,8.8908,8.8843,8.8119,8.8538,8.8166,8.6839,8.7186,8.7075,8.6385,8.6329,8.6695,8.7489,8.7523,8.8316,8.9709,8.9743,9.0144,9.0799,9.0799,9.1126,9.1663,9.1429,9.1634,9.189,8.989,8.8068,8.6586,8.647,8.6376,8.6294,8.6294,8.6294,8.6294,8.6294,8.6294,8.6294,8.6294,8.6294,8.6294,8.6294,8.6294,8.6294,8.6294,8.6294,8.6467,8.7144,8.7316,8.7523,8.8329,8.7881,8.7351,8.7385,8.6799,8.6294,8.6294,8.6294,8.6294,8.6294,8.6294,8.6294,8.6294,8.6294,8.6294,8.6294,8.6294,8.6018,8.5259,8.4454,8.3971,8.3868,8.2569,8.2,8.2476,8.323,8.3844,8.431,8.4999,8.5034,8.4391,8.4391,8.404,8.3373,8.3373,8.3759,5.3541,5.5788,5.8386,6.0922,0.0,0.0,0.0,0.0,0.0,0.0,6.9712,0.0,0.0,7.5384,7.8109,7.9902,8.1868,8.3626,8.5018,8.5604,8.5921,8.6033,8.6207,8.6423,8.6722,8.6922,8.7239,8.7681,8.7714,8.7617,8.7347,8.7381,8.7188,8.6608,8.6692,8.657,8.6294,8.6294,8.642,8.673,8.7178,8.7971,8.9019,8.9502,9.0088,9.0799,9.0799,9.107,9.1442,9.1122,9.1239,9.1409,8.9513,8.7728,8.6294,8.6294,8.6294,8.6294,8.6294,8.6294,8.6294,8.6294,8.6294,8.6294,8.6294,8.6294,8.6294,8.6294,8.6294,8.6294,8.6294,8.6626,8.704,8.7316,8.7764,8.8364,8.9122,8.8674,8.8157,8.8157,8.7536,8.6833,8.6398,8.6294,8.6294,8.6294,8.6294,8.6294,8.6294,8.6294,8.6294,8.6294,8.6294,8.6018,8.5259,8.4915,8.4523,8.404,8.3488,8.3418,8.3903,8.4239,8.4612,8.5058,8.4918,8.4882,8.5069,8.4637,8.4496,8.4648,8.4648,8.4777,5.4693,5.7087,5.9939,0.0,0.0,0.0,0.0,0.0,0.0,0.0,7.3703,7.4154,7.5718,7.7695,7.9592,8.1074,8.2833,8.435,8.5397,8.5909,8.6106,8.5929,8.575,8.5776,8.6093,8.6076,8.629,8.6799,8.6881,8.6833,8.6691,8.6617,8.651,8.6362,8.633,8.6294,8.6294,8.6294,8.6294,8.6329,8.6799,8.7605,8.8605,8.9122,8.9881,9.0799,9.0799,9.1004,9.1252,9.0931,9.0654,9.0326,8.9062,8.7674,8.6294,8.6294,8.6294,8.6294,8.6294,8.6294,8.6294,8.6294,8.6294,8.6294,8.6294,8.6294,8.6294,8.6294,8.6467,8.6661,8.6661,8.7006,8.7523,8.8006,8.8536,8.9157,8.9881,8.9467,8.8881,8.8652,8.7937,8.7178,8.6432,8.6294,8.6294,8.6294,8.6294,8.6294,8.6294,8.6294,8.6294,8.6294,8.6294,8.6087,8.5604,8.5535,8.5328,8.4764,8.4523,8.4525,8.4796,8.4785,8.5019,8.5479,8.4999,8.4882,8.5139,8.4637,8.4531,8.4788,8.4788,8.4788,5.642,5.9448,6.2967,0.0,0.0,0.0,0.0,0.0,0.0,7.7343,7.8059,7.843,7.8419,7.9626,8.1109,8.2661,8.3523,8.4523,8.6075,8.6068,8.5903,8.5903,8.5416,8.509,8.5111,8.5538,8.577,8.577,8.6467,8.6691,8.6227,8.645,8.6362,8.5903,8.6156,8.6294,8.6294,8.6294,8.6294,8.6294,8.6294,8.7122,8.8605,8.8605,8.9398,9.0799,9.0799,9.1004,9.1287,9.0917,8.9916,8.8605,8.8605,8.7639,8.6294,8.6294,8.6294,8.6294,8.6294,8.6294,8.6294,8.6294,8.6294,8.6294,8.6294,8.6294,8.6316,8.6316,8.6833,8.742,8.742,8.742,8.7799,8.9329,8.9709,8.9916,9.0627,9.0226,8.9502,8.8743,8.795,8.7178,8.642,8.6294,8.6294,8.6294,8.6294,8.6294,8.6294,8.6294,8.6294,8.6294,8.6294,8.6294,8.6294,8.6294,8.6294,8.6294,8.5604,8.5078,8.4808,8.4785,8.5019,8.5479,8.5491,8.5139,8.4391,8.4391,8.397,8.3197,8.3197,8.3197,5.7782,6.0704,0.0,6.7498,0.0,0.0,0.0,7.8355,0.0,0.0,7.9856,7.9798,7.9281,7.9971,8.1109,8.2661,8.3523,8.4523,8.6075,8.6068,8.5827,8.5635,8.5299,8.4998,8.4773,8.4883,8.4965,8.4965,8.5369,8.5562,8.5437,8.5861,8.602,8.5903,8.6156,8.6294,8.6294,8.6294,8.6294,8.6294,8.6294,8.7122,8.8605,8.8605,8.9398,9.0799,9.0799,9.0852,9.0896,9.0287,8.9467,8.8536,8.7984,8.7144,8.6294,8.6294,8.6294,8.6294,8.6294,8.6294,8.6294,8.6294,8.6294,8.6294,8.6294,8.6661,8.7075,8.7075,8.7639,8.8364,8.8881,8.9019,8.9122,8.9605,9.0088,9.0536,9.073,9.0627,9.026,8.9536,8.8777,8.7984,8.7213,8.6626,8.6294,8.6294,8.6294,8.6294,8.6294,8.6294,8.6294,8.6294,8.6294,8.6294,8.6294,8.6294,8.6087,8.557,8.5454,8.5456,8.5561,8.5063,8.5019,8.5479,8.4988,8.4637,8.4391,8.3829,8.3443,8.3197,8.3197,8.3197,6.0099,6.3091,0.0,7.0263,7.3879,7.7409,8.0968,0.0,0.0,0.0,8.173,8.1385,8.0936,8.1212,8.1902,8.3143,8.3971,8.4878,8.5984,8.5903,8.5635,8.5351,8.5077,8.4826,8.464,8.4614,8.4667,8.4786,8.4985,8.5181,8.5403,8.5725,8.5954,8.6055,8.6206,8.6294,8.6294,8.6294,8.6294,8.6294,8.6294,8.6949,8.8122,8.8467,8.9398,9.0799,9.0799,9.0627,9.0329,8.9881,8.9088,8.8088,8.7592,8.6937,8.6294,8.6294,8.6294,8.6294,8.6294,8.6294,8.6294,8.6294,8.6294,8.6351,8.6661,8.704,8.7454,8.7812,8.8433,8.9122,8.9571,8.9916,9.0157,9.0157,9.0467,9.0799,9.0799,9.0799,9.0558,8.9847,8.9088,8.8329,8.7523,8.6799,8.6294,8.6294,8.6294,8.6294,8.6294,8.6294,8.6294,8.6294,8.6294,8.6294,8.6294,8.6294,8.6021,8.536,8.5161,8.5091,8.5146,8.4716,8.4669,8.5058,8.4321,8.3935,8.3935,8.3443,8.3197,8.3197,8.3197,8.3197,6.2845,6.597,6.9261,7.3238,7.6688,8.0142,8.4019,8.4959,8.4851,8.4219,8.3523,8.2971,8.2902,8.2902,8.3143,8.3868,8.4661,8.5379,8.5876,8.5673,8.5424,8.5176,8.4826,8.4593,8.4654,8.4654,8.4786,8.509,8.5142,8.539,8.5878,8.5929,8.6055,8.6282,8.6294,8.6294,8.6294,8.6294,8.6294,8.6294,8.6294,8.6695,8.742,8.8226,8.9364,9.0696,9.0696,9.0282,8.9605,8.9536,8.8661,8.7385,8.7316,8.6902,8.6294,8.6294,8.6294,8.6294,8.6294,8.6294,8.6294,8.6294,8.6294,8.642,8.7178,8.7454,8.7661,8.8467,8.9226,8.9812,8.9812,9.0282,9.0799,9.0799,9.0799,9.0799,9.0799,9.0799,9.0592,8.995,8.9157,8.8364,8.7627,8.6833,8.6294,8.6294,8.6294,8.6294,8.6294,8.6294,8.6294,8.6294,8.6294,8.6294,8.6294,8.6294,8.6049,8.543,8.4774,8.4295,8.3912,8.3888,8.4002,8.4286,8.3584,8.3197,8.3197,8.3197,8.3197,8.3197,8.3197,8.3197,6.3469,6.6742,7.0192,7.4677,7.9522,8.3601,8.5274,8.6165,8.6299,8.5163,8.4316,8.3592,8.3006,8.2902,8.3143,8.3868,8.4661,8.5442,8.6116,8.5788,8.5489,8.5437,8.4932,8.472,8.4958,8.4985,8.5103,8.5411,8.5609,8.5788,8.5903,8.6093,8.6231,8.6294,8.6294,8.6294,8.6294,8.6294,8.6294,8.6294,8.6294,8.6695,8.742,8.8226,8.9088,8.995,8.995,8.9536,8.8777,8.8157,8.7696,8.7351,8.6764,8.642,8.6294,8.6294,8.6294,8.6294,8.6294,8.6294,8.6294,8.6294,8.6294,8.642,8.7178,8.7846,8.8501,8.926,8.9985,9.0558,9.0558,9.0661,9.0799,9.0799,9.0799,9.0799,9.0799,9.0799,9.073,9.0592,8.9502,8.8536,8.8364,8.7225,8.6294,8.6294,8.6294,8.6294,8.6294,8.6294,8.6294,8.6294,8.6294,8.6294,8.6294,8.6294,8.5807,8.4715,8.4688,8.4251,8.3166,8.3142,8.3244,8.3443,8.3303,8.3197,8.3197,8.3197,8.3197,8.3197,8.3197,8.3197,6.4136,6.7831,7.1868,7.7636,8.1769,8.4605,8.538,8.5808,8.5779,8.4964,8.4367,8.3764,8.304,8.2902,8.3143,8.3868,8.4661,8.5417,8.6015,8.575,8.5463,8.5299,8.4892,8.4733,8.505,8.509,8.5247,8.566,8.5827,8.5782,8.5564,8.5702,8.5604,8.5213,8.557,8.5777,8.5777,8.6122,8.6294,8.6294,8.6419,8.6861,8.7609,8.8289,8.8812,8.9157,8.9157,8.8743,8.7984,8.7558,8.7178,8.6833,8.6467,8.6294,8.6294,8.6294,8.6294,8.6294,8.6294,8.6294,8.6294,8.6294,8.6294,8.642,8.7178,8.795,8.8743,8.9502,9.0226,9.0799,9.0799,9.0799,9.0799,9.0799,9.0799,9.0799,9.0799,9.0799,9.0799,9.0799,8.9605,8.8605,8.8605,8.7329,8.6294,8.6294,8.6294,8.6294,8.6294,8.6294,8.6294,8.6294,8.6294,8.6294,8.6294,8.5984,8.5454,8.4652,8.4366,8.3868,8.3078,8.3031,8.3075,8.3197,8.3197,8.3197,8.3197,8.3197,8.3197,8.3197,8.3197,8.3197,6.4434,6.9024,7.4,8.0305,8.3068,8.4359,8.5065,8.4996,8.4679,8.4302,8.4003,8.3626,8.3006,8.2902,8.3109,8.3695,8.4501,8.5116,8.5523,8.5348,8.5092,8.4872,8.4572,8.4472,8.482,8.4846,8.5053,8.5551,8.5554,8.5414,8.5006,8.4984,8.4708,8.4006,8.4639,8.4984,8.4984,8.5592,8.5902,8.5915,8.615,8.656,8.7171,8.7603,8.795,8.8191,8.8191,8.7743,8.7006,8.7006,8.673,8.6294,8.6294,8.6294,8.6294,8.6294,8.6294,8.6294,8.6294,8.6294,8.6294,8.6294,8.6294,8.642,8.7178,8.7881,8.8536,8.9295,9.0054,9.0592,9.0592,9.0696,9.0799,9.0799,9.0799,9.0799,9.0799,9.0799,9.0799,9.0799,8.9605,8.857,8.8433,8.7225,8.6294,8.6294,8.6294,8.6294,8.6294,8.6191,8.6122,8.6122,8.6122,8.604,8.5902,8.5466,8.5031,8.461,8.3984,8.3472,8.321,8.3197,8.3197,8.3197,8.3197,8.3197,8.3197,8.3197,8.3197,8.3197,8.3197,8.3127,6.3609,7.0148,7.6538,8.0143,8.2214,8.3692,8.4925,8.4996,8.454,8.3643,8.322,8.3006,8.2902,8.2902,8.2937,8.304,8.3661,8.4166,8.4233,8.3999,8.3825,8.38,8.3571,8.3508,8.3762,8.3787,8.3946,8.4242,8.4267,8.4245,8.4178,8.4144,8.4109,8.4006,8.4109,8.4144,8.4144,8.4247,8.4316,8.4316,8.4353,8.4399,8.4503,8.457,8.5351,8.6605,8.6605,8.6191,8.5501,8.5501,8.5811,8.6294,8.6294,8.6294,8.6294,8.6294,8.6294,8.6294,8.6294,8.6294,8.6294,8.6294,8.6294,8.642,8.7178,8.7489,8.7743,8.8536,8.9295,8.9847,8.9847,9.0316,9.0799,9.0799,9.0799,9.0799,9.0799,9.0799,9.0799,9.0799,8.9605,8.8364,8.7661,8.6868,8.6294,8.6294,8.6294,8.6294,8.6294,8.5742,8.5363,8.5363,8.5363,8.5052,8.4385,8.488,8.4789,8.381,8.3671,8.3472,8.321,8.3197,8.3197,8.3197,8.3197,8.3197,8.3197,8.3197,8.3197,8.3197,8.3197,8.2857,6.4276,7.0078,7.5063,7.8177,8.0459,8.2182,8.3215,8.3494,8.3404,8.294,8.2566,8.2293,8.2293,8.2293,8.2419,8.2833,8.3178,8.3523,8.3937,8.3785,8.359,8.359,8.3363,8.3301,8.3553,8.359,8.3724,8.3981,8.4006,8.3833,8.3419,8.3385,8.3178,8.2764,8.3178,8.3385,8.3385,8.3799,8.4079,8.4236,8.4236,8.4236,8.4236,8.4236,8.4497,8.5006,8.5006,8.4833,8.4557,8.5018,8.5397,8.5708,8.6156,8.6294,8.6294,8.6294,8.6294,8.6294,8.6294,8.6294,8.6294,8.6294,8.6294,8.6363,8.6695,8.7075,8.7454,8.7846,8.8777,8.9709,8.9709,9.026,9.0799,9.0799,9.0799,9.0799,9.0799,9.0799,9.0674,9.0247,8.9329,8.8329,8.7523,8.6799,8.6294,8.6294,8.6294,8.6156,8.5742,8.5397,8.5018,8.4592,8.4535,8.4385,8.404,8.3937,8.3821,8.3601,8.3218,8.3065,8.3175,8.3197,8.3197,8.3197,8.3197,8.3197,8.3197,8.3197,8.3197,8.3197,8.3197,8.2787,6.4311,6.8849,7.243,7.572,7.8283,8.0297,8.1447,8.1956,8.2232,8.2372,8.2082,8.181,8.181,8.181,8.1983,8.2523,8.2626,8.2799,8.335,8.3249,8.3139,8.3139,8.2977,8.2927,8.3115,8.3139,8.3144,8.3119,8.3316,8.3109,8.235,8.2523,8.2362,8.181,8.2328,8.2626,8.2626,8.3178,8.3528,8.3732,8.3732,8.3732,8.3732,8.3732,8.3612,8.3454,8.3626,8.373,8.3764,8.4363,8.4846,8.5259,8.5811,8.6122,8.6294,8.6294,8.6294,8.6294,8.6294,8.6294,8.6294,8.6294,8.6294,8.6294,8.6294,8.6661,8.7109,8.7109,8.8075,8.9157,8.9364,8.9985,9.0571,9.0765,9.0799,9.0799,9.0799,9.0799,9.0627,9.0088,8.9398,8.8639,8.7846,8.7075,8.6523,8.6316,8.6294,8.6018,8.5294,8.5018,8.4604,8.3799,8.373,8.3626,8.3454,8.3109,8.3026,8.3288,8.2812,8.2716,8.3175,8.3197,8.3197,8.3197,8.3197,8.3197,8.3197,8.3197,8.3197,8.3197,8.2998,8.2506,6.2678,6.6075,6.9366,7.3238,7.5896,7.8115,8.0133,8.0974,8.1526,8.2026,8.1953,8.181,8.181,8.181,8.181,8.1845,8.1845,8.1879,8.1914,8.1902,8.189,8.189,8.1878,8.1878,8.189,8.189,8.158,8.0833,8.1488,8.1557,8.0764,8.1419,8.1845,8.181,8.1845,8.1845,8.1845,8.1914,8.1914,8.1938,8.1938,8.1938,8.1938,8.1938,8.1926,8.1948,8.2661,8.2971,8.2971,8.3006,8.388,8.519,8.5225,8.5673,8.6294,8.6294,8.6294,8.6294,8.6294,8.6294,8.6294,8.6294,8.6294,8.6294,8.6294,8.6329,8.6363,8.6363,8.6902,8.7696,8.8467,8.9191,8.995,9.0627,9.0799,9.0799,9.0799,9.0799,9.0799,9.073,9.0157,8.9398,8.8674,8.7868,8.7109,8.6432,8.6294,8.6018,8.5294,8.4523,8.3799,8.304,8.2971,8.2661,8.1983,8.2535,8.2818,8.2569,8.2534,8.2716,8.3175,8.3197,8.3197,8.3197,8.3197,8.3197,8.3197,8.3197,8.3197,8.3162,8.2482,8.1734,5.9713,6.2529,6.5487,6.9788,7.2577,7.4921,7.7542,7.8917,7.984,8.0558,8.0882,8.104,8.104,8.1454,8.181,8.181,8.181,8.181,8.181,8.181,8.181,8.181,8.181,8.1603,8.1074,8.104,8.073,7.9971,8.0143,8.0212,7.9902,8.0626,8.104,8.104,8.1523,8.181,8.181,8.181,8.181,8.181,8.1281,8.104,8.1005,8.0523,8.0316,8.035,8.1109,8.173,8.2224,8.2695,8.3212,8.3811,8.4811,8.5363,8.5639,8.6122,8.6294,8.6294,8.6294,8.6294,8.6294,8.6294,8.6294,8.6294,8.6294,8.6294,8.6294,8.6294,8.6833,8.7454,8.773,8.8777,8.9881,9.0627,9.0799,9.0799,9.0799,9.0799,9.0799,9.0799,9.0178,8.9467,8.8743,8.7937,8.7144,8.6432,8.6294,8.5846,8.4592,8.4178,8.3557,8.2316,8.219,8.2086,8.181,8.2052,8.2265,8.2511,8.2499,8.2716,8.3175,8.3197,8.3197,8.3197,8.3197,8.3197,8.3197,8.3197,8.3197,8.3162,8.2447,8.1664,5.7369,5.9606,6.2097,6.6088,6.8793,7.1239,7.4093,7.601,7.7544,7.8747,7.9442,7.9936,8.0178,8.0661,8.1178,8.1707,8.181,8.181,8.181,8.181,8.1707,8.1431,8.1385,8.1074,8.0316,8.0247,7.9936,7.9178,7.935,7.9385,7.9143,7.9833,8.0247,8.0247,8.0764,8.104,8.104,8.104,8.104,8.1017,8.0488,8.0247,8.0212,7.9729,7.9488,7.9557,8.027,8.0902,8.1454,8.2224,8.2661,8.304,8.4281,8.4949,8.5294,8.6018,8.6294,8.6294,8.6294,8.6294,8.6294,8.6294,8.6294,8.6294,8.6294,8.6294,8.6294,8.6294,8.6661,8.7075,8.7351,8.8523,8.9812,9.0316,9.0627,9.073,9.0489,9.064,9.0799,9.0799,9.0178,8.9467,8.8743,8.7937,8.7144,8.6432,8.6075,8.5454,8.4178,8.3799,8.3143,8.1948,8.181,8.181,8.181,8.181,8.2,8.2476,8.2499,8.2716,8.3175,8.3197,8.3197,8.3197,8.3197,8.3197,8.3197,8.3197,8.3197,8.3162,8.2155,8.1137,0.0,0.0,0.0,6.2256,6.4695,6.7094,6.9901,7.2381,7.4628,7.6636,7.7729,7.8522,7.9281,7.9454,7.9971,8.15,8.1741,8.1776,8.1776,8.1776,8.1466,8.0661,8.0592,8.0281,7.9557,7.9454,7.9178,7.843,7.904,7.9109,7.8385,7.9074,7.9488,7.9488,7.9488,7.9488,7.9488,7.9488,7.9488,7.9488,7.9488,7.9454,7.9454,7.9454,7.9419,7.9488,8.0247,8.0592,8.0626,8.1454,8.2224,8.2937,8.3695,8.4488,8.5259,8.6018,8.6294,8.6294,8.6294,8.6294,8.6294,8.6294,8.6294,8.6294,8.6294,8.6294,8.6294,8.6294,8.6294,8.6467,8.7213,8.8489,8.964,8.9674,9.0226,9.0523,8.9812,9.0226,9.0743,9.0743,9.0157,8.9433,8.8674,8.7915,8.7144,8.6432,8.5673,8.4915,8.4109,8.335,8.2626,8.1879,8.181,8.181,8.181,8.181,8.1988,8.2453,8.2499,8.2716,8.3175,8.3197,8.3197,8.3197,8.3197,8.3197,8.3197,8.3197,8.3197,8.3127,8.1583,8.0038,5.5448,0.0,0.0,0.0,0.0,0.0,6.6572,6.9021,7.128,7.3485,7.4971,7.627,7.758,7.8316,7.9005,7.9971,8.0592,8.0936,8.0936,8.0936,8.0661,7.9902,7.9798,7.9523,7.8764,7.8695,7.8385,7.758,7.7718,7.7764,7.7546,7.8281,7.8936,7.9488,7.9488,7.9488,7.9488,7.9488,7.9488,7.9488,7.8971,7.8695,7.8695,7.8109,7.7821,7.789,7.9247,7.9798,7.9902,8.1259,8.1914,8.2224,8.3488,8.4144,8.4488,8.5811,8.6294,8.6294,8.6294,8.6294,8.6294,8.6294,8.6294,8.6294,8.6294,8.6294,8.6294,8.6294,8.6294,8.6467,8.7213,8.773,8.8178,8.8777,8.9053,8.9157,8.895,8.9053,8.9191,8.9191,8.9053,8.8639,8.7868,8.7558,8.7144,8.6432,8.5673,8.4915,8.4109,8.335,8.2626,8.1879,8.181,8.181,8.181,8.181,8.1906,8.2187,8.2396,8.2636,8.2976,8.3109,8.3197,8.3197,8.3197,8.3197,8.3197,8.3197,8.2928,8.2377,8.0821,7.9568,0.0,0.0,0.0,0.0,0.0,0.0,6.2981,6.5506,6.7921,6.9932,7.1774,7.3384,7.4591,7.574,7.6673,7.7364,7.8064,7.8925,7.9994,8.0143,7.9867,7.9143,7.904,7.8729,7.7971,7.7626,7.7247,7.6787,7.6753,7.6891,7.7166,7.766,7.8109,7.8522,7.8557,7.8557,7.8557,7.8557,7.8557,7.8557,7.8109,7.7902,7.7867,7.7408,7.7201,7.727,7.8522,7.9212,7.9592,8.0798,8.1488,8.1948,8.3419,8.4006,8.4178,8.573,8.6294,8.6294,8.6294,8.6294,8.6294,8.6294,8.6294,8.6294,8.6294,8.6294,8.6294,8.6294,8.6294,8.6398,8.6833,8.7178,8.7523,8.7984,8.8364,8.8501,8.8157,8.8088,8.8191,8.8536,8.8329,8.7937,8.7489,8.7144,8.6695,8.5949,8.519,8.4432,8.3626,8.2902,8.2293,8.1845,8.181,8.181,8.181,8.181,8.1871,8.2083,8.235,8.2613,8.2886,8.3075,8.3197,8.3197,8.3197,8.3068,8.2752,8.2752,8.2201,8.1113,8.0235,7.9357,0.0,0.0,0.0,0.0,5.7429,0.0,5.9599,6.2151,6.4634,6.6196,6.8231,7.0025,7.0853,7.2198,7.3331,7.3885,7.4665,7.6117,7.8695,7.9074,7.881,7.8109,7.8005,7.7729,7.6994,7.6339,7.5971,7.5971,7.604,7.6373,7.7028,7.7166,7.7201,7.7201,7.7201,7.7201,7.7201,7.7201,7.7201,7.7201,7.7201,7.7201,7.7201,7.7201,7.7201,7.7235,7.804,7.8833,7.9557,8.0316,8.1074,8.1948,8.3316,8.3937,8.4178,8.5639,8.6225,8.6294,8.6294,8.6294,8.6294,8.6294,8.6294,8.6294,8.6294,8.6294,8.6294,8.6294,8.6294,8.6294,8.6294,8.6799,8.7282,8.7282,8.7812,8.8157,8.742,8.7282,8.7489,8.8226,8.7777,8.7282,8.7282,8.673,8.6053,8.5294,8.4523,8.373,8.2971,8.2259,8.181,8.181,8.181,8.181,8.181,8.181,8.1871,8.2048,8.2303,8.2568,8.2852,8.3042,8.3175,8.3197,8.3127,8.2682,8.185,8.185,8.1148,7.9814,7.9708,7.9287,0.0,0.0,0.0,0.0,5.7138,0.0,5.815,5.9771,6.153,6.3057,6.4678,6.6221,6.761,6.8611,6.9402,6.999,7.1219,7.3084,7.6037,7.6449,7.6242,7.5662,7.558,7.5511,7.5362,7.5235,7.5121,7.5121,7.5718,7.6177,7.6315,7.6891,7.7201,7.7201,7.7201,7.7201,7.7201,7.7201,7.7201,7.7201,7.7201,7.7201,7.7201,7.7201,7.7201,7.7235,7.804,7.8833,7.9557,8.0316,8.1074,8.1879,8.2764,8.3488,8.4109,8.5052,8.5777,8.6294,8.6294,8.6294,8.6294,8.6294,8.6294,8.6294,8.6294,8.6294,8.6294,8.6294,8.6294,8.6294,8.6294,8.6432,8.6523,8.6523,8.6626,8.6708,8.657,8.6523,8.6557,8.6708,8.6639,8.6523,8.6523,8.6398,8.6053,8.5294,8.4523,8.373,8.2971,8.2259,8.181,8.181,8.181,8.181,8.181,8.181,8.1834,8.187,8.207,8.2292,8.2556,8.2806,8.3008,8.3197,8.2623,8.1639,8.0235,8.0235,8.0094,7.9778,7.9146,7.876,0.0,0.0,0.0,5.862,5.7898,0.0,0.0,5.8219,5.9263,5.9942,6.1267,6.2513,6.324,6.4242,6.5058,6.5299,6.6569,6.8039,6.9544,7.2126,7.3731,7.3498,7.344,7.344,7.344,7.3194,7.3267,7.3764,7.4188,7.474,7.5477,7.5856,7.6063,7.6063,7.6063,7.6235,7.6649,7.6649,7.6822,7.7201,7.7201,7.7201,7.7201,7.7201,7.7201,7.7235,7.804,7.8833,7.9557,8.0316,8.1074,8.1879,8.2592,8.335,8.4109,8.4915,8.5673,8.6294,8.6294,8.6294,8.6294,8.6294,8.6294,8.6294,8.6294,8.6294,8.6294,8.6294,8.6294,8.6294,8.6294,8.6294,8.6294,8.6294,8.6294,8.6294,8.6294,8.6294,8.6294,8.6294,8.6294,8.6294,8.6294,8.5984,8.5501,8.4742,8.3937,8.3178,8.2466,8.2017,8.181,8.181,8.181,8.181,8.181,8.181,8.181,8.181,8.2,8.2153,8.2292,8.2705,8.2835,8.2647,8.1874,8.0926,7.9814,7.9392,7.9217,7.9181,7.8795,7.8585,0.0,0.0,0.0,0.0,5.8921,5.7702,0.0,0.0,0.0,5.7268,5.8196,5.8985,5.8827,5.9817,6.0556,6.0335,6.1541,6.2518,6.2479,6.6415,6.962,7.0593,7.0843,7.0901,7.0901,7.0649,7.0907,7.1929,7.2249,7.3018,7.4408,7.4753,7.4914,7.4914,7.4914,7.519,7.5856,7.604,7.6419,7.6994,7.7132,7.7201,7.7201,7.7201,7.7201,7.7235,7.804,7.8833,7.9557,8.0316,8.1074,8.1845,8.2454,8.3212,8.4075,8.4742,8.5535,8.6294,8.6294,8.6294,8.6294,8.6294,8.6294,8.6294,8.6294,8.6294,8.6294,8.6294,8.6294,8.6294,8.6294,8.6294,8.6294,8.6294,8.6294,8.6294,8.6294,8.6294,8.6294,8.6294,8.6294,8.6294,8.6294,8.5708,8.4915,8.4109,8.3385,8.2626,8.1879,8.181,8.181,8.181,8.181,8.181,8.181,8.181,8.181,8.181,8.1953,8.2048,8.2094,8.2625,8.266,8.2096,8.1313,8.0529,7.9814,7.9006,7.8585,7.8585,7.8585,7.8585,0.0,0.0,6.3414,6.1779,5.9607,5.7702,5.6978,0.0,5.5809,5.5672,0.0,5.5862,5.5645,0.0,0.0,5.5681,5.6914,5.7804,5.7607,5.8699,6.1116,6.5524,6.6647,6.7048,6.7048,6.7581,6.8333,6.9327,7.0642,7.1826,7.2888,7.4177,7.4914,7.4914,7.4914,7.4949,7.5052,7.5753,7.6143,7.6246,7.6891,7.7201,7.7201,7.7201,7.7201,7.7235,7.804,7.8833,7.9557,8.0316,8.1074,8.181,8.1879,8.2764,8.4006,8.4109,8.504,8.6294,8.6294,8.6294,8.6294,8.6294,8.6294,8.6294,8.6294,8.6294,8.6294,8.6294,8.6294,8.6294,8.6294,8.6294,8.6294,8.6294,8.6294,8.6294,8.6294,8.6294,8.6294,8.6294,8.6294,8.6294,8.6294,8.5708,8.4915,8.4109,8.3385,8.2626,8.1879,8.181,8.181,8.181,8.181,8.181,8.181,8.181,8.181,8.181,8.1834,8.1906,8.2083,8.2625,8.266,8.2096,8.1313,8.0529,7.9814,7.9006,7.8585,7.8585,7.8585,7.8585,0.0,6.7157,6.5536,6.2906,6.105,5.9314,5.7253,5.6176,5.543,5.4839,0.0,0.0,0.0,0.0,0.0,0.0,5.2643,5.3025,5.2925,5.3551,5.5922,6.1032,6.1926,6.2518,6.3528,6.3879,6.4913,6.6892,6.8011,6.9408,7.1267,7.236,7.3153,7.3602,7.3636,7.3843,7.4257,7.4602,7.5223,7.6109,7.6408,7.6798,7.7201,7.7201,7.7201,7.727,7.8488,7.9212,7.9592,8.0798,8.1488,8.181,8.181,8.2695,8.4006,8.4006,8.4971,8.6294,8.6294,8.6294,8.6294,8.6294,8.6294,8.6294,8.6294,8.6294,8.6294,8.6294,8.6294,8.6294,8.6294,8.6294,8.6294,8.6294,8.6294,8.6294,8.6294,8.6294,8.6294,8.6294,8.6294,8.6294,8.6294,8.5282,8.4385,8.404,8.3006,8.2155,8.1845,8.181,8.181,8.181,8.181,8.181,8.181,8.181,8.181,8.181,8.181,8.1882,8.2083,8.2453,8.2423,8.1898,8.1704,8.0997,7.9814,7.9462,7.9041,7.8585,7.8585,7.8585,7.0511,6.9247,6.7474,6.4343,6.2432,6.0565,5.7736,5.6314,5.5327,5.4385,5.3442,0.0,0.0,0.0,4.9659,4.926,0.0,4.8823,4.8628,4.9052,5.1243,5.6274,5.7221,5.8072,5.9525,6.0053,6.1387,6.4059,6.5161,6.6883,6.9635,7.0473,7.1336,7.2347,7.2381,7.2726,7.3485,7.3692,7.4475,7.5764,7.6005,7.6488,7.7201,7.7201,7.7201,7.727,7.8913,7.9557,7.9626,8.1214,8.1835,8.181,8.2017,8.2868,8.4006,8.4006,8.4971,8.6294,8.6294,8.6294,8.6294,8.6294,8.6294,8.6294,8.6294,8.6294,8.6294,8.6294,8.6294,8.6294,8.6294,8.6294,8.6294,8.6294,8.6294,8.6294,8.6294,8.6294,8.6294,8.6294,8.6294,8.6225,8.6018,8.4902,8.4006,8.4006,8.273,8.181,8.181,8.181,8.181,8.181,8.181,8.181,8.181,8.181,8.181,8.181,8.181,8.1882,8.2083,8.2361,8.2334,8.2058,8.2081,8.1429,8.0084,7.9919,7.9392,7.8585,7.8585,7.8585,7.3476,7.1544,6.9175,6.6449,6.354,6.0703,5.8383,5.6693,5.5327,5.4385,5.3064,5.1923,5.1587,0.0,0.0,0.0,0.0,0.0,0.0,4.4811,4.6455,5.093,5.2765,5.3991,5.4753,5.614,5.8072,6.0738,6.2305,6.4599,6.7995,6.8921,7.0035,7.1508,7.1543,7.1922,7.2726,7.3451,7.4164,7.4958,7.5729,7.6488,7.7201,7.7201,7.7201,7.7281,7.9117,7.974,7.9638,8.1366,8.1977,8.1879,8.2592,8.3316,8.4006,8.4006,8.4971,8.6294,8.6294,8.6294,8.6294,8.6294,8.6294,8.6294,8.6294,8.6294,8.6294,8.6294,8.6294,8.6294,8.6294,8.6294,8.6294,8.6294,8.6294,8.6294,8.6294,8.6294,8.6294,8.6294,8.6294,8.6075,8.5363,8.457,8.4006,8.4006,8.273,8.181,8.181,8.181,8.181,8.181,8.181,8.181,8.181,8.181,8.181,8.181,8.181,8.1882,8.2083,8.2361,8.2613,8.2862,8.2361,8.1699,8.087,8.0154,7.9392,7.8585,7.8585,7.8585,7.4418,7.3145,7.1365,6.8167,6.5851,6.3471,6.0185,5.8633,5.7375,5.5501,5.433,5.3246,5.1946,0.0,0.0,0.0,0.0,0.0,0.0,4.3078,4.3612,4.5128,4.7962,5.0262,5.1496,5.3076,5.5094,5.7628,6.0215,6.2893,6.5694,6.7532,6.899,6.999,7.0991,7.1646,7.1888,7.2692,7.3451,7.4164,7.4936,7.5718,7.6488,7.6994,7.7201,7.7292,7.9128,7.9752,7.9649,8.1378,8.1988,8.181,8.2086,8.2902,8.4075,8.4592,8.5419,8.6294,8.6294,8.6294,8.6294,8.6294,8.6294,8.6294,8.6294,8.6294,8.6294,8.6294,8.6294,8.6294,8.6294,8.6294,8.6294,8.6294,8.6294,8.6294,8.6294,8.6294,8.6294,8.6294,8.6294,8.6213,8.5984,8.4868,8.3833,8.335,8.2431,8.181,8.181,8.181,8.181,8.181,8.181,8.181,8.181,8.181,8.181,8.181,8.181,8.1846,8.1894,8.2141,8.2361,8.2625,8.2618,8.2328,8.1699,8.1429,8.0902,8.0108,7.9627,7.9111,7.6025,7.4893,7.3243,7.0116,6.799,6.5748,6.2229,6.0392,5.8918,5.6831,5.5417,5.402,5.2477,5.0104,0.0,0.0,0.0,0.0,0.0,4.1914,4.2022,4.2266,4.4681,4.6793,4.8094,4.9916,5.2155,5.4942,5.7792,6.0714,6.3772,6.5817,6.7497,6.8828,7.0335,7.1232,7.1508,7.2312,7.3071,7.3796,7.4281,7.5074,7.6109,7.658,7.6959,7.7292,7.8895,7.9578,7.9615,8.1182,8.1828,8.1845,8.2086,8.2764,8.3695,8.4488,8.5432,8.6294,8.6294,8.6294,8.6294,8.6294,8.6294,8.626,8.5984,8.5915,8.5846,8.5557,8.5488,8.5557,8.5846,8.5915,8.5984,8.6247,8.6294,8.6294,8.6294,8.6294,8.6294,8.6294,8.6294,8.6225,8.5949,8.4833,8.3833,8.335,8.2419,8.181,8.181,8.181,8.181,8.181,8.181,8.181,8.181,8.181,8.181,8.181,8.181,8.181,8.181,8.2,8.2222,8.2499,8.2773,8.2636,8.2107,8.2107,8.1699,8.0881,8.04,7.9908]},{"header":{"parameterUnit":"m.s-1","parameterCategory":1,"la1":30.6,"la2":29.2853,"lo1":-89.7004,"lo2":-87.6739,"dy":0.0162,"dx":0.0183,"nx":112,"ny":82,"refTime":"2023-10-03T18:00:00:Z","depth":0,"parameterNumber":3,"parameterNumberName":"V-component_of_WINDS"},"data":[0.0,0.0,0.0,0.0,0.0,0.0,0.0,0.0,0.0,0.0,0.0,0.0,0.0,0.0,0.0,0.0,0.0,0.0,0.0,0.0,0.0,0.0,0.0,0.0,0.0,0.0,0.0,0.0,0.0,0.0,0.0,0.0,0.0,0.0,0.0,0.0,0.0,0.0,0.0,0.0,0.0,0.0,0.0,0.0,0.0,0.0,0.0,0.0,0.0,0.0,0.0,0.0,0.0,0.0,0.0,0.0,0.0,0.0,0.0,0.0,0.0,0.0,0.0,0.0,0.0,0.0,0.0,0.0,0.0,0.0,0.0,0.0,0.0,0.0,0.0,0.0,0.0,0.0,0.0,0.0,0.0,0.0,0.0,0.0,0.0,0.0,0.0,0.0,0.0,0.0,1.5817,1.7242,1.8129,1.8736,1.9065,1.7849,1.677,1.6135,0.0,0.0,0.0,0.0,0.0,0.0,0.0,0.0,0.0,0.0,0.0,0.0,0.0,0.0,0.0,0.0,0.0,0.0,0.0,0.0,0.0,0.0,0.0,0.0,0.0,0.0,0.0,0.0,0.0,0.0,0.0,0.0,0.0,0.0,0.0,0.0,0.0,0.0,0.0,0.0,0.0,0.0,0.0,0.0,0.0,0.0,0.0,0.0,0.0,0.0,0.0,0.0,0.0,0.0,0.0,0.0,0.0,0.0,0.0,0.0,0.0,0.0,0.0,0.0,0.0,0.0,0.0,0.0,0.0,0.0,0.0,0.0,0.0,0.0,0.0,0.0,0.0,0.0,0.0,0.0,0.0,0.0,0.0,0.0,0.0,0.0,0.0,0.0,0.0,0.0,0.0,0.0,0.0,0.0,0.0,0.0,0.0,0.0,0.0,0.0,0.0,0.0,0.0,0.0,1.6856,1.898,1.9683,1.9858,1.954,1.8686,1.7691,1.6573,0.0,0.0,0.0,0.0,0.0,0.0,0.0,0.0,0.0,0.0,0.0,0.0,0.0,0.0,0.0,0.0,0.0,0.0,0.0,0.0,0.0,0.0,0.0,0.0,0.0,0.0,0.0,0.0,0.0,0.0,0.0,0.0,0.0,0.0,0.0,0.0,0.0,0.0,0.0,0.0,0.0,0.0,0.0,0.0,0.0,0.0,0.0,0.0,0.0,0.0,0.0,0.0,0.0,0.0,0.0,0.0,0.0,0.0,0.0,0.0,0.0,0.0,0.0,0.0,0.0,0.0,0.0,0.0,0.0,0.0,0.0,0.0,0.0,0.0,0.0,0.0,0.0,0.0,0.0,0.0,0.0,0.0,0.0,0.0,0.0,0.0,0.0,0.0,0.0,0.0,0.0,0.0,0.0,0.0,0.0,0.0,0.0,0.0,0.0,0.0,0.0,0.0,0.0,1.7171,1.8774,2.0261,2.0543,2.0545,2.0331,1.9304,1.8182,1.7051,1.545,0.0,0.0,0.0,0.0,0.0,0.0,0.0,0.0,0.0,0.0,0.0,0.0,0.0,0.0,0.0,0.0,0.0,0.0,0.0,0.0,0.0,0.0,0.0,0.0,0.0,0.0,0.0,0.0,0.0,0.0,0.0,0.0,0.0,0.0,0.0,0.0,0.0,0.0,0.0,0.0,0.0,0.0,0.0,0.0,0.0,0.0,0.0,0.0,0.0,0.0,0.0,0.0,0.0,0.0,0.0,0.0,0.0,0.0,0.0,0.0,0.0,0.0,0.0,0.0,0.0,0.0,0.0,0.0,0.0,0.0,0.0,0.0,0.0,0.0,0.0,0.0,0.0,0.0,0.0,0.0,0.0,0.0,0.0,0.0,0.0,0.0,0.0,0.0,0.0,0.0,0.0,0.0,0.0,0.0,0.0,0.0,0.0,0.0,0.0,0.0,0.0,0.0,1.9076,2.032,2.1196,2.1252,2.1178,2.1059,1.9865,1.8651,1.7512,1.5976,0.0,0.0,0.0,0.0,0.0,0.0,0.0,0.0,0.0,0.0,0.0,0.0,0.0,0.0,0.0,0.0,0.0,0.0,0.0,0.0,0.0,0.0,0.0,0.0,0.0,0.0,0.0,0.0,0.0,0.0,0.0,0.0,0.0,0.0,0.0,0.0,0.0,0.0,0.0,0.0,0.0,0.0,0.0,0.0,0.0,0.0,0.0,0.0,0.0,0.0,0.0,0.0,0.0,0.0,0.0,0.0,0.0,0.0,0.0,0.0,0.0,0.0,0.0,0.0,0.0,0.0,0.0,0.0,0.0,0.0,0.0,0.0,0.0,0.0,0.0,0.0,0.0,0.0,0.0,0.0,0.0,0.0,0.0,0.0,0.0,0.0,0.0,0.0,0.0,0.0,0.0,0.0,0.0,0.0,0.0,0.0,0.0,0.0,0.0,0.0,0.0,0.0,1.9583,2.0688,2.174,2.206,2.2005,2.1504,2.0467,1.9273,1.7946,1.6125,0.0,0.0,0.0,0.0,0.0,0.0,0.0,0.0,0.0,0.0,0.0,0.0,0.0,0.0,0.0,0.0,0.0,0.0,0.0,0.0,0.0,0.0,0.0,0.0,0.0,0.0,0.0,0.0,0.0,0.0,0.0,0.0,0.0,0.0,0.0,0.0,0.0,0.0,0.0,0.0,0.0,0.0,0.0,0.0,0.0,0.0,0.0,0.0,0.0,0.0,0.0,0.0,0.0,0.0,0.0,0.0,0.0,0.0,0.0,0.0,0.0,0.0,0.0,0.0,0.0,0.0,0.0,0.0,0.0,0.0,0.0,0.0,0.0,0.0,0.0,0.0,0.0,0.0,0.0,0.0,0.0,0.0,0.0,0.0,0.0,0.0,0.0,0.0,0.0,0.0,0.0,0.0,0.0,0.0,0.0,0.0,0.0,0.0,0.0,0.0,0.0,0.0,2.0776,2.1998,2.2531,2.3011,2.3005,2.2256,2.1154,1.9857,1.8299,0.0,0.0,0.0,0.0,0.0,0.0,0.0,0.0,0.0,0.0,0.0,0.0,0.0,0.0,0.0,0.0,0.0,0.0,0.0,0.0,0.0,0.0,0.0,0.0,0.0,0.0,0.0,0.0,0.0,0.0,0.0,0.0,0.0,0.0,0.0,0.0,0.0,0.0,0.0,0.0,0.0,0.0,0.0,0.0,0.0,0.0,0.0,0.0,0.0,0.0,0.0,0.0,0.0,0.0,0.0,0.0,0.0,0.0,0.0,0.0,0.0,0.0,0.0,0.0,0.0,0.0,0.0,0.0,0.0,0.0,0.0,0.0,0.0,0.0,0.0,0.0,0.0,0.0,0.0,0.0,0.0,0.0,0.0,0.0,0.0,0.0,0.0,0.0,0.0,0.0,0.0,0.0,0.0,0.0,0.0,0.0,0.0,0.0,0.0,0.0,0.0,0.0,1.9753,2.1544,2.2793,2.3084,2.3578,2.3546,2.267,2.1564,2.0176,1.8515,0.0,0.0,0.0,0.0,0.0,0.0,0.0,0.0,0.0,0.0,0.0,0.0,0.0,0.0,0.0,0.0,0.0,0.0,0.0,0.0,0.0,0.0,0.0,0.0,0.0,0.0,0.0,0.0,0.0,0.0,0.0,0.0,0.0,0.0,0.0,0.0,0.0,0.0,0.0,0.0,0.0,0.0,0.0,0.0,0.0,0.0,0.0,0.0,0.0,0.0,0.0,0.0,0.0,0.0,0.0,0.0,0.0,0.0,0.0,0.0,0.0,0.0,0.0,0.0,0.0,0.0,0.0,0.0,0.0,0.0,0.0,0.0,0.0,0.0,0.0,0.0,0.0,0.0,0.0,0.0,0.0,0.0,0.0,0.0,0.0,0.0,0.0,0.0,0.0,0.0,0.0,0.0,0.0,0.0,0.0,0.0,0.0,0.0,0.0,0.0,0.0,0.0,2.0272,2.1751,2.2833,2.3369,2.3724,2.3565,2.2688,2.1564,2.0192,0.0,0.0,0.0,0.0,0.0,0.0,0.0,0.0,0.0,0.0,0.0,0.0,0.0,0.0,0.0,0.0,0.0,0.0,0.0,0.0,0.0,0.0,0.0,0.0,0.0,0.0,0.0,0.0,0.0,0.0,0.0,0.0,0.0,0.0,0.0,0.0,0.0,0.0,0.0,0.0,0.0,0.0,0.0,0.0,0.0,0.0,0.0,0.0,0.0,0.0,0.0,0.0,0.0,0.0,0.0,0.0,0.0,0.0,0.0,0.0,0.0,0.0,0.0,0.0,0.0,0.0,0.0,0.0,0.0,0.0,0.0,0.0,0.0,0.0,0.0,0.0,0.0,0.0,0.0,0.0,0.0,0.0,0.0,0.0,0.0,0.0,0.0,0.0,0.0,0.0,0.0,0.0,0.0,0.0,0.0,0.0,0.0,0.0,0.0,0.0,0.0,0.0,0.0,2.1077,2.2893,2.4167,2.4567,2.487,2.4667,2.3798,2.2468,2.1019,1.9478,0.0,0.0,0.0,0.0,0.0,0.0,0.0,0.0,0.0,0.0,0.0,0.0,0.0,0.0,0.0,0.0,0.0,0.0,0.0,0.0,0.0,0.0,0.0,0.0,0.0,0.0,0.0,0.0,0.0,0.0,0.0,0.0,0.0,0.0,0.0,0.0,0.0,0.0,0.0,0.0,0.0,0.0,0.0,0.0,0.0,0.0,0.0,0.0,0.0,0.0,0.0,0.0,0.0,0.0,0.0,0.0,0.0,0.0,0.0,0.0,0.0,0.0,0.0,0.0,0.0,0.0,0.0,0.0,0.0,0.0,0.0,0.0,0.0,0.0,0.0,0.0,0.0,0.0,0.0,0.0,0.0,0.0,0.0,0.0,0.0,0.0,0.0,0.0,0.0,0.0,0.0,0.0,0.0,0.0,0.0,0.0,0.0,0.0,0.0,0.0,0.0,0.0,2.1555,2.3434,2.4738,2.5069,2.5344,2.5157,2.4257,2.3073,2.1676,2.0057,0.0,0.0,0.0,0.0,0.0,0.0,0.0,0.0,0.0,0.0,0.0,0.0,0.0,0.0,0.0,0.0,0.0,0.0,0.0,0.0,0.0,0.0,0.0,0.0,0.0,0.0,0.0,0.0,0.0,0.0,0.0,0.0,0.0,0.0,0.0,0.0,0.0,0.0,0.0,0.0,0.0,0.0,0.0,0.0,0.0,0.0,0.0,0.0,0.0,0.0,0.0,0.0,0.0,0.0,0.0,0.0,0.0,0.0,0.0,0.0,0.0,0.0,0.0,0.0,0.0,0.0,0.0,0.0,0.0,0.0,0.0,0.0,0.0,0.0,0.0,0.0,0.0,0.0,0.0,0.0,0.0,0.0,0.0,0.0,0.0,0.0,0.0,0.0,0.0,0.0,0.0,0.0,0.0,0.0,0.0,0.0,0.0,0.0,0.0,0.0,0.0,0.0,2.1958,2.3682,2.4889,2.5262,2.5485,2.5278,2.4465,2.3534,2.2257,2.0534,0.0,0.0,0.0,0.0,0.0,0.0,0.0,0.0,0.0,0.0,0.0,0.0,0.0,0.0,0.0,0.0,0.0,0.0,0.0,0.0,0.0,0.0,0.0,0.0,0.0,0.0,0.0,0.0,0.0,0.0,0.0,0.0,0.0,0.0,0.0,0.0,0.0,0.0,0.0,0.0,0.0,0.0,0.0,0.0,0.0,0.0,0.0,0.0,0.0,0.0,0.0,0.0,0.0,0.0,0.0,0.0,0.0,0.0,0.0,0.0,1.5367,1.4342,0.0,0.0,0.0,0.0,0.0,0.0,0.0,0.0,0.0,0.0,0.0,0.0,0.0,0.0,0.0,0.0,0.0,0.0,0.0,0.0,0.0,0.0,0.0,0.0,0.0,0.0,0.0,0.0,0.0,0.0,0.0,0.0,0.0,0.0,0.0,0.0,0.0,0.0,0.0,0.0,2.3334,2.4955,2.6149,2.6704,2.6574,2.6277,2.5885,2.4567,2.3295,2.2149,2.0226,0.0,0.0,0.0,0.0,0.0,0.0,0.0,0.0,0.0,0.0,0.0,0.0,0.0,0.0,0.0,0.0,0.0,0.0,0.0,0.0,0.0,0.0,0.0,0.0,0.0,0.0,0.0,0.0,0.0,0.0,0.0,0.0,0.0,0.0,0.0,0.0,0.0,0.0,0.0,0.0,0.0,0.0,0.0,0.0,0.0,0.0,0.0,0.0,0.0,0.0,0.0,0.0,0.0,0.0,0.0,0.0,0.0,0.0,0.0,1.8153,1.6949,0.0,0.0,0.0,0.0,0.0,0.0,0.0,0.0,0.0,0.0,0.0,0.0,0.0,0.0,0.0,0.0,0.0,0.0,0.0,0.0,0.0,0.0,0.0,0.0,0.0,0.0,0.0,0.0,0.0,0.0,0.0,0.0,0.0,0.0,0.0,0.0,0.0,0.0,0.0,0.0,2.3776,2.5346,2.6537,2.7135,2.7032,2.6771,2.6341,2.5451,2.4365,2.3117,2.1622,0.0,0.0,0.0,0.0,0.0,0.0,0.0,0.0,0.0,0.0,0.0,0.0,0.0,0.0,0.0,0.0,0.0,0.0,0.0,0.0,0.0,0.0,0.0,0.0,0.0,0.0,0.0,0.0,0.0,0.0,0.0,0.0,0.0,0.0,0.0,0.0,0.0,0.0,0.0,0.0,0.0,0.0,0.0,0.0,0.0,0.0,0.0,0.0,0.0,0.0,0.0,0.0,0.0,2.2037,2.2348,2.2629,2.303,2.3298,2.3336,2.1341,2.0104,1.94,1.8243,0.0,0.0,0.0,0.0,0.0,0.0,0.0,0.0,0.0,0.0,0.0,0.0,0.0,0.0,0.0,0.0,0.0,0.0,0.0,0.0,0.0,0.0,2.0108,2.0731,2.1169,2.0886,1.8849,0.0,0.0,0.0,0.0,0.0,0.0,0.0,0.0,0.0,0.0,0.0,2.4229,2.5783,2.6942,2.7431,2.7488,2.7262,2.6716,2.6308,2.5514,2.4118,2.3137,2.1942,0.0,0.0,0.0,0.0,0.0,0.0,0.0,0.0,0.0,0.0,0.0,0.0,0.0,0.0,0.0,0.0,0.0,0.0,0.0,0.0,0.0,0.0,0.0,0.0,0.0,0.0,0.0,0.0,0.0,0.0,0.0,0.0,1.5512,1.5565,0.0,0.0,0.0,0.0,0.0,0.0,0.0,0.0,0.0,0.0,0.0,0.0,0.0,2.1729,2.2925,2.3319,2.3959,2.4904,2.5239,2.556,2.5895,2.6542,2.6688,2.6422,2.609,0.0,2.1372,2.0371,0.0,0.0,0.0,0.0,0.0,0.0,0.0,0.0,0.0,0.0,0.0,0.0,0.0,0.0,0.0,0.0,0.0,0.0,0.0,0.0,0.0,0.0,2.241,2.3362,2.3812,2.3871,2.331,2.1447,1.9626,1.8798,1.836,1.7937,0.0,0.0,0.0,0.0,0.0,0.0,2.5993,2.7584,2.8589,2.8657,2.8671,2.8526,2.8138,2.734,2.6633,2.6137,2.4694,2.3381,2.2284,2.0666,0.0,0.0,0.0,0.0,0.0,0.0,0.0,0.0,0.0,0.0,0.0,0.0,0.0,0.0,0.0,0.0,0.0,0.0,0.0,0.0,0.0,0.0,0.0,0.0,0.0,0.0,0.0,0.0,0.0,1.6121,1.7183,1.7301,1.755,1.7597,0.0,0.0,0.0,0.0,0.0,0.0,0.0,0.0,0.0,2.2857,2.3691,2.4569,2.5491,2.5845,2.6383,2.7122,2.7268,2.7521,2.7861,2.8139,2.8217,2.807,2.807,2.7085,2.5371,2.3512,2.2489,2.1999,0.0,0.0,0.0,0.0,2.0842,2.1133,2.1259,2.1217,2.1133,2.1273,0.0,0.0,0.0,0.0,0.0,0.0,0.0,2.138,2.2394,2.3429,2.4428,2.5167,2.5441,2.5587,2.5648,2.4696,2.3276,2.1444,2.0672,2.0259,1.9953,2.051,0.0,0.0,0.0,2.5579,2.6881,2.8144,2.9032,2.9418,2.9286,2.9052,2.871,2.812,2.751,2.6822,2.5944,2.492,2.3764,2.233,2.0882,0.0,0.0,0.0,0.0,0.0,0.0,0.0,0.0,0.0,0.0,0.0,0.0,0.0,0.0,0.0,0.0,0.0,0.0,0.0,0.0,0.0,0.0,0.0,0.0,0.0,0.0,0.0,0.0,1.7944,1.8929,1.9284,1.9571,1.9646,0.0,0.0,0.0,0.0,0.0,0.0,2.2637,2.3808,2.482,2.5552,2.6339,2.71,2.7865,2.8114,2.8491,2.9027,2.9213,2.9453,2.9714,2.9907,2.9947,2.9858,2.9754,2.9503,2.8993,2.6495,2.5259,2.4893,2.404,2.3767,2.3777,2.3515,2.3642,2.3918,2.3831,2.3802,2.3788,2.3702,2.3107,2.2442,2.237,0.0,0.0,0.0,0.0,2.3953,2.466,2.554,2.6394,2.697,2.7121,2.7245,2.749,2.7324,2.6418,2.4012,2.3066,2.2652,2.2578,2.2828,0.0,2.3748,2.5152,2.6512,2.7583,2.8642,2.9472,3.0003,2.9827,2.9586,2.938,2.8961,2.8399,2.7603,2.7159,2.6393,2.518,2.3912,2.2554,2.1112,0.0,0.0,0.0,0.0,0.0,0.0,0.0,0.0,0.0,0.0,0.0,0.0,0.0,0.0,0.0,0.0,0.0,0.0,0.0,0.0,0.0,0.0,0.0,0.0,0.0,0.0,0.0,0.0,0.0,2.1475,2.1829,0.0,0.0,0.0,0.0,2.2856,2.3839,2.4673,2.5283,2.6281,2.7261,2.8174,2.8564,2.9227,3.0214,3.0264,3.0399,3.0679,3.1446,3.1819,3.187,3.265,3.2809,3.2483,3.2044,3.164,3.1171,2.8728,2.7579,2.7294,2.6928,2.6778,2.6775,2.676,2.6965,2.7195,2.6888,2.6786,2.6728,2.6403,2.5848,2.5249,2.4991,2.4687,0.0,0.0,2.5087,2.5614,2.66,2.7549,2.8417,2.9089,2.9246,2.9251,2.9281,2.9003,2.8198,2.6216,2.5541,2.5223,2.4968,0.0,2.5442,2.5795,2.6947,2.7926,2.8306,2.9505,3.0357,3.0454,3.045,3.048,3.0604,3.0003,2.945,2.9009,2.8426,2.7656,2.6636,2.5551,2.4082,2.2168,2.0786,0.0,0.0,0.0,0.0,0.0,0.0,0.0,0.0,0.0,0.0,0.0,0.0,0.0,0.0,0.0,0.0,0.0,0.0,0.0,0.0,0.0,0.0,0.0,0.0,0.0,0.0,0.0,0.0,2.3519,2.4021,0.0,2.4089,2.4688,2.5374,2.6012,2.7232,2.8236,2.8886,2.9653,3.0308,3.0841,3.1173,3.173,3.2514,3.2529,3.2673,3.3004,3.3049,3.309,3.3111,3.3169,3.3132,3.3004,3.2835,3.2695,3.2486,3.1341,3.0266,2.9335,2.8998,2.8729,2.8539,2.8539,2.848,2.8393,2.8256,2.8212,2.8169,2.7828,2.7546,2.7298,2.6994,2.698,2.7077,2.716,2.7579,2.8096,2.8443,2.8948,2.9439,2.9661,2.9731,2.9731,2.9731,2.9643,2.933,2.8642,2.7886,2.7268,2.695,2.6976,2.7166,2.7488,2.8367,2.9176,2.969,3.0605,3.1334,3.1562,3.1204,3.0981,3.1019,3.0164,2.9469,2.9111,2.8706,2.8007,2.7002,2.6426,2.5372,2.3778,2.2477,2.0949,0.0,0.0,0.0,0.0,0.0,0.0,0.0,0.0,0.0,0.0,0.0,0.0,0.0,0.0,0.0,0.0,0.0,0.0,0.0,0.0,0.0,0.0,0.0,0.0,0.0,2.3662,2.5002,2.5699,2.6331,2.6757,2.6849,2.7596,2.8364,2.903,3.0159,3.1046,3.1578,3.2252,3.2731,3.3025,3.3255,3.3637,3.4202,3.4218,3.4325,3.4554,3.4479,3.4437,3.4443,3.4365,3.4359,3.4337,3.4185,3.412,3.4077,3.3599,3.286,3.1925,3.0939,3.0399,3.0208,3.0208,3.0077,2.9851,2.9749,2.9632,2.9515,2.929,2.9197,2.9168,2.8949,2.9037,2.9197,2.9197,2.9524,2.9866,2.9866,3.0047,3.0208,3.0208,3.0208,3.0208,3.0208,3.0208,3.0208,3.0208,2.95,2.8837,2.8618,2.8689,2.8855,2.908,2.9783,3.0454,3.0851,3.1462,3.2012,3.235,3.1807,3.1452,3.1591,3.0647,2.9885,2.9542,2.9075,2.8429,2.7501,2.7077,2.621,2.4824,2.3196,2.1644,2.0185,0.0,0.0,0.0,0.0,0.0,0.0,0.0,0.0,0.0,0.0,0.0,0.0,0.0,0.0,0.0,0.0,0.0,0.0,0.0,0.0,0.0,0.0,0.0,2.433,2.5335,2.665,2.8047,2.8792,2.9504,3.0302,3.0683,3.1178,3.1849,3.2524,3.3024,3.3297,3.3918,3.4408,3.4736,3.4751,3.4919,3.5256,3.5256,3.5271,3.5271,3.5745,3.5932,3.5955,3.6404,3.659,3.6568,3.6119,3.5917,3.5894,3.5421,3.5218,3.5006,3.276,3.1884,3.187,3.1855,3.1841,3.1797,3.1453,3.1124,3.0861,3.0826,3.0826,3.0826,3.0826,3.0826,3.0826,3.0826,3.0826,3.0826,3.0826,3.0826,3.0826,3.0826,3.0826,3.0826,3.0826,3.0826,3.0861,3.0861,3.039,3.0005,2.9956,3.0278,3.0555,3.0555,3.1229,0.0,3.1726,3.2037,3.2381,3.2778,3.2216,3.1974,3.2372,3.1462,3.0715,3.0328,2.9663,2.8964,2.8232,2.7574,2.6592,2.5266,2.2974,2.1295,2.031,0.0,0.0,0.0,0.0,0.0,0.0,0.0,0.0,0.0,0.0,0.0,0.0,0.0,0.0,0.0,0.0,0.0,0.0,0.0,0.0,0.0,2.6182,2.7636,2.7149,2.8457,2.9803,3.068,3.1117,3.1554,3.2068,3.2695,3.3363,3.4063,3.4774,3.5319,3.5649,3.5832,3.5973,3.6067,3.6067,3.624,3.6564,3.6579,3.6728,3.7002,3.6864,3.6768,3.6768,3.665,3.659,3.659,3.6456,3.6411,3.6366,3.5894,3.5714,3.5585,3.4383,3.374,3.352,3.3278,3.3037,3.2746,3.2315,3.2119,3.1981,3.1641,3.1534,3.1534,3.1534,3.1534,3.1534,3.1534,3.1534,3.1534,3.1534,3.1534,3.1534,3.1534,3.1534,3.1534,3.1534,3.1789,3.2029,3.2029,3.217,3.2032,3.1199,3.1433,3.1735,3.1735,3.2181,3.2494,3.2494,3.2875,3.3168,3.3307,3.266,3.2273,3.2392,3.122,3.0426,3.0296,2.9441,2.8727,2.8216,2.778,2.7051,2.5945,2.4577,2.3506,0.0,0.0,0.0,0.0,0.0,0.0,0.0,0.0,0.0,0.0,0.0,0.0,0.0,0.0,0.0,0.0,0.0,0.0,0.0,0.0,0.0,0.0,2.8719,3.0427,3.0757,3.114,3.1715,3.2577,3.3065,3.3561,3.4116,3.4696,3.5209,3.5634,3.6203,3.66,3.6813,3.6972,3.7137,3.7274,3.7274,3.7432,3.7782,3.7759,3.7893,3.8123,3.7877,3.7759,3.7766,3.7432,3.7274,3.7258,3.7115,3.7051,3.7051,3.6779,3.6665,3.655,0.0,0.0,0.0,0.0,3.4202,3.3975,3.3555,3.3423,3.3342,3.2947,3.2685,3.2511,3.2511,3.2381,3.2251,3.2468,3.2408,3.2348,3.2542,3.2502,3.2398,3.2398,3.2398,3.2398,3.2398,3.2611,3.2789,3.2789,3.3172,0.0,3.2611,3.2733,3.29,3.29,3.3255,3.3463,3.3322,3.3533,3.3672,3.3529,3.2841,3.2392,3.2392,3.1106,0.0,0.0,0.0,2.8553,2.8008,2.7533,0.0,0.0,0.0,2.5203,2.495,2.433,0.0,0.0,2.0297,1.9953,0.0,0.0,0.0,0.0,0.0,0.0,0.0,0.0,0.0,0.0,0.0,0.0,0.0,0.0,0.0,0.0,3.1132,3.314,3.4412,3.3495,3.3065,3.4088,3.4719,3.5388,3.6149,3.654,3.676,3.6807,3.7165,3.7379,3.7379,3.7775,0.0,0.0,0.0,3.8566,3.8782,3.8798,3.8759,3.8688,3.8688,3.8735,3.8782,3.848,3.836,3.8343,3.8,3.7818,3.7763,3.7717,3.7694,3.7561,3.6017,3.5384,3.5354,3.5354,3.5354,3.5323,3.4964,0.0,0.0,3.4431,3.4023,3.364,3.364,3.3323,3.3029,3.3448,3.337,3.3232,3.3666,3.3545,3.3316,3.3316,3.3316,3.3316,3.3316,3.3359,3.338,3.338,3.3764,3.4084,3.4084,3.4021,3.3974,3.3974,3.4276,3.4382,3.4027,3.3996,3.3894,3.3606,3.2953,0.0,3.2551,3.1281,3.0482,3.0434,2.9445,2.8537,2.7786,2.7185,2.7026,2.7375,2.6788,2.6661,2.6979,2.6399,2.6095,2.5999,2.3719,2.2632,0.0,0.0,0.0,0.0,0.0,0.0,0.0,0.0,0.0,0.0,0.0,0.0,0.0,0.0,0.0,3.1401,3.3269,3.4794,3.5648,3.5756,3.5813,3.6044,3.6187,3.6453,3.687,3.7366,3.7753,3.8021,3.8768,3.9195,3.9195,3.9569,3.9822,3.9904,3.9904,3.9726,3.9342,3.9342,3.913,3.8688,3.8688,0.0,3.9342,3.9278,3.9311,3.9384,3.8931,3.8551,3.8224,3.7855,3.7694,3.7623,3.6989,3.6574,3.6321,3.6321,3.6321,3.6276,3.5832,3.5666,3.5599,3.514,3.4777,3.4475,3.4475,3.421,0.0,3.4042,3.4018,3.3994,3.4082,3.4043,3.3997,3.3997,3.3997,3.3997,3.3997,3.4302,3.4564,3.4564,3.4955,3.5259,3.5259,3.4783,3.4382,3.4382,3.4446,3.4382,3.4027,3.3996,3.3998,3.3979,3.3601,3.339,3.3431,3.2362,3.1574,3.1267,2.9975,2.8869,2.8136,2.7978,2.809,2.8473,2.8363,2.8475,2.8807,2.8673,2.845,2.8154,2.6351,2.5309,0.0,0.0,0.0,0.0,0.0,0.0,0.0,0.0,0.0,0.0,0.0,2.6225,2.7606,0.0,3.1653,3.3194,3.4635,3.579,3.6489,3.6908,3.709,3.687,3.6838,3.7044,3.7607,3.8155,3.86,3.8933,3.9595,3.9997,3.9997,4.0186,4.0368,4.0526,4.0566,4.0507,4.0418,4.0418,4.0258,3.9995,3.9995,4.0139,4.0402,4.0222,4.0184,4.0238,3.9846,3.9385,3.8919,3.8413,3.8203,3.8187,3.7988,3.7591,3.7153,3.7153,3.7153,3.7092,3.6652,3.6499,3.6422,3.6024,3.5628,3.5303,3.5303,3.4915,3.4499,3.4743,3.4685,3.459,3.4831,3.4897,3.4897,3.4897,3.4897,3.4897,3.4897,3.5072,3.5246,3.5246,3.5443,3.5595,3.5595,3.5504,3.5328,3.5092,3.5264,3.5264,3.4911,3.4912,3.4899,3.4711,3.4249,3.3956,3.3991,3.2764,3.1785,3.1269,3.0187,2.9375,2.9026,2.8835,2.8915,2.9298,2.9298,2.9472,2.9806,2.9997,3.0002,2.9839,2.9344,2.8491,0.0,0.0,0.0,0.0,0.0,0.0,0.0,2.3836,2.4982,2.571,2.7325,2.8891,2.9899,3.1589,3.3254,3.4604,3.5589,3.647,3.7244,3.7618,3.7743,3.7508,3.7472,3.7697,3.8311,3.8984,3.9504,3.9775,4.0351,4.0707,4.0707,4.075,4.0917,4.1169,4.1186,4.1271,4.1449,4.1449,4.1401,4.128,4.128,4.1353,4.1449,4.1175,4.1064,4.1076,4.0639,4.0074,3.9477,3.9035,3.8782,3.8688,3.8688,3.8377,3.79,3.79,3.7853,3.7757,3.7432,3.7267,3.7171,3.6908,3.6517,3.6139,3.6139,3.5635,3.5148,3.5527,3.545,3.5319,3.5692,3.5754,3.5707,3.5707,3.5643,3.5595,3.5595,3.5595,3.5595,3.5595,3.5595,3.5617,3.5704,3.6047,3.6177,3.5791,3.6139,3.6291,3.5896,3.5876,3.5787,3.5469,3.4896,3.4502,3.4419,3.3207,3.2157,3.1465,3.0747,3.0314,3.0216,2.989,2.987,3.0201,3.0217,3.0375,3.0709,3.1033,3.1176,3.1192,3.1744,3.1155,2.1111,2.1822,2.2712,2.3424,2.4361,2.5391,0.0,2.7451,2.8513,2.9493,3.0636,3.167,3.2455,3.3524,3.4636,3.5748,3.6273,3.6955,3.8085,3.83,3.846,3.8831,3.8826,3.8822,3.8903,4.0037,4.0792,4.0825,4.1615,4.2086,4.2086,4.2362,4.2526,4.2577,4.2577,4.2402,4.2003,4.2003,4.1763,4.128,4.128,4.1546,4.2003,4.1953,4.2031,4.2072,4.1275,4.0396,3.95,3.9453,3.913,3.8688,3.8688,3.864,3.86,3.86,3.8386,3.8131,3.81,3.7877,3.763,3.7583,3.7314,3.6976,3.6976,3.6693,3.6408,3.6453,3.6444,3.6412,3.6457,3.6273,3.605,3.605,3.5834,3.5595,3.5595,3.5595,3.5595,3.5595,3.5595,3.5726,3.6139,3.6286,3.6286,3.6242,3.6616,3.6771,3.6382,3.6066,3.5912,3.5922,3.552,3.5151,3.4855,3.4339,3.3726,3.3,3.2526,3.2116,3.1774,3.1363,3.1315,3.1661,3.1661,3.1836,3.2173,3.2221,3.2237,3.2237,3.2316,3.187,2.3087,2.4053,2.5071,2.5961,2.6994,2.8025,2.9109,2.9997,3.0858,3.17,3.2539,3.3286,3.3783,3.4592,3.5548,3.6684,3.7174,3.7723,3.8683,3.8804,3.8873,3.9079,3.9508,3.9776,3.971,4.0484,4.1174,4.1612,4.2226,4.2597,4.2597,4.2727,4.2813,4.2813,4.2813,4.2717,4.2508,4.2525,4.2388,4.2172,4.2172,4.2292,4.2525,4.2525,4.2536,4.2556,4.1927,4.1407,4.1002,4.0691,4.0428,4.0196,4.0196,4.0196,4.0099,3.9084,3.8608,3.8481,3.8481,3.8386,3.825,3.8036,3.7877,3.7695,3.7512,3.7194,3.6885,3.6885,3.6749,3.659,3.659,3.6495,3.64,3.64,3.6273,3.6177,3.6177,3.6177,3.6177,3.6177,3.6177,3.6268,3.6544,3.6818,3.7014,3.7044,3.7227,3.7289,3.7118,3.7039,3.6836,3.6409,3.6018,3.5664,3.5273,3.4866,3.4412,3.3867,3.3463,3.3064,3.2647,3.2472,3.2337,3.2185,3.2185,3.2249,3.2392,3.2638,3.275,3.275,3.2936,3.2871,2.5039,2.6104,2.7186,2.8313,2.9314,3.0299,3.1366,3.2062,3.2686,3.3437,3.4001,3.4464,3.4927,3.5498,3.6248,3.7383,3.7807,3.8322,3.9209,3.9308,3.9377,3.9514,4.0068,4.0463,4.0461,4.0999,4.1616,4.2241,4.2621,4.2813,4.2813,4.2899,4.2967,4.2967,4.307,4.3121,4.3121,4.3018,4.2967,4.2967,4.2864,4.2813,4.2813,4.2813,4.2813,4.2789,4.2436,4.222,4.2076,4.1666,4.1425,4.128,4.128,4.128,4.1158,3.9875,3.9259,3.9037,3.8894,3.8783,3.8656,3.8417,3.8274,3.8147,3.7916,3.756,3.7274,3.7274,3.7099,3.6892,3.6892,3.6813,3.6749,3.6749,3.667,3.659,3.659,3.659,3.6635,3.6786,3.6808,3.6897,3.7139,3.7469,3.7725,3.7773,3.7787,3.7787,3.7787,3.7683,3.7368,3.6676,3.6303,3.5977,3.5686,3.5409,3.5111,3.4818,3.4408,3.4034,3.3752,3.3633,3.3354,3.2878,3.2858,3.2798,3.2698,3.2988,3.3135,3.3151,3.3481,3.3635,2.6835,2.7901,2.9063,3.0463,3.1319,3.209,3.3195,3.3683,3.4152,3.4966,3.5152,3.5408,3.6208,3.6359,3.6738,3.7804,3.7991,3.8434,3.9704,3.9873,4.0032,4.0493,4.0578,4.0755,4.1126,4.1827,4.2409,4.2755,4.2789,4.2813,4.2813,4.3179,4.3392,4.3392,4.3751,4.3957,4.3957,4.358,4.3392,4.3392,4.2984,4.2813,4.2813,4.2813,4.2813,4.2813,4.2789,4.2508,4.21,4.2076,4.1763,4.128,4.128,4.128,4.128,4.1239,4.0696,3.9899,3.938,3.8974,3.8688,3.8672,3.8465,3.8195,3.8195,3.7964,3.7678,3.7678,3.7678,3.7662,3.7662,3.7385,3.7092,3.7092,3.6845,3.659,3.659,3.659,3.6763,3.7271,3.7322,3.7476,3.8056,3.8164,3.8204,3.8284,3.828,3.828,3.828,3.7668,3.7052,3.6642,3.6303,3.6117,3.608,3.608,3.6043,3.6043,3.5602,3.5339,3.5339,3.4953,3.4527,3.4058,3.4058,3.3854,3.3481,3.3481,3.3481,3.3497,3.3826,3.398,2.8313,2.9554,3.081,3.199,3.3038,3.3979,3.4796,3.5124,3.5392,3.59,3.5769,3.5679,3.5958,3.6465,3.7065,3.7645,3.8448,3.922,3.9863,4.0198,4.0425,4.0583,4.0606,4.0863,4.1457,4.1748,4.2056,4.245,4.2659,4.2916,4.3179,4.3655,4.3893,4.381,4.4266,4.436,4.3991,4.3871,4.3803,4.3786,4.3385,4.3077,4.2813,4.2813,4.2813,4.2813,4.2813,4.2717,4.2556,4.2556,4.246,4.2309,4.2309,4.2309,4.2261,4.1955,4.1631,4.1267,4.0359,3.9989,3.9796,3.9212,3.8815,3.8481,3.8274,3.798,3.7694,3.7694,3.7694,3.7763,3.8086,3.8074,3.803,3.835,3.8344,3.8246,3.8246,3.8246,3.8292,3.849,3.8512,3.8601,3.8887,3.8707,3.8469,3.8318,3.8302,3.8302,3.8302,3.7895,3.7539,3.7402,3.6816,3.6419,3.6419,3.6234,3.6097,3.6097,3.5956,3.5716,3.5413,3.5271,3.5007,3.4559,3.4559,3.4335,3.3906,3.4168,3.4152,3.3842,3.4191,3.4334,3.0181,3.1456,3.2698,3.3783,3.4684,3.5425,3.5856,3.5909,3.5931,3.6194,3.5734,3.5389,3.5841,3.6244,3.6789,3.7551,3.8573,3.9453,3.9945,4.0464,4.0812,4.0812,4.0932,4.1166,4.1645,4.1834,4.2073,4.2443,4.2988,4.3417,4.3658,4.4445,4.4853,4.4747,4.5206,4.5301,4.4955,4.4816,4.4677,4.4563,4.397,4.3555,4.329,4.2936,4.2813,4.2813,4.2813,4.2813,4.2813,4.2813,4.2813,4.2813,4.2813,4.2813,4.2765,4.246,4.234,4.2196,4.1159,4.078,4.0699,4.0134,3.9588,3.9116,3.8764,3.8295,3.7876,3.7933,3.7947,3.8063,3.8523,3.866,3.8729,3.9034,3.9102,3.9102,3.9102,3.9102,3.9171,3.9354,3.9377,3.942,3.9526,3.9243,3.8874,3.8567,3.8524,3.8456,3.8319,3.8019,3.78,3.78,3.721,3.6813,3.6813,3.6491,3.6285,3.6285,3.6166,3.5976,3.5656,3.5754,3.5638,3.5247,3.538,3.5221,3.4731,3.4996,3.4881,3.4442,3.4773,3.4848,3.2383,3.3574,3.4629,3.5667,3.6175,3.6422,3.6406,3.6092,3.5804,3.5909,3.5033,3.4595,3.5763,3.5686,3.596,3.7475,3.8375,3.9157,3.991,4.0686,4.1229,4.1269,4.1537,4.176,0.0,4.2184,4.2555,4.2902,4.3727,4.4226,4.4285,4.5456,4.6151,4.6144,4.6516,4.6729,4.6686,4.6314,4.5973,4.5614,4.4726,4.4309,4.425,4.3307,4.2888,4.2888,4.2864,4.2864,4.2864,4.2864,4.2847,4.2847,4.2847,4.283,4.2813,4.2813,4.2813,4.2669,4.1724,4.1369,4.1328,4.1321,4.0737,3.997,3.9654,3.8944,3.8288,3.8422,3.844,3.8539,3.9011,3.9148,3.9148,3.9171,3.9194,3.9194,3.9194,3.9194,3.9331,3.9827,3.9941,3.9937,3.9992,3.9744,3.939,3.8986,3.8918,3.8781,3.8353,3.8015,3.7835,3.7835,3.7467,3.7224,3.7224,3.6864,3.6625,3.6625,3.6337,3.6148,3.6148,3.6453,3.644,3.6067,3.6441,3.6397,3.5957,3.5952,3.5721,3.5259,3.561,3.5516,3.3657,3.4679,3.5634,3.6137,3.6607,3.684,3.6556,3.6016,3.5434,3.4907,3.4146,3.3638,3.3957,3.4627,3.5432,3.6391,3.7861,3.9157,3.991,4.0686,4.143,4.2093,0.0,4.2679,4.3615,4.3797,4.4155,4.483,4.4458,4.4622,4.5551,4.6297,4.6646,4.6552,4.7032,4.7104,4.6686,4.6598,4.6357,4.5973,4.5737,4.5494,4.5235,4.4588,4.4286,4.4261,4.3871,4.3676,4.3676,4.3676,4.3529,4.3248,4.3248,4.3052,4.2813,4.2813,4.2813,4.2799,4.2855,4.2432,4.1835,4.1425,4.0985,4.0576,4.0494,3.986,3.9196,3.9328,3.9075,3.8917,3.9528,3.969,3.9781,4.0129,4.022,4.022,4.022,4.022,4.0266,4.0379,4.0425,4.0345,4.0059,3.9928,3.9739,3.9407,3.9355,3.9077,3.8387,3.8216,3.8165,3.8165,3.7865,3.7642,3.7642,3.7279,3.7056,3.7056,3.697,3.6919,3.6919,3.6984,3.6994,3.689,3.6992,3.6835,3.6417,3.6681,3.6561,3.6095,3.6482,3.6557,3.5379,3.6132,3.6787,3.6967,3.7069,3.695,3.6238,3.5268,3.4335,3.3563,3.2535,3.1954,3.2469,3.3205,3.4196,3.56,3.7279,3.8872,4.0171,4.1183,4.2163,4.3216,4.3474,0.0,4.4838,4.4933,4.5349,4.636,4.5947,4.5945,4.6686,4.7566,4.8023,4.7914,4.8209,4.8234,4.7932,4.7752,4.7554,4.732,4.6713,4.6346,4.6138,4.5465,4.5004,4.4777,4.4482,4.4212,4.3991,4.3991,4.3769,4.3409,4.3409,4.3162,4.2813,4.2813,4.2916,4.3111,4.3316,4.3078,4.2601,4.2328,4.1835,4.1333,4.119,4.0651,4.0096,4.0227,3.9942,3.9713,4.0313,4.0469,4.0537,4.0795,4.0983,4.1029,4.0897,4.0863,4.0812,4.064,4.0606,4.0538,4.031,4.0253,4.0155,3.9762,3.9888,3.9745,3.8985,3.8688,3.8507,3.8319,3.8135,3.8015,3.8015,3.7693,3.745,3.745,3.7296,3.7189,3.7189,3.7364,3.745,3.745,3.7621,3.758,3.7348,3.753,3.7397,3.6927,3.7336,3.738,3.7107,3.7574,3.7869,3.7817,3.7436,3.6748,3.5566,3.4076,3.2742,3.185,3.06,2.9984,3.1046,3.1662,3.2757,3.5001,3.6775,3.8584,4.0593,4.1922,4.3146,4.4418,4.494,4.5355,4.5827,4.594,4.6451,4.7609,4.7797,4.7815,4.7779,4.8859,4.9496,4.9496,4.9496,4.9496,4.9496,4.9141,4.8939,4.8884,4.7724,4.7139,4.7067,4.6234,4.5585,4.5154,4.5007,4.4687,4.4244,4.417,4.3888,4.3477,4.3477,4.3196,4.2813,4.2813,4.3001,4.334,4.3392,4.3375,4.334,4.3392,4.2862,4.2128,4.1856,4.1374,4.0998,4.1127,4.0884,4.0661,4.1136,4.1274,4.1274,4.1274,4.1497,4.1611,4.1326,4.1223,4.1069,4.0692,4.0606,4.0606,4.0606,4.0652,4.0571,4.0223,4.0574,4.0612,3.9866,3.9374,3.8942,3.8525,3.8473,3.8473,3.8473,3.8223,3.8055,3.8055,3.7661,3.7448,3.7448,3.7715,3.7886,3.7886,3.8152,3.8302,3.8302,3.8302,3.8121,3.7785,3.8143,3.8083,3.7659,3.7946,3.8152,3.7865,3.7042,3.5909,3.4434,3.2705,3.1011,2.9641,2.8888,2.8664,2.9178,3.06,3.2314,3.4265,3.6716,3.9052,4.1009,4.2612,4.4033,4.5317,4.5832,4.6422,4.7259,4.7637,4.8044,4.8612,4.9271,4.9508,4.9186,4.9372,4.9496,4.9496,4.9496,4.9496,4.9496,4.9441,4.9239,4.8884,4.8663,4.8375,4.8027,4.7428,4.7113,4.6989,4.6092,4.5668,4.5543,4.5092,4.4522,4.3888,4.3888,4.3436,4.2813,4.2813,4.2847,4.295,4.3282,4.3179,4.295,4.3282,4.308,4.2676,4.2608,4.2255,4.1907,4.2036,4.1693,4.1363,4.1557,4.1611,4.1611,4.1611,4.1662,4.1679,4.1628,4.1394,4.1069,4.0692,4.0606,4.0606,4.0606,4.0924,4.115,4.1103,4.1451,4.1506,4.0767,4.0296,3.9899,3.9508,3.9455,3.9455,3.9455,3.9402,3.937,3.937,3.8953,3.8684,3.8684,3.8374,3.8199,3.8199,3.8267,3.8302,3.8302,3.8302,3.843,3.8689,3.8758,3.8835,3.8049,3.8049,3.7895,3.7313,3.6203,3.4813,3.327,3.1319,2.9539,2.8408,2.7552,2.7313,2.8289,2.9538,3.1235,3.3724,3.6105,3.8453,4.0841,4.2585,4.4232,4.5919,4.6452,4.7065,4.7913,4.8377,4.8689,4.8891,4.9434,4.9782,4.9801,5.0002,5.0112,5.0112,5.0112,5.0112,5.0112,4.9716,4.9404,4.9221,4.8781,4.8487,4.8286,4.8013,4.7758,4.7478,4.6661,4.616,4.5842,4.5099,4.4488,4.3974,4.3769,4.3316,4.2813,4.2813,4.2933,4.3145,4.3316,4.3265,4.3145,4.3358,4.3128,4.2813,4.2813,4.2645,4.2474,4.2543,4.226,4.1937,4.2009,4.2005,4.2005,4.2005,4.2005,4.1953,4.1748,4.1446,4.1069,4.0692,4.0788,4.0946,4.0946,4.1353,4.1647,4.1647,4.2097,4.2125,4.1334,4.1286,4.0923,3.9823,3.9689,3.9689,3.9689,3.9689,3.9689,3.9689,3.9494,3.9259,3.9003,3.879,3.8554,3.8302,3.8302,3.8302,3.8302,3.8302,3.8507,3.8901,3.9111,3.9355,3.8285,3.8049,3.7612,3.6796,3.5429,3.3854,3.2225,3.0138,2.8289,2.7432,2.6476,2.6219,2.7569,2.858,3.0135,3.3045,3.5307,3.7629,4.0354,4.2353,4.4206,4.6025,4.6819,4.7479,4.8127,4.8616,4.8884,4.8884,4.9276,4.9643,4.9947,5.0259,5.0442,5.0442,5.0442,5.0442,5.0442,4.9826,4.9459,4.9368,4.8726,4.8377,4.8311,4.8311,4.8063,4.7634,4.6986,4.6461,4.5992,4.5029,4.4385,4.3957,4.3649,4.3231,4.2813,4.2813,4.3001,4.3265,4.3265,4.3265,4.3265,4.3265,4.3077,4.2813,4.2813,4.2813,4.2813,4.2813,4.2615,4.2416,4.2416,4.2416,4.2416,4.2416,4.2416,4.2313,4.1919,4.1542,4.1212,4.0949,4.1106,4.1325,4.1438,4.1849,4.2164,4.2164,4.2613,4.2655,4.1793,4.2032,4.17,4.016,3.9986,3.9986,3.9986,3.9986,3.9986,3.9986,3.9901,3.9685,3.9323,3.911,3.8833,3.8469,3.8345,3.8302,3.8302,3.8302,3.8541,3.9042,3.9355,3.9732,3.8216,3.8049,3.7612,3.6796,3.5221,3.3371,3.1524,2.9334,2.7398,2.629,2.5737,2.5683,2.6505,2.7859,2.9601,3.1896,3.457,3.7191,3.9568,4.2276,4.4371,4.5297,4.6727,4.7662,4.7736,4.8451,4.8884,4.8884,4.9276,4.9514,4.9551,4.9588,4.9606,4.9606,4.9606,4.9606,4.9606,4.9533,4.9313,4.8939,4.8891,4.8653,4.8311,4.8311,4.8261,4.8162,4.7136,4.6661,4.6536,4.5473,4.4642,4.3991,4.3957,4.347,4.2813,4.2813,4.283,4.2864,4.2864,4.2864,4.2864,4.2864,4.2847,4.2813,4.2813,4.2813,4.2813,4.2813,4.2779,4.2762,4.2762,4.2762,4.2762,4.2762,4.2762,4.2659,4.2313,4.1919,4.1682,4.1763,4.1507,4.1438,4.1849,4.2389,4.2725,4.2725,4.3124,4.3121,4.2337,4.2271,4.1959,4.1068,4.0976,4.0976,4.0976,4.0976,4.0976,4.0976,4.0575,4.0318,4.0258,3.9451,3.8982,3.8939,3.8533,3.8302,3.8302,3.8302,3.8678,3.9463,3.9475,3.9869,3.7532,3.721,3.6597,3.5823,3.4194,3.2345,3.0703,2.8751,2.7039,2.6102,2.5449,2.5326,2.6317,2.7191,2.8665,3.1366,3.3535,3.5809,3.8357,4.0992,4.3114,4.4416,4.6017,4.7173,4.7644,4.8432,4.8884,4.8884,4.8818,4.8763,4.8763,4.9239,4.9496,4.9496,4.9496,4.9496,4.9496,4.9258,4.9074,4.8909,4.8653,4.8451,4.8311,4.8311,4.8311,4.8236,4.7161,4.6686,4.6594,4.5273,4.4566,4.4275,4.4077,4.3666,4.3162,4.3162,4.3001,4.2813,4.2813,4.2813,4.2813,4.2813,4.2813,4.2813,4.2813,4.2813,4.2813,4.2813,4.2813,4.2813,4.2813,4.2813,4.2813,4.2813,4.2813,4.271,4.2364,4.2394,4.2382,4.1982,4.2263,4.2557,4.2492,4.29,4.3213,4.3213,4.3369,4.3302,4.2733,4.2439,4.2072,4.1522,4.1228,4.1102,4.1102,4.1102,4.1102,4.1102,4.0913,4.0681,4.0424,3.977,3.9407,3.9356,3.8899,3.8764,3.9008,3.9008,3.9282,3.9813,3.9813,4.0087,3.6556,3.6251,3.5583,3.483,3.3202,3.1388,2.9915,2.8202,2.6677,2.576,2.5161,2.5055,2.5857,2.6505,2.7812,3.0486,3.2451,3.4539,3.7114,3.9703,4.1944,4.3558,4.5173,4.6512,4.7424,4.8249,4.8726,4.8726,4.8451,4.8311,4.8311,4.8836,4.9148,4.9148,4.9148,4.9148,4.9148,4.8854,4.8781,4.8909,4.8616,4.8524,4.8634,4.8524,4.8469,4.8419,4.7214,4.6686,4.6594,4.5239,4.46,4.448,4.4248,4.3923,4.3563,4.3443,4.3214,4.295,4.2847,4.2813,4.2813,4.2813,4.2813,4.2813,4.2813,4.2813,4.2813,4.2813,4.2813,4.2813,4.2813,4.2813,4.2813,4.2813,4.2813,4.2775,4.2709,4.2861,4.293,4.2707,4.3067,4.3339,4.3207,4.3371,4.3499,4.3499,4.3499,4.3334,4.2935,4.2641,4.2329,4.1925,4.1522,4.1231,4.1121,4.1102,4.1102,4.1102,4.1213,4.1117,4.0817,4.0311,4.0017,3.9996,3.9382,3.9236,3.9515,3.9515,3.9659,3.9991,3.9991,4.0219,3.5326,3.5258,3.4815,3.4004,3.2396,3.0635,2.9144,2.7619,2.6182,2.5055,2.4816,2.4802,2.4816,2.5754,2.7122,2.9028,3.1293,3.3624,3.5906,3.8714,4.1121,4.2714,4.4325,4.5792,4.7002,4.7827,4.8311,4.8311,4.8311,4.8311,4.8311,4.8311,4.8311,4.8311,4.8311,4.8311,4.8311,4.8311,4.8506,4.8884,4.8909,4.9111,4.9478,4.9093,4.8884,4.8816,4.734,4.6686,4.6611,4.5532,4.4856,4.4497,4.4497,4.4275,4.394,4.3546,4.3409,4.334,4.2933,4.2813,4.2813,4.2813,4.2813,4.2813,4.2813,4.2813,4.2813,4.2813,4.2813,4.2813,4.2813,4.2813,4.2813,4.2813,4.2813,4.2933,4.3466,4.3271,4.3275,4.4277,4.3879,4.3543,4.4018,4.3756,4.3499,4.3499,4.3499,4.3334,4.2935,4.2901,4.2733,4.2329,4.1944,4.154,4.1139,4.1102,4.1102,4.1102,4.1467,4.1684,4.1684,4.1164,4.0881,4.0881,3.996,3.9497,3.9515,3.9515,3.9659,3.9991,3.9991,4.0219,3.3393,3.3306,3.2894,3.2415,3.1251,2.9915,2.8665,2.7413,2.618,2.5038,2.4799,2.4799,2.4799,2.5517,2.6707,2.8649,3.0666,3.2785,3.512,3.8137,4.068,4.2292,4.4875,4.6892,4.7827,4.8139,4.8311,4.8311,4.8311,4.8311,4.8311,4.8311,4.8311,4.8311,4.8311,4.8311,4.8311,4.8311,4.8487,4.8884,4.8884,4.9129,4.9478,4.9067,4.8884,4.8816,4.734,4.6686,4.6611,4.5532,4.501,4.4908,4.4908,4.4668,4.4334,4.4189,4.3813,4.3392,4.3248,4.3018,4.2813,4.2813,4.2813,4.2813,4.2813,4.2813,4.2813,4.2813,4.2813,4.2813,4.2813,4.3077,4.3364,4.3364,4.3626,4.3936,4.4127,4.4305,4.4458,4.4489,4.4608,4.4659,4.4526,4.4402,4.4237,4.3962,4.3925,4.3756,4.3375,4.3063,4.2843,4.2714,4.2347,4.1944,4.154,4.1503,4.1503,4.1503,4.1889,4.2109,4.2109,4.1329,4.1001,4.1245,4.0314,3.9984,4.0246,4.0246,4.0315,4.0412,4.0412,4.0481,3.1286,3.1456,3.1182,3.0806,3.0001,2.8956,2.7825,2.6884,2.5945,2.4816,2.4682,2.4826,2.4965,2.5599,2.6761,2.8849,3.0649,3.2655,3.5157,3.788,4.0513,4.2916,4.5498,4.7351,4.7992,4.8219,4.8385,4.8583,4.8607,4.8607,4.8607,4.8607,4.8509,4.8311,4.8311,4.8311,4.8311,4.8311,4.8487,4.8884,4.9056,4.9258,4.9496,4.9239,4.9056,4.8841,4.754,4.6904,0.0,4.5759,4.5281,4.5104,4.5104,4.4967,4.4702,4.4548,4.4206,4.3786,4.3512,4.3231,4.3001,4.2847,4.2813,4.2813,4.2813,4.2813,4.2813,4.2813,4.2957,4.31,4.31,4.3507,4.3912,4.3912,4.4174,4.4459,4.4631,4.4892,4.5104,4.5057,4.5197,4.5223,4.4971,4.4806,4.4604,4.4366,4.4329,4.4182,4.3797,4.3503,4.3283,4.3136,4.2769,4.2421,4.2182,4.2017,4.1944,4.1944,4.2311,4.2531,4.2531,4.1738,4.1404,4.163,4.069,4.0361,4.0606,4.0606,4.0606,4.0606,4.0606,4.0606,0.0,2.9693,2.9658,2.9316,2.8665,2.7842,2.6745,0.0,0.0,2.447,2.4586,2.4972,2.5283,2.5989,2.7226,2.9408,3.111,3.3127,3.5778,3.8069,4.0804,4.4366,4.6158,4.7277,4.7699,4.8066,4.8509,4.907,4.912,4.912,4.912,4.912,4.8854,4.8311,4.8311,4.8311,4.8311,4.8311,4.8487,4.8884,4.9276,4.9478,4.9496,4.9478,4.9258,4.8841,4.7915,4.7204,4.6661,4.611,4.5583,4.5104,4.5104,4.5104,4.5045,4.4668,4.4522,4.441,4.3732,4.3482,4.3403,4.3036,4.2909,4.2909,4.2909,4.2861,4.2813,4.2861,4.322,4.3602,4.365,4.4055,4.4459,4.4459,4.4483,4.4631,4.5058,4.5152,4.5294,4.5789,4.559,4.5352,4.5352,4.5045,4.4769,4.4751,4.4733,4.4604,4.4201,4.4146,4.4017,4.3628,4.3228,4.2993,4.2993,4.2586,4.2347,4.2347,4.2714,4.2935,4.2935,4.2349,4.2007,4.2007,4.1082,4.0606,4.0606,4.0606,4.0606,4.0606,4.0606,4.0606,2.7002,0.0,2.8203,2.8408,2.791,2.7223,0.0,0.0,0.0,0.0,0.0,2.5632,2.5612,2.6742,2.8058,2.9155,3.1413,3.3673,3.5556,3.9394,4.2916,4.5338,4.6489,4.7387,4.8084,4.8231,4.8509,4.907,4.912,4.912,4.912,4.912,4.8854,4.8311,4.8311,4.8311,4.8311,4.8311,4.8487,4.8884,4.9001,4.9203,4.9496,4.9184,4.9001,4.8841,4.7915,4.7204,4.6661,4.611,4.5583,4.5104,4.5104,4.5104,4.5104,4.4976,4.4832,4.4618,4.4445,4.4285,4.4137,4.4049,4.4031,4.4031,4.4031,4.3459,4.2885,4.3316,4.3507,4.3698,4.4103,4.456,4.4939,4.4939,4.5247,4.5577,4.5695,4.5719,4.5742,4.5883,4.581,4.5755,4.5755,4.5687,4.5498,4.5205,4.515,4.5003,4.4604,4.4549,4.4531,4.4421,4.4054,4.3815,4.3815,4.3155,4.2773,4.2773,4.3136,4.3375,4.3375,4.2488,4.2007,4.2007,4.1082,4.0606,4.0606,4.0606,4.0606,4.0606,4.0606,4.0606,2.6014,2.6662,2.7193,2.7602,2.7412,2.703,2.6801,0.0,0.0,0.0,0.0,2.6749,2.7182,2.8304,2.9567,3.0831,3.291,3.5248,3.7835,4.1211,4.3999,4.5443,4.6507,4.7351,4.7956,4.82,4.8607,4.9415,4.9465,4.9465,4.9465,4.9465,4.912,4.8311,4.8127,4.8102,4.8311,4.8311,4.8396,4.8634,4.8818,4.8928,4.8946,4.8928,4.8799,4.8591,4.8098,4.741,4.6661,4.6386,4.5809,4.5104,4.5104,4.5104,4.5112,4.5167,4.5096,4.4968,4.4822,4.4603,4.4412,4.4412,4.4412,4.4412,4.4412,4.4008,4.3602,4.3888,4.4109,4.4347,4.4655,4.5081,4.5459,4.5459,4.5695,4.5883,4.5883,4.5883,4.5883,4.5883,4.5883,4.5883,4.5883,4.5883,4.5834,4.5608,4.5572,4.5425,4.5045,4.499,4.4916,4.4714,4.4494,4.4311,4.4127,4.3705,4.3375,4.3191,4.3371,4.3499,4.3499,4.2524,4.1804,4.1376,4.0856,4.0606,4.0606,4.0606,4.0606,4.0606,4.0606,4.0606,2.5708,2.6185,2.6608,2.7054,2.7137,2.711,2.7148,0.0,0.0,0.0,0.0,0.0,2.9178,3.0173,3.1411,3.3197,3.5046,3.7448,4.0901,4.2953,4.4421,4.5278,4.6397,4.7259,4.7662,4.8146,4.883,4.9833,4.998,5.0029,5.0029,4.9931,4.9421,4.8367,4.7913,4.7827,4.8102,4.8127,4.8164,4.8219,4.8561,4.8579,4.8311,4.8653,4.8616,4.8311,4.8311,4.769,4.6686,4.6686,4.606,4.5104,4.5128,4.5119,4.516,4.527,4.5343,4.5333,4.5122,4.4875,4.4626,4.4626,4.4626,4.4626,4.4626,4.4626,4.4626,4.4626,4.4845,4.5129,4.52,4.5554,4.5883,4.5883,4.5883,4.5883,4.5883,4.5883,4.5883,4.5883,4.5883,4.5883,4.5883,4.5883,4.5883,4.5883,4.5883,4.5797,4.5443,4.5388,4.526,4.4916,4.4824,4.4623,4.4237,4.4146,4.3944,4.3518,4.3499,4.3432,4.328,4.2434,4.1556,4.0629,4.0606,4.0606,4.0606,4.0606,4.0606,4.0606,4.0606,4.064,2.5708,2.6185,2.666,2.7347,2.7311,2.7247,2.7811,0.0,0.0,0.0,0.0,0.0,0.0,3.1754,3.3198,3.4515,3.7265,4.0019,4.2292,4.3467,4.4531,4.5663,4.658,4.7259,4.7662,4.8466,4.9243,4.9833,5.0323,5.0592,5.0592,5.0152,4.9461,4.8494,4.798,4.7571,4.7295,4.7295,4.7461,4.7791,4.7846,4.8029,4.8311,4.8359,4.8366,4.8311,4.8311,4.769,4.6686,4.6686,4.606,4.5112,4.5219,4.5255,4.5295,4.5428,4.5538,4.5646,4.5737,4.5703,4.5671,4.5671,4.5671,4.5671,4.5671,4.5671,4.5671,4.5671,4.5388,4.52,4.5648,4.5836,4.5883,4.5883,4.5883,4.5883,4.5883,4.5883,4.5883,4.5883,4.5883,4.5883,4.5883,4.5883,4.5883,4.5883,4.5883,4.5865,4.581,4.5792,4.5773,4.57,4.5407,4.5063,4.4641,4.4292,4.3944,4.3518,4.3499,4.3124,4.2254,4.2074,4.1556,4.0629,4.0606,4.0606,4.0606,4.0606,4.0606,4.0606,4.0606,4.0778,2.5708,2.6185,2.678,2.7962,2.8133,2.8188,2.8862,0.0,0.0,0.0,0.0,0.0,0.0,3.3873,3.5504,3.7631,3.9779,4.1672,4.3026,4.4086,4.4948,4.5498,4.6311,4.6929,4.7332,4.8225,4.9073,4.9839,5.0397,5.0695,5.0695,4.9972,4.9246,4.8523,4.7568,4.6947,4.6788,4.6562,4.6764,4.7387,4.7589,4.7791,4.7974,4.8219,4.8311,4.8311,4.8311,4.769,4.6711,4.7011,4.6486,4.5548,4.5673,4.5738,4.5717,4.5629,4.5694,4.5814,4.5886,4.5883,4.5883,4.5883,4.5883,4.5883,4.5883,4.5883,4.5883,4.5883,4.5719,4.5577,4.5836,4.5883,4.5883,4.5883,4.5883,4.5957,4.6182,4.603,4.5957,4.6182,4.6054,4.5883,4.5883,4.5883,4.5883,4.5883,4.5883,4.5883,4.5883,4.5883,4.5883,4.5883,4.5737,4.5462,4.5063,4.4659,4.4164,4.3536,4.3499,4.3057,4.2052,4.2007,4.1556,4.0629,4.0606,4.0709,4.0932,4.0932,4.1017,4.1183,4.1183,4.1286,2.5725,2.639,2.721,2.8579,0.0,2.9322,3.0248,0.0,0.0,0.0,0.0,0.0,3.477,3.6201,3.8016,4.0513,4.1852,4.2876,4.3793,4.471,4.5333,4.5425,4.6166,4.6766,4.7097,4.8158,4.9147,4.9858,5.051,5.0827,5.0731,4.9841,4.9017,4.8394,4.716,4.6457,4.6366,4.603,4.625,4.6965,4.7259,4.7516,4.7699,4.8035,4.8219,4.8311,4.8311,4.769,4.6736,4.7278,4.6879,4.5925,4.6063,4.6105,4.602,4.582,4.5809,4.5883,4.5883,4.5883,4.5883,4.5883,4.5883,4.5883,4.5883,4.5883,4.5883,4.5883,4.5883,4.5883,4.5883,4.5883,4.5902,4.6035,4.6054,4.6164,4.6544,4.6305,4.6145,4.6439,4.6182,4.5883,4.5883,4.5883,4.5883,4.5883,4.5883,4.5883,4.5883,4.5883,4.5883,4.5883,4.5883,4.5737,4.5333,4.4934,4.4439,4.3811,4.3591,4.3057,4.2052,4.2096,4.1697,4.0766,4.0829,4.0983,4.1189,4.1189,4.1292,4.144,4.144,4.1491,2.5794,2.6972,2.8271,2.9076,2.9539,0.0,3.2085,3.279,0.0,3.4555,0.0,0.0,0.0,3.8585,4.0623,4.1944,4.2879,4.3811,4.5003,4.5242,4.5443,4.581,4.6616,4.716,4.7197,4.8837,4.9934,4.9978,5.0848,5.1197,5.0811,4.9838,4.8903,4.8074,4.7031,4.6329,4.5962,4.5902,4.6127,4.6549,4.6567,4.6989,4.7699,4.7717,4.7962,4.8311,4.8311,4.769,4.6736,4.7278,4.6879,4.594,4.6172,4.612,4.5917,4.5886,4.5897,4.5883,4.5883,4.5883,4.5883,4.5883,4.5883,4.5883,4.5883,4.5883,4.5883,4.5883,4.5883,4.5883,4.5883,4.5883,4.5975,4.6366,4.6457,4.6567,4.6965,4.6727,4.6476,4.6494,4.6182,4.5883,4.5883,4.5883,4.5883,4.5883,4.5883,4.5883,4.5883,4.5883,4.5883,4.5883,4.5883,4.5737,4.5333,4.4934,4.4678,4.4623,4.3903,4.3057,4.2052,4.2379,4.2118,4.1177,4.1457,4.1474,4.1189,4.1189,4.1017,4.0692,4.0692,4.088,2.6114,2.721,2.8477,2.9693,0.0,0.0,0.0,0.0,0.0,0.0,3.6799,0.0,0.0,4.0109,4.1558,4.2513,4.3558,4.4494,4.5205,4.5517,4.5836,4.6288,4.6624,4.7046,4.7639,4.8647,4.9358,4.9608,5.026,5.0586,5.043,4.9186,4.8329,4.8007,4.6795,4.603,4.5883,4.5883,4.598,4.6145,4.6384,4.6806,4.7332,4.7589,4.7901,4.8311,4.8311,4.7882,4.7253,4.7783,4.7559,4.689,4.6815,4.6431,4.5883,4.5883,4.5883,4.5883,4.5883,4.5883,4.5883,4.5883,4.5883,4.5883,4.5883,4.5883,4.5883,4.5883,4.5883,4.5883,4.5883,4.609,4.6311,4.6457,4.6696,4.6984,4.7387,4.7149,4.6874,4.6874,4.6544,4.6201,4.5938,4.5883,4.5883,4.5883,4.5883,4.5883,4.5883,4.5883,4.5883,4.5883,4.5883,4.5737,4.5333,4.515,4.4971,4.4714,4.4421,4.3801,4.2779,4.2893,4.2503,4.1514,4.1446,4.1429,4.1491,4.1309,4.124,4.1286,4.1286,4.1377,2.6694,2.7843,2.9214,0.0,0.0,0.0,0.0,0.0,0.0,0.0,3.8777,3.9428,4.0313,4.1338,4.2347,4.3136,4.4072,4.4879,4.5407,4.5859,4.6236,4.6564,4.6892,4.7332,4.7968,4.8637,4.9132,4.9421,4.9908,5.007,4.9768,4.8632,4.7861,4.7564,4.6478,4.5883,4.5883,4.5883,4.5883,4.5902,4.6182,4.658,4.7112,4.7387,4.7791,4.8311,4.8311,4.8007,4.7534,4.8063,4.7917,4.7366,4.7168,4.6617,4.5883,4.5883,4.5883,4.5883,4.5883,4.5883,4.5883,4.5883,4.5883,4.5883,4.5883,4.5883,4.5883,4.5883,4.5975,4.6109,4.6109,4.6292,4.6567,4.6824,4.7075,4.7406,4.7791,4.7571,4.7259,4.7106,4.6788,4.6384,4.5957,4.5883,4.5883,4.5883,4.5883,4.5883,4.5883,4.5883,4.5883,4.5883,4.5883,4.5773,4.5517,4.548,4.537,4.51,4.4971,4.4382,4.3264,4.32,4.2737,4.172,4.1457,4.1429,4.1525,4.1309,4.1257,4.1354,4.1354,4.1354,2.7518,2.8974,3.0669,0.0,0.0,0.0,0.0,0.0,0.0,4.0075,4.1069,4.1702,4.1724,4.2366,4.3155,4.398,4.4439,4.4971,4.5797,4.6306,4.6611,4.6611,4.7499,4.808,4.8123,4.8951,4.9488,4.9488,4.9922,4.9768,4.8847,4.8291,4.7564,4.6611,4.6142,4.5883,4.5883,4.5883,4.5883,4.5883,4.5883,4.6324,4.7112,4.7112,4.7534,4.8311,4.8311,4.8007,4.7552,4.8088,4.7809,4.7112,4.7112,4.6599,4.5883,4.5883,4.5883,4.5883,4.5883,4.5883,4.5883,4.5883,4.5883,4.5883,4.5883,4.5883,4.5925,4.5925,4.6201,4.6512,4.6512,4.6512,4.6714,4.7497,4.7699,4.7809,4.8219,4.7974,4.7589,4.7185,4.6764,4.6384,4.598,4.5883,4.5883,4.5883,4.5883,4.5883,4.5883,4.5883,4.5883,4.5883,4.5883,4.5883,4.5883,4.5883,4.5883,4.5883,4.5517,4.4673,4.3241,4.32,4.2737,4.172,4.1697,4.1525,4.1189,4.1189,4.0983,4.0606,4.0606,4.0606,2.8202,2.9607,0.0,3.2875,0.0,0.0,0.0,3.912,0.0,0.0,4.2349,4.2457,4.2182,4.2549,4.3155,4.398,4.4439,4.4971,4.5797,4.6306,4.6752,4.7102,4.7708,4.8243,4.8636,4.8915,4.9086,4.9086,4.8854,4.8594,4.8338,4.7502,4.6887,4.6611,4.6142,4.5883,4.5883,4.5883,4.5883,4.5883,4.5883,4.6324,4.7112,4.7112,4.7534,4.8311,4.8311,4.8211,4.8044,4.7943,4.7571,4.7075,4.6782,4.6366,4.5883,4.5883,4.5883,4.5883,4.5883,4.5883,4.5883,4.5883,4.5883,4.5883,4.5883,4.6109,4.6329,4.6329,4.6599,4.6984,4.7259,4.7332,4.7387,4.7644,4.7901,4.8139,4.8274,4.8219,4.7992,4.7607,4.7204,4.6782,4.6402,4.609,4.5883,4.5883,4.5883,4.5883,4.5883,4.5883,4.5883,4.5883,4.5883,4.5883,4.5883,4.5883,4.5773,4.5498,4.5049,4.4456,4.3654,4.3342,4.2737,4.172,4.148,4.1309,4.1189,4.0915,4.0726,4.0606,4.0606,4.0606,2.9332,3.0772,0.0,3.4246,3.6008,3.786,4.0094,0.0,0.0,0.0,4.3485,4.3302,4.3063,4.321,4.3577,4.4237,4.4678,4.5219,4.605,4.6611,4.7102,4.7615,4.8103,4.8544,4.8867,4.8913,4.8821,4.8613,4.8266,4.7918,4.7522,4.6939,4.6518,4.633,4.6048,4.5883,4.5883,4.5883,4.5883,4.5883,4.5883,4.6232,4.6855,4.7039,4.7534,4.8311,4.8311,4.8219,4.8029,4.7791,4.7369,4.6837,4.6604,4.6256,4.5883,4.5883,4.5883,4.5883,4.5883,4.5883,4.5883,4.5883,4.5883,4.5944,4.6109,4.6311,4.6531,4.669,4.702,4.7387,4.7626,4.7809,4.7937,4.7937,4.8102,4.8311,4.8311,4.8311,4.8182,4.7772,4.7369,4.6965,4.6567,4.6182,4.5883,4.5883,4.5883,4.5883,4.5883,4.5883,4.5883,4.5883,4.5883,4.5883,4.5883,4.5883,4.5648,4.5059,4.4598,4.3972,4.3092,4.2817,4.2301,4.1514,4.1154,4.0966,4.0966,4.0726,4.0606,4.0606,4.0606,4.0606,3.0652,3.2176,3.3804,3.572,3.7378,3.9386,4.255,4.3289,4.3584,4.4544,4.4439,4.4146,4.4109,4.4109,4.4237,4.4623,4.5045,4.5606,4.6415,4.7032,4.7565,4.8007,4.8544,4.8871,4.8844,4.8844,4.8613,4.808,4.7987,4.7546,4.6658,4.6564,4.633,4.5907,4.5883,4.5883,4.5883,4.5883,4.5883,4.5883,4.5883,4.6127,4.6512,4.691,4.7516,4.8255,4.8255,4.8035,4.7644,4.7607,4.7173,4.6494,4.6457,4.6237,4.5883,4.5883,4.5883,4.5883,4.5883,4.5883,4.5883,4.5883,4.5883,4.598,4.6384,4.6531,4.6641,4.7039,4.7442,4.7754,4.7754,4.8035,4.8311,4.8311,4.8311,4.8311,4.8311,4.8311,4.82,4.7827,4.7406,4.6984,4.6623,4.6201,4.5883,4.5883,4.5883,4.5883,4.5883,4.5883,4.5883,4.5883,4.5883,4.5883,4.5883,4.5883,4.5512,4.4591,4.416,4.3299,4.1894,4.1854,4.1625,4.1137,4.0795,4.0606,4.0606,4.0606,4.0606,4.0606,4.0606,4.0606,3.0977,3.2552,3.4211,3.6422,3.8785,4.1114,4.3186,4.3933,4.4357,4.5014,4.4861,4.4476,4.4164,4.4109,4.4237,4.4623,4.5045,4.549,4.5969,4.6822,4.7448,4.7541,4.8358,4.8729,4.8312,4.8266,4.8057,4.7588,4.7149,4.6822,4.6611,4.6259,4.6001,4.5883,4.5883,4.5883,4.5883,4.5883,4.5883,4.5883,4.5883,4.6127,4.6512,4.691,4.7369,4.7827,4.7827,4.7607,4.7204,4.6874,4.6659,4.6476,4.6164,4.598,4.5883,4.5883,4.5883,4.5883,4.5883,4.5883,4.5883,4.5883,4.5883,4.598,4.6384,4.6709,4.7057,4.7461,4.7846,4.8182,4.8182,4.8237,4.8311,4.8311,4.8311,4.8311,4.8311,4.8311,4.8274,4.82,4.7589,4.7075,4.6984,4.6379,4.5883,4.5883,4.5883,4.5883,4.5883,4.5883,4.5883,4.5883,4.5883,4.5883,4.5883,4.5883,4.5385,4.4188,4.3646,4.2784,4.1465,4.1425,4.1221,4.0726,4.0658,4.0606,4.0606,4.0606,4.0606,4.0606,4.0606,4.0606,3.1303,3.3083,3.5052,3.784,3.9881,4.1551,4.2889,4.3515,4.4002,4.4554,4.4682,4.4568,4.4182,4.4109,4.4237,4.4623,4.5045,4.5536,4.6157,4.6892,4.7495,4.7708,4.8428,4.8705,4.815,4.808,4.7801,4.7056,4.6752,4.6425,4.6005,4.5749,4.5517,4.5338,4.5498,4.5608,4.5608,4.5792,4.5883,4.5883,4.5648,4.573,4.6154,4.679,4.7222,4.7406,4.7406,4.7185,4.6782,4.6586,4.6384,4.6201,4.5975,4.5883,4.5883,4.5883,4.5883,4.5883,4.5883,4.5883,4.5883,4.5883,4.5883,4.598,4.6384,4.6764,4.7185,4.7589,4.7974,4.8311,4.8311,4.8311,4.8311,4.8311,4.8311,4.8311,4.8311,4.8311,4.8311,4.8311,4.7644,4.7112,4.7112,4.6434,4.5883,4.5883,4.5883,4.5883,4.5883,4.5883,4.5883,4.5883,4.5883,4.5883,4.5883,4.5718,4.5049,4.3715,4.3161,4.233,4.1026,4.0946,4.0856,4.0606,4.0606,4.0606,4.0606,4.0606,4.0606,4.0606,4.0606,4.0606,3.1405,3.3665,3.6117,3.914,4.0515,4.1344,4.2296,4.287,4.3321,4.3797,4.4284,4.4494,4.4164,4.4109,4.4219,4.4531,4.493,4.5436,4.6164,4.6733,4.7197,4.7591,4.8123,4.8219,4.7684,4.7638,4.7267,4.636,4.6271,4.5955,4.5228,4.5187,4.504,4.4696,4.5003,4.5187,4.5187,4.554,4.5705,4.5682,4.5236,4.5211,4.556,4.6334,4.6764,4.6892,4.6892,4.6654,4.6292,4.6292,4.6145,4.5883,4.5883,4.5883,4.5883,4.5883,4.5883,4.5883,4.5883,4.5883,4.5883,4.5883,4.5883,4.598,4.6384,4.6727,4.7075,4.7479,4.7882,4.82,4.82,4.8255,4.8311,4.8311,4.8311,4.8311,4.8311,4.8311,4.8311,4.8311,4.7644,4.7094,4.702,4.6379,4.5883,4.5883,4.5883,4.5883,4.5883,4.5828,4.5792,4.5792,4.5792,4.5778,4.5705,4.5443,4.4678,4.3198,4.2792,4.1988,4.0669,4.0606,4.0606,4.0606,4.0606,4.0606,4.0606,4.0606,4.0606,4.0606,4.0606,4.0572,3.1046,3.4213,3.733,3.9116,4.0126,4.1017,4.2226,4.287,4.325,4.3455,4.3842,4.4164,4.4109,4.4109,4.4127,4.4182,4.4512,4.4811,4.4935,4.537,4.5691,4.5737,4.6235,4.6349,4.5805,4.5759,4.5549,4.4999,4.4953,4.4912,4.4788,4.4769,4.4751,4.4696,4.4751,4.4769,4.4769,4.4824,4.4861,4.4861,4.4792,4.4787,4.4842,4.4966,4.5412,4.6048,4.6048,4.5828,4.5462,4.5462,4.5627,4.5883,4.5883,4.5883,4.5883,4.5883,4.5883,4.5883,4.5883,4.5883,4.5883,4.5883,4.5883,4.598,4.6384,4.6549,4.6654,4.7075,4.7479,4.7772,4.7772,4.8054,4.8311,4.8311,4.8311,4.8311,4.8311,4.8311,4.8311,4.8311,4.7644,4.6984,4.6641,4.6219,4.5883,4.5883,4.5883,4.5883,4.5883,4.559,4.5388,4.5388,4.5388,4.5223,4.4898,4.5132,4.4551,4.279,4.2632,4.1988,4.0669,4.0606,4.0606,4.0606,4.0606,4.0606,4.0606,4.0606,4.0606,4.0606,4.0606,4.0412,3.1371,3.4179,3.6611,3.8156,3.927,4.0194,4.0925,4.1856,4.2554,4.2603,4.3239,4.3756,4.3756,4.3756,4.3852,4.4072,4.4256,4.4439,4.4659,4.5108,4.5386,4.5386,4.5883,4.5996,4.5454,4.5386,4.5222,4.4742,4.4696,4.4604,4.4384,4.4366,4.4256,4.4035,4.4256,4.4366,4.4366,4.4586,4.4558,4.426,4.426,4.426,4.426,4.426,4.4603,4.5228,4.5228,4.5136,4.499,4.5205,4.5407,4.5572,4.581,4.5883,4.5883,4.5883,4.5883,4.5883,4.5883,4.5883,4.5883,4.5883,4.5883,4.592,4.6127,4.6329,4.6531,4.6709,4.7204,4.7699,4.7699,4.7992,4.8311,4.8311,4.8311,4.8311,4.8311,4.8311,4.8212,4.8017,4.7497,4.6965,4.6567,4.6182,4.5883,4.5883,4.5883,4.581,4.559,4.5407,4.5205,4.5008,4.4948,4.4898,4.4714,4.4659,4.4042,4.2683,4.2402,4.1754,4.0652,4.0606,4.0606,4.0606,4.0606,4.0606,4.0606,4.0606,4.0606,4.0606,4.0606,4.0378,3.1388,3.358,3.5326,3.6957,3.8207,3.9245,3.9917,4.1002,4.1928,4.2169,4.29,4.3499,4.3499,4.3499,4.3591,4.3907,4.3962,4.4054,4.4347,4.4702,4.4906,4.4906,4.5287,4.5378,4.4952,4.4906,4.4733,4.4283,4.4329,4.4219,4.3815,4.3907,4.3793,4.3499,4.3774,4.3962,4.3962,4.4256,4.4179,4.3791,4.3791,4.3791,4.3791,4.3791,4.402,4.4402,4.4494,4.4549,4.4568,4.4856,4.5113,4.5333,4.5627,4.5792,4.5883,4.5883,4.5883,4.5883,4.5883,4.5883,4.5883,4.5883,4.5883,4.5883,4.5883,4.6109,4.6347,4.6347,4.6861,4.7406,4.7516,4.7846,4.8157,4.8292,4.8311,4.8311,4.8311,4.8311,4.8219,4.7901,4.7534,4.713,4.6709,4.6329,4.6035,4.5925,4.5883,4.5737,4.5352,4.5205,4.4985,4.4586,4.4549,4.4494,4.4402,4.4219,4.3624,4.2523,4.2167,4.1579,4.0652,4.0606,4.0606,4.0606,4.0606,4.0606,4.0606,4.0606,4.0606,4.0606,4.0481,4.0241,3.0549,3.2227,3.3856,3.572,3.7042,3.8284,3.9844,4.0869,4.1764,4.2586,4.3146,4.3499,4.3499,4.3499,4.3499,4.3518,4.3518,4.3536,4.3554,4.3577,4.3599,4.3599,4.3621,4.3621,4.3599,4.3599,4.3434,4.3008,4.3357,4.3393,4.2971,4.332,4.3518,4.3499,4.3518,4.3518,4.3518,4.3554,4.3554,4.351,4.351,4.351,4.351,4.351,4.3532,4.3573,4.398,4.4146,4.4146,4.4164,4.46,4.5297,4.5315,4.5553,4.5883,4.5883,4.5883,4.5883,4.5883,4.5883,4.5883,4.5883,4.5883,4.5883,4.5883,4.5902,4.592,4.592,4.6237,4.6659,4.7039,4.7424,4.7827,4.8219,4.8311,4.8311,4.8311,4.8311,4.8311,4.8274,4.7937,4.7534,4.7149,4.6751,4.6347,4.5957,4.5883,4.5737,4.5352,4.4971,4.4586,4.4182,4.4146,4.398,4.3591,4.3884,4.3515,4.2128,4.2025,4.1579,4.0652,4.0606,4.0606,4.0606,4.0606,4.0606,4.0606,4.0606,4.0606,4.0589,4.0201,3.9864,2.9144,3.0498,3.2007,3.4416,3.5914,3.7252,3.9085,4.0346,4.1286,4.1852,4.2582,4.3118,4.3118,4.3338,4.3499,4.3499,4.3499,4.3499,4.3499,4.3499,4.3499,4.3499,4.3499,4.3389,4.3136,4.3118,4.2953,4.2549,4.2641,4.2678,4.2513,4.2898,4.3118,4.3118,4.3375,4.3499,4.3499,4.3499,4.3499,4.3499,4.3246,4.3118,4.31,4.2843,4.2733,4.2751,4.3155,4.3485,4.3719,4.3999,4.4274,4.4563,4.5095,4.5388,4.5535,4.5792,4.5883,4.5883,4.5883,4.5883,4.5883,4.5883,4.5883,4.5883,4.5883,4.5883,4.5883,4.5883,4.6201,4.6531,4.6678,4.7204,4.7791,4.8219,4.8311,4.8311,4.8311,4.8311,4.8311,4.8311,4.798,4.7571,4.7185,4.6788,4.6366,4.5957,4.5883,4.5645,4.5008,4.4788,4.4457,4.3797,4.3701,4.3646,4.3499,4.3628,4.3224,4.207,4.2007,4.1579,4.0652,4.0606,4.0606,4.0606,4.0606,4.0606,4.0606,4.0606,4.0606,4.0589,4.0184,3.983,2.8155,2.9273,3.0581,3.2995,3.4486,3.5883,3.7854,3.9253,4.0367,4.1185,4.1962,4.2531,4.2659,4.2916,4.3191,4.3444,4.3499,4.3499,4.3499,4.3499,4.3444,4.3298,4.3302,4.3136,4.2733,4.2696,4.2531,4.2127,4.2219,4.2237,4.2109,4.2476,4.2696,4.2696,4.2971,4.3118,4.3118,4.3118,4.3118,4.3078,4.2824,4.2696,4.2678,4.2421,4.2292,4.2329,4.2736,4.3045,4.3338,4.3719,4.398,4.4182,4.4843,4.5168,4.5352,4.5737,4.5883,4.5883,4.5883,4.5883,4.5883,4.5883,4.5883,4.5883,4.5883,4.5883,4.5883,4.5883,4.6109,4.6329,4.6476,4.71,4.7754,4.8054,4.8219,4.8274,4.8145,4.8194,4.8311,4.8311,4.798,4.7571,4.7185,4.6788,4.6366,4.5957,4.5797,4.5467,4.4788,4.4586,4.4237,4.3573,4.3499,4.3499,4.3499,4.3499,4.3057,4.2052,4.2007,4.1579,4.0652,4.0606,4.0606,4.0606,4.0606,4.0606,4.0606,4.0606,4.0606,4.0589,4.007,3.9573,0.0,0.0,0.0,3.1486,3.2809,3.4209,3.6267,3.7679,3.903,4.0668,4.1357,4.1779,4.2182,4.2274,4.2549,4.3334,4.3463,4.3481,4.3481,4.3481,4.3316,4.2916,4.2879,4.2714,4.2329,4.2274,4.2127,4.1702,4.2054,4.2091,4.1705,4.2072,4.2292,4.2292,4.2292,4.2292,4.2292,4.2292,4.2292,4.2292,4.2292,4.2274,4.2274,4.2274,4.2256,4.2292,4.2696,4.2879,4.2898,4.3338,4.3719,4.4127,4.4531,4.4953,4.5333,4.5737,4.5883,4.5883,4.5883,4.5883,4.5883,4.5883,4.5883,4.5883,4.5883,4.5883,4.5883,4.5883,4.5883,4.5975,4.6402,4.7081,4.7662,4.7681,4.7974,4.8164,4.7754,4.7974,4.8249,4.8249,4.7937,4.7552,4.7149,4.6745,4.6366,4.5957,4.5553,4.515,4.4751,4.4347,4.3962,4.3536,4.3499,4.3499,4.3499,4.3499,4.3079,4.2097,4.2007,4.1579,4.0652,4.0606,4.0606,4.0606,4.0606,4.0606,4.0606,4.0606,4.0606,4.0572,3.9818,3.9064,2.7194,0.0,0.0,0.0,0.0,0.0,3.5048,3.6434,3.7676,3.9021,3.9889,4.0607,4.1304,4.1669,4.2035,4.2549,4.2879,4.3063,4.3063,4.3063,4.2916,4.2513,4.2457,4.2311,4.1907,4.187,4.1705,4.1304,4.1378,4.1375,4.1286,4.165,4.1999,4.2292,4.2292,4.2292,4.2292,4.2292,4.2292,4.2292,4.2017,4.187,4.187,4.1558,4.1433,4.147,4.2164,4.2457,4.2513,4.3206,4.3554,4.3719,4.4421,4.4769,4.4953,4.5627,4.5883,4.5883,4.5883,4.5883,4.5883,4.5883,4.5883,4.5883,4.5883,4.5883,4.5883,4.5883,4.5883,4.5975,4.6402,4.6678,4.6916,4.7204,4.7351,4.7406,4.7295,4.7351,4.7424,4.7424,4.7351,4.713,4.6751,4.6586,4.6366,4.5957,4.5553,4.515,4.4751,4.4347,4.3962,4.3536,4.3499,4.3499,4.3499,4.3499,4.3236,4.2613,4.2209,4.1737,4.1145,4.0788,4.0606,4.0606,4.0606,4.0606,4.0606,4.0606,4.0446,4.015,3.9419,3.8781,0.0,0.0,0.0,0.0,0.0,0.0,3.3399,3.4807,3.609,3.7134,3.8163,3.9045,3.9687,4.0272,4.0848,4.146,4.189,4.2269,4.2589,4.2641,4.2494,4.2109,4.2054,4.1889,4.1485,4.1302,4.11,4.0882,4.0864,4.0937,4.1084,4.132,4.1558,4.1779,4.1797,4.1797,4.1797,4.1797,4.1797,4.1797,4.1558,4.1448,4.143,4.1213,4.1102,4.1139,4.1779,4.2146,4.2347,4.299,4.3357,4.3573,4.4384,4.4696,4.4788,4.5613,4.5883,4.5883,4.5883,4.5883,4.5883,4.5883,4.5883,4.5883,4.5883,4.5883,4.5883,4.5883,4.5883,4.5938,4.6201,4.6384,4.6567,4.6782,4.6984,4.7057,4.6874,4.6837,4.6892,4.7075,4.6965,4.6788,4.6549,4.6366,4.6127,4.57,4.5297,4.4893,4.4494,4.4109,4.3756,4.3518,4.3499,4.3499,4.3499,4.3499,4.3303,4.2815,4.2299,4.1782,4.1325,4.0856,4.0606,4.0606,4.0606,4.0515,4.0361,4.0361,4.0064,3.9534,3.9106,3.8678,0.0,0.0,0.0,0.0,3.0195,0.0,3.1689,3.3046,3.4367,3.5174,3.6255,3.7208,3.7648,3.8363,3.9145,4.0012,4.054,4.114,4.2036,4.2155,4.1987,4.1558,4.1503,4.1357,4.0992,4.0644,4.0421,4.0421,4.0458,4.0662,4.1011,4.1084,4.1102,4.1102,4.1102,4.1102,4.1102,4.1102,4.1102,4.1102,4.1102,4.1102,4.1102,4.1102,4.1102,4.1121,4.1522,4.1944,4.2329,4.2733,4.3136,4.3573,4.4329,4.4659,4.4788,4.5535,4.5847,4.5883,4.5883,4.5883,4.5883,4.5883,4.5883,4.5883,4.5883,4.5883,4.5883,4.5883,4.5883,4.5883,4.5883,4.6182,4.6439,4.6439,4.669,4.6874,4.6512,4.6439,4.6549,4.691,4.6672,4.6439,4.6439,4.6145,4.5755,4.5352,4.4971,4.4549,4.4146,4.3738,4.3499,4.3499,4.3499,4.3499,4.3499,4.3499,4.3303,4.2882,4.2389,4.1872,4.1393,4.0924,4.0652,4.0606,4.0572,4.0327,3.9893,3.9893,3.9551,3.8901,3.8849,3.8644,0.0,0.0,0.0,0.0,2.9823,0.0,3.0919,3.1781,3.2716,3.3506,3.4367,3.521,3.5925,3.6457,3.7048,3.7853,3.8618,3.9604,4.1124,4.1347,4.1073,4.0336,4.024,4.0203,4.015,4.0056,4.0021,4.0021,4.0313,4.0531,4.0604,4.0937,4.1102,4.1102,4.1102,4.1102,4.1102,4.1102,4.1102,4.1102,4.1102,4.1102,4.1102,4.1102,4.1102,4.1121,4.1522,4.1944,4.2329,4.2733,4.3136,4.3536,4.4035,4.4421,4.4751,4.5223,4.5608,4.5883,4.5883,4.5883,4.5883,4.5883,4.5883,4.5883,4.5883,4.5883,4.5883,4.5883,4.5883,4.5883,4.5883,4.5957,4.6035,4.6035,4.609,4.6103,4.603,4.6035,4.6054,4.6103,4.6067,4.6035,4.6035,4.5938,4.5755,4.5352,4.4971,4.4549,4.4146,4.3738,4.3499,4.3499,4.3499,4.3499,4.3499,4.3499,4.3455,4.3388,4.2923,4.2411,4.1894,4.1398,4.0991,4.0606,4.027,3.9791,3.9106,3.9106,3.9038,3.8884,3.8576,3.8387,0.0,0.0,0.0,2.9848,3.014,0.0,0.0,3.0956,3.1573,3.2124,3.2877,3.3612,3.4158,3.4767,3.5393,3.601,3.6781,3.7594,3.8425,3.9647,4.0294,3.9906,3.9849,3.9849,3.9849,3.9483,3.9265,3.9247,3.9447,3.974,4.0185,4.0387,4.0497,4.0497,4.0497,4.0588,4.0809,4.0809,4.0901,4.1102,4.1102,4.1102,4.1102,4.1102,4.1102,4.1121,4.1522,4.1944,4.2329,4.2733,4.3136,4.3536,4.3944,4.4347,4.4751,4.515,4.5553,4.5883,4.5883,4.5883,4.5883,4.5883,4.5883,4.5883,4.5883,4.5883,4.5883,4.5883,4.5883,4.5883,4.5883,4.5883,4.5883,4.5883,4.5883,4.5883,4.5883,4.5883,4.5883,4.5883,4.5883,4.5883,4.5883,4.5718,4.5462,4.5058,4.4659,4.4256,4.3848,4.3609,4.3499,4.3499,4.3499,4.3499,4.3499,4.3499,4.3499,4.3499,4.3057,4.2681,4.2411,4.1687,4.099,4.031,3.9933,3.947,3.8901,3.8695,3.861,3.8593,3.8404,3.8302,0.0,0.0,0.0,0.0,3.0713,3.0681,0.0,0.0,0.0,3.0993,3.1577,3.2089,3.2378,3.3008,3.361,3.4005,3.4729,3.5303,3.5371,3.7218,3.869,3.903,3.9143,3.92,3.92,3.8684,3.8374,3.8371,3.8517,3.8901,3.9615,3.9799,3.9911,3.9911,3.9911,4.0058,4.0387,4.0458,4.0659,4.0992,4.1066,4.1102,4.1102,4.1102,4.1102,4.1121,4.1522,4.1944,4.2329,4.2733,4.3136,4.3518,4.387,4.4274,4.4733,4.5058,4.548,4.5883,4.5883,4.5883,4.5883,4.5883,4.5883,4.5883,4.5883,4.5883,4.5883,4.5883,4.5883,4.5883,4.5883,4.5883,4.5883,4.5883,4.5883,4.5883,4.5883,4.5883,4.5883,4.5883,4.5883,4.5883,4.5883,4.5572,4.515,4.4751,4.4366,4.3962,4.3536,4.3499,4.3499,4.3499,4.3499,4.3499,4.3499,4.3499,4.3499,4.3499,4.3146,4.2882,4.2793,4.1845,4.0903,4.0013,3.9659,3.9304,3.8901,3.8507,3.8302,3.8302,3.8302,3.8302,0.0,0.0,3.2398,3.1989,3.134,3.0681,3.0296,0.0,2.9831,3.0168,0.0,3.039,3.0706,0.0,0.0,3.1363,3.2119,3.2766,3.3113,3.372,3.4688,3.625,3.6801,3.7046,3.7046,3.7292,3.7465,3.7519,3.8206,3.8644,3.873,3.9467,3.9911,3.9911,3.9911,3.993,3.9985,4.0331,4.0513,4.0568,4.0937,4.1102,4.1102,4.1102,4.1102,4.1121,4.1522,4.1944,4.2329,4.2733,4.3136,4.3499,4.3536,4.4035,4.4696,4.4751,4.5246,4.5883,4.5883,4.5883,4.5883,4.5883,4.5883,4.5883,4.5883,4.5883,4.5883,4.5883,4.5883,4.5883,4.5883,4.5883,4.5883,4.5883,4.5883,4.5883,4.5883,4.5883,4.5883,4.5883,4.5883,4.5883,4.5883,4.5572,4.515,4.4751,4.4366,4.3962,4.3536,4.3499,4.3499,4.3499,4.3499,4.3499,4.3499,4.3499,4.3499,4.3499,4.3455,4.3236,4.2815,4.1845,4.0903,4.0013,3.9659,3.9304,3.8901,3.8507,3.8302,3.8302,3.8302,3.8302,0.0,3.3827,3.3482,3.2616,3.212,3.1559,3.0442,2.9889,2.9628,2.9737,0.0,0.0,0.0,0.0,0.0,0.0,3.0069,3.0345,3.0518,3.0918,3.2124,3.4596,3.508,3.5303,3.5578,3.5751,3.5982,3.6272,3.6831,3.7368,3.7868,3.8475,3.8896,3.9135,3.9153,3.9263,3.9483,3.9667,3.9997,4.0494,4.068,4.0861,4.1102,4.1102,4.1102,4.1139,4.176,4.2146,4.2347,4.299,4.3357,4.3499,4.3499,4.3999,4.4696,4.4696,4.521,4.5883,4.5883,4.5883,4.5883,4.5883,4.5883,4.5883,4.5883,4.5883,4.5883,4.5883,4.5883,4.5883,4.5883,4.5883,4.5883,4.5883,4.5883,4.5883,4.5883,4.5883,4.5883,4.5883,4.5883,4.5883,4.5883,4.5375,4.4898,4.4714,4.4164,4.3683,4.3518,4.3499,4.3499,4.3499,4.3499,4.3499,4.3499,4.3499,4.3499,4.3499,4.3499,4.328,4.2815,4.2097,4.1291,4.0416,4.0015,3.9505,3.8901,3.873,3.8524,3.8302,3.8302,3.8302,3.5155,3.4974,3.4496,3.3495,3.2934,3.2203,3.0699,2.9962,2.9573,2.9509,2.9035,0.0,0.0,0.0,2.8203,2.8351,0.0,2.817,2.804,2.832,2.9604,3.2531,3.3078,3.3401,3.3849,3.4106,3.4445,3.494,3.5449,3.6126,3.7026,3.7447,3.7905,3.8417,3.8435,3.8618,3.9021,3.9131,3.9573,4.0311,4.0439,4.0696,4.1102,4.1102,4.1102,4.1139,4.1793,4.2162,4.2366,4.304,4.3369,4.3499,4.3609,4.409,4.4696,4.4696,4.521,4.5883,4.5883,4.5883,4.5883,4.5883,4.5883,4.5883,4.5883,4.5883,4.5883,4.5883,4.5883,4.5883,4.5883,4.5883,4.5883,4.5883,4.5883,4.5883,4.5883,4.5883,4.5883,4.5883,4.5883,4.5847,4.5737,4.5173,4.4696,4.4696,4.4017,4.3499,4.3499,4.3499,4.3499,4.3499,4.3499,4.3499,4.3499,4.3499,4.3499,4.3499,4.3499,4.328,4.2815,4.2277,4.1641,4.0885,4.0311,3.9688,3.9059,3.8952,3.8695,3.8302,3.8302,3.8302,3.7085,3.6404,3.546,3.503,3.3763,3.2276,3.1063,3.0164,2.9573,2.9509,2.883,2.8394,2.9001,0.0,0.0,0.0,0.0,0.0,0.0,2.5823,2.6804,2.9442,3.0483,3.1172,3.1572,3.2372,3.3086,3.3603,3.4403,3.5257,3.6201,3.6622,3.7189,3.7997,3.8015,3.8217,3.8618,3.9003,3.9408,3.983,4.0292,4.0696,4.1102,4.1102,4.1102,4.1118,4.1405,4.1815,4.2344,4.2667,4.3101,4.3536,4.3944,4.4329,4.4696,4.4696,4.521,4.5883,4.5883,4.5883,4.5883,4.5883,4.5883,4.5883,4.5883,4.5883,4.5883,4.5883,4.5883,4.5883,4.5883,4.5883,4.5883,4.5883,4.5883,4.5883,4.5883,4.5883,4.5883,4.5883,4.5883,4.5797,4.5388,4.4966,4.4696,4.4696,4.4017,4.3499,4.3499,4.3499,4.3499,4.3499,4.3499,4.3499,4.3499,4.3499,4.3499,4.3499,4.3499,4.328,4.2815,4.2277,4.1782,4.1285,4.0449,3.9847,3.9497,3.9094,3.8695,3.8302,3.8302,3.8302,3.756,3.7219,3.6583,3.5959,3.4991,3.3726,3.2001,3.1176,3.0547,2.9744,2.9116,2.8741,2.8757,0.0,0.0,0.0,0.0,0.0,0.0,2.484,2.5164,2.6055,2.7708,2.9037,2.9712,3.0412,3.1131,3.1882,3.3014,3.4059,3.4953,3.5907,3.6659,3.719,3.7722,3.807,3.8198,3.86,3.9003,3.9408,3.987,4.0313,4.0696,4.0992,4.1102,4.1097,4.1384,4.1793,4.2322,4.2645,4.3079,4.3499,4.3646,4.4109,4.4733,4.5008,4.5448,4.5883,4.5883,4.5883,4.5883,4.5883,4.5883,4.5883,4.5883,4.5883,4.5883,4.5883,4.5883,4.5883,4.5883,4.5883,4.5883,4.5883,4.5883,4.5883,4.5883,4.5883,4.5883,4.5883,4.5883,4.587,4.5718,4.5155,4.4604,4.4347,4.3829,4.3499,4.3499,4.3499,4.3499,4.3499,4.3499,4.3499,4.3499,4.3499,4.3499,4.3499,4.3499,4.3432,4.3258,4.2788,4.2277,4.1759,4.1164,4.0516,3.9847,3.9688,3.9431,3.9098,3.8837,3.8558,3.845,3.8263,3.7799,3.7036,3.6127,3.4936,3.3066,3.2111,3.1306,3.0238,2.9485,2.895,2.8846,2.7648,0.0,0.0,0.0,0.0,0.0,2.4199,2.4246,2.4371,2.5813,2.6999,2.7558,2.8385,2.9264,3.0201,3.1501,3.2751,3.3908,3.4972,3.5889,3.6548,3.7373,3.785,3.7997,3.8398,3.8801,3.9186,3.9522,3.9944,4.0494,4.0772,4.0974,4.1097,4.107,4.1536,4.2304,4.2345,4.2796,4.3518,4.3646,4.4035,4.4531,4.4953,4.5425,4.5883,4.5883,4.5883,4.5883,4.5883,4.5883,4.5865,4.5718,4.5682,4.5645,4.5522,4.5485,4.5522,4.5645,4.5682,4.5718,4.5889,4.5883,4.5883,4.5883,4.5883,4.5883,4.5883,4.5883,4.5847,4.57,4.5136,4.4604,4.4347,4.3852,4.3499,4.3499,4.3499,4.3499,4.3499,4.3499,4.3499,4.3499,4.3499,4.3499,4.3499,4.3499,4.3499,4.3499,4.3057,4.2546,4.2007,4.1551,4.0864,3.9991,3.9991,3.9847,3.9475,3.9214,3.8974]}]]